Time,TemperatureF,DewpointF,PressureIn,WindDirection,WindDirectionDegrees,WindSpeedMPH,WindSpeedGustMPH,Humidity,HourlyPrecipIn,Conditions,Clouds,dailyrainin,SoftwareType,DateUTC
2013-02-09 00:00:00,59.2,40.6,30.08,NNW,342,0.0,0.0,50,0.00,,---,0.00,VWS V14.01,2013-02-09 05:00:00,
2013-02-09 00:01:00,59.2,40.6,30.08,NNW,342,0.0,0.0,50,0.00,,---,0.00,VWS V14.01,2013-02-09 05:01:00,
2013-02-09 00:02:00,59.2,40.6,30.08,NNW,342,0.0,0.0,50,0.00,,---,0.00,VWS V14.01,2013-02-09 05:02:00,
2013-02-09 00:03:00,59.2,40.6,30.08,NNW,342,0.0,0.0,50,0.00,,---,0.00,VWS V14.01,2013-02-09 05:03:00,
2013-02-09 00:04:00,59.2,40.6,30.08,NNW,342,0.0,0.0,50,0.00,,---,0.00,VWS V14.01,2013-02-09 05:04:00,
2013-02-09 00:05:00,59.2,40.6,30.08,NNW,342,0.0,0.0,50,0.00,,---,0.00,VWS V14.01,2013-02-09 05:05:00,
2013-02-09 00:06:00,59.2,40.6,30.08,NNW,342,0.0,0.0,50,0.00,,---,0.00,VWS V14.01,2013-02-09 05:06:00,
2013-02-09 00:07:00,59.2,40.6,30.08,NNW,342,0.0,0.0,50,0.00,,---,0.00,VWS V14.01,2013-02-09 05:07:00,
2013-02-09 00:08:00,59.2,40.6,30.08,NNW,342,0.0,0.0,50,0.00,,---,0.00,VWS V14.01,2013-02-09 05:08:00,
2013-02-09 00:09:00,59.2,40.6,30.08,NNW,342,0.0,0.0,50,0.00,,---,0.00,VWS V14.01,2013-02-09 05:09:00,
2013-02-09 00:10:00,59.2,40.6,30.08,NNW,342,0.0,0.0,50,0.00,,---,0.00,VWS V14.01,2013-02-09 05:10:00,
2013-02-09 00:11:00,59.0,40.4,30.08,NNW,342,0.0,0.0,50,0.00,,---,0.00,VWS V14.01,2013-02-09 05:11:00,
2013-02-09 00:12:00,59.0,40.4,30.08,NNW,342,0.0,0.0,50,0.00,,---,0.00,VWS V14.01,2013-02-09 05:12:00,
2013-02-09 00:13:00,59.0,40.4,30.08,NNW,342,0.0,0.0,50,0.00,,---,0.00,VWS V14.01,2013-02-09 05:13:00,
2013-02-09 00:14:00,59.0,40.4,30.08,NNW,342,0.0,0.0,50,0.00,,---,0.00,VWS V14.01,2013-02-09 05:14:00,
2013-02-09 00:15:00,59.0,40.4,30.08,NNW,342,0.0,0.0,50,0.00,,---,0.00,VWS V14.01,2013-02-09 05:15:00,
2013-02-09 00:16:00,59.0,40.4,30.08,NNW,342,0.0,0.0,50,0.00,,---,0.00,VWS V14.01,2013-02-09 05:16:00,
2013-02-09 00:17:00,59.0,40.4,30.08,NNW,342,0.0,0.0,50,0.00,,---,0.00,VWS V14.01,2013-02-09 05:17:00,
2013-02-09 00:18:00,59.0,40.4,30.08,NNW,342,0.0,0.0,50,0.00,,---,0.00,VWS V14.01,2013-02-09 05:18:00,
2013-02-09 00:19:00,59.0,40.4,30.08,NNW,342,0.0,0.0,50,0.00,,---,0.00,VWS V14.01,2013-02-09 05:19:00,
2013-02-09 00:20:00,59.0,40.4,30.08,NNW,342,0.0,0.0,50,0.00,,---,0.00,VWS V14.01,2013-02-09 05:20:00,
2013-02-09 00:21:00,59.0,40.4,30.08,NNW,342,0.0,0.0,50,0.00,,---,0.00,VWS V14.01,2013-02-09 05:21:00,
2013-02-09 00:22:00,59.0,40.4,30.08,NNW,342,0.0,0.0,50,0.00,,---,0.00,VWS V14.01,2013-02-09 05:22:00,
2013-02-09 00:23:00,59.0,40.4,30.08,NNW,342,0.0,0.0,50,0.00,,---,0.00,VWS V14.01,2013-02-09 05:23:00,
2013-02-09 00:24:00,58.8,40.2,30.08,NNW,342,0.0,0.0,50,0.00,,---,0.00,VWS V14.01,2013-02-09 05:24:00,
2013-02-09 00:25:00,58.8,40.2,30.08,NNW,342,0.0,0.0,50,0.00,,---,0.00,VWS V14.01,2013-02-09 05:25:00,
2013-02-09 00:26:00,58.8,40.2,30.08,NNW,342,0.0,0.0,50,0.00,,---,0.00,VWS V14.01,2013-02-09 05:26:00,
2013-02-09 00:27:00,58.8,40.2,30.08,NNW,342,0.0,0.0,50,0.00,,---,0.00,VWS V14.01,2013-02-09 05:27:00,
2013-02-09 00:28:00,58.8,40.2,30.08,NNW,342,0.0,0.0,50,0.00,,---,0.00,VWS V14.01,2013-02-09 05:28:00,
2013-02-09 00:29:00,58.8,40.2,30.08,NNW,342,0.0,0.0,50,0.00,,---,0.00,VWS V14.01,2013-02-09 05:29:00,
2013-02-09 00:30:00,58.8,40.2,30.08,NNW,342,0.0,0.0,50,0.00,,---,0.00,VWS V14.01,2013-02-09 05:30:00,
2013-02-09 00:31:00,58.8,40.2,30.08,NNW,342,0.0,0.0,50,0.00,,---,0.00,VWS V14.01,2013-02-09 05:31:00,
2013-02-09 00:32:00,58.6,40.1,30.08,NNW,342,0.0,0.0,50,0.00,,---,0.00,VWS V14.01,2013-02-09 05:32:00,
2013-02-09 00:33:00,58.6,40.1,30.08,NNW,342,0.0,0.0,50,0.00,,---,0.00,VWS V14.01,2013-02-09 05:33:00,
2013-02-09 00:34:00,58.6,40.1,30.08,NNW,342,0.0,0.0,50,0.00,,---,0.00,VWS V14.01,2013-02-09 05:34:00,
2013-02-09 00:35:00,58.6,40.1,30.08,NNW,342,0.0,0.0,50,0.00,,---,0.00,VWS V14.01,2013-02-09 05:35:00,
2013-02-09 00:36:00,58.6,40.1,30.08,NNW,342,0.0,0.0,50,0.00,,---,0.00,VWS V14.01,2013-02-09 05:36:00,
2013-02-09 00:37:00,58.6,40.1,30.08,NNW,342,0.0,0.0,50,0.00,,---,0.00,VWS V14.01,2013-02-09 05:37:00,
2013-02-09 00:38:00,58.6,40.1,30.08,NNW,342,0.0,0.0,50,0.00,,---,0.00,VWS V14.01,2013-02-09 05:38:00,
2013-02-09 00:39:00,58.8,40.2,30.08,NNW,342,0.0,0.0,50,0.00,,---,0.00,VWS V14.01,2013-02-09 05:39:00,
2013-02-09 00:40:00,58.6,40.1,30.08,NNW,342,0.0,0.0,50,0.00,,---,0.00,VWS V14.01,2013-02-09 05:40:00,
2013-02-09 00:41:00,58.6,40.1,30.08,NNW,342,0.0,0.0,50,0.00,,---,0.00,VWS V14.01,2013-02-09 05:41:00,
2013-02-09 00:42:00,58.6,40.1,30.08,NNW,342,0.0,0.0,50,0.00,,---,0.00,VWS V14.01,2013-02-09 05:42:00,
2013-02-09 00:43:00,58.6,40.1,30.08,NNW,342,0.0,0.0,50,0.00,,---,0.00,VWS V14.01,2013-02-09 05:43:00,
2013-02-09 00:44:00,58.6,40.1,30.08,NNW,342,0.0,0.0,50,0.00,,---,0.00,VWS V14.01,2013-02-09 05:44:00,
2013-02-09 00:45:00,58.6,40.1,30.08,NNW,342,0.0,0.0,50,0.00,,---,0.00,VWS V14.01,2013-02-09 05:45:00,
2013-02-09 00:46:00,58.6,40.1,30.08,NNW,342,0.0,0.0,50,0.00,,---,0.00,VWS V14.01,2013-02-09 05:46:00,
2013-02-09 00:47:00,58.6,40.1,30.08,NNW,342,0.0,0.0,50,0.00,,---,0.00,VWS V14.01,2013-02-09 05:47:00,
2013-02-09 00:48:00,58.5,39.9,30.08,NNW,342,0.0,0.0,50,0.00,,---,0.00,VWS V14.01,2013-02-09 05:48:00,
2013-02-09 00:49:00,58.6,40.1,30.08,NNW,342,0.0,0.0,50,0.00,,---,0.00,VWS V14.01,2013-02-09 05:49:00,
2013-02-09 00:50:00,58.5,39.9,30.08,NNW,342,0.0,0.0,50,0.00,,---,0.00,VWS V14.01,2013-02-09 05:50:00,
2013-02-09 00:51:00,58.5,39.9,30.08,NNW,342,0.0,0.0,50,0.00,,---,0.00,VWS V14.01,2013-02-09 05:51:00,
2013-02-09 00:52:00,58.5,39.9,30.08,NNW,342,0.0,0.0,50,0.00,,---,0.00,VWS V14.01,2013-02-09 05:52:00,
2013-02-09 00:53:00,58.5,39.9,30.08,NNW,342,0.0,0.0,50,0.00,,---,0.00,VWS V14.01,2013-02-09 05:53:00,
2013-02-09 00:54:00,58.5,39.9,30.08,NNW,342,0.0,0.0,50,0.00,,---,0.00,VWS V14.01,2013-02-09 05:54:00,
2013-02-09 00:55:00,58.5,39.9,30.08,NNW,342,0.0,0.0,50,0.00,,---,0.00,VWS V14.01,2013-02-09 05:55:00,
2013-02-09 00:56:00,58.5,39.9,30.08,NNW,342,0.0,0.0,50,0.00,,---,0.00,VWS V14.01,2013-02-09 05:56:00,
2013-02-09 00:57:00,58.5,39.9,30.08,NNW,342,0.0,0.0,50,0.00,,---,0.00,VWS V14.01,2013-02-09 05:57:00,
2013-02-09 00:58:00,58.5,39.9,30.08,NNW,342,0.0,0.0,50,0.00,,---,0.00,VWS V14.01,2013-02-09 05:58:00,
2013-02-09 00:59:00,58.5,39.9,30.08,NNW,342,0.0,0.0,50,0.00,,---,0.00,VWS V14.01,2013-02-09 05:59:00,
2013-02-09 01:00:00,58.5,39.9,30.08,NNW,342,0.0,0.0,50,0.00,,---,0.00,VWS V14.01,2013-02-09 06:00:00,
2013-02-09 01:01:00,58.5,39.9,30.08,NNW,342,0.0,0.0,50,0.00,,---,0.00,VWS V14.01,2013-02-09 06:01:00,
2013-02-09 01:02:00,58.5,39.9,30.08,NNW,342,0.0,0.0,50,0.00,,---,0.00,VWS V14.01,2013-02-09 06:02:00,
2013-02-09 01:03:00,58.5,39.9,30.08,NNW,342,0.0,0.0,50,0.00,,---,0.00,VWS V14.01,2013-02-09 06:03:00,
2013-02-09 01:04:00,58.5,39.9,30.08,NNW,342,0.0,0.0,50,0.00,,---,0.00,VWS V14.01,2013-02-09 06:04:00,
2013-02-09 01:05:00,58.5,39.9,30.08,NNW,342,0.0,0.0,50,0.00,,---,0.00,VWS V14.01,2013-02-09 06:05:00,
2013-02-09 01:06:00,58.5,39.9,30.08,NNW,342,0.0,0.0,50,0.00,,---,0.00,VWS V14.01,2013-02-09 06:06:00,
2013-02-09 01:07:00,58.5,39.9,30.08,NNW,342,0.0,0.0,50,0.00,,---,0.00,VWS V14.01,2013-02-09 06:07:00,
2013-02-09 01:08:00,58.5,39.9,30.08,NNW,342,0.0,0.0,50,0.00,,---,0.00,VWS V14.01,2013-02-09 06:08:00,
2013-02-09 01:09:00,58.3,39.7,30.08,NNW,342,0.0,0.0,50,0.00,,---,0.00,VWS V14.01,2013-02-09 06:09:00,
2013-02-09 01:10:00,58.3,39.7,30.08,NNW,342,0.0,0.0,50,0.00,,---,0.00,VWS V14.01,2013-02-09 06:10:00,
2013-02-09 01:11:00,58.3,39.7,30.08,NNW,342,0.0,0.0,50,0.00,,---,0.00,VWS V14.01,2013-02-09 06:11:00,
2013-02-09 01:12:00,58.3,39.7,30.08,NNW,342,0.0,0.0,50,0.00,,---,0.00,VWS V14.01,2013-02-09 06:12:00,
2013-02-09 01:13:00,58.3,39.7,30.08,NNW,342,0.0,0.0,50,0.00,,---,0.00,VWS V14.01,2013-02-09 06:13:00,
2013-02-09 01:14:00,58.3,39.7,30.08,NNW,342,0.0,0.0,50,0.00,,---,0.00,VWS V14.01,2013-02-09 06:14:00,
2013-02-09 01:15:00,58.3,39.7,30.08,NNW,342,0.0,0.0,50,0.00,,---,0.00,VWS V14.01,2013-02-09 06:15:00,
2013-02-09 01:16:00,58.3,39.7,30.08,NNW,342,0.0,0.0,50,0.00,,---,0.00,VWS V14.01,2013-02-09 06:16:00,
2013-02-09 01:17:00,58.3,39.7,30.08,NNW,342,0.0,0.0,50,0.00,,---,0.00,VWS V14.01,2013-02-09 06:17:00,
2013-02-09 01:18:00,58.3,39.7,30.08,NNW,342,0.0,0.0,50,0.00,,---,0.00,VWS V14.01,2013-02-09 06:18:00,
2013-02-09 01:19:00,58.3,39.7,30.08,NNW,342,0.0,0.0,50,0.00,,---,0.00,VWS V14.01,2013-02-09 06:19:00,
2013-02-09 01:20:00,58.3,39.7,30.08,NNW,342,0.0,0.0,50,0.00,,---,0.00,VWS V14.01,2013-02-09 06:20:00,
2013-02-09 01:21:00,58.3,39.7,30.08,NNW,342,0.0,0.0,50,0.00,,---,0.00,VWS V14.01,2013-02-09 06:21:00,
2013-02-09 01:22:00,58.3,39.7,30.08,NNW,342,0.0,0.0,50,0.00,,---,0.00,VWS V14.01,2013-02-09 06:22:00,
2013-02-09 01:23:00,58.3,39.7,30.08,NNW,342,0.0,0.0,50,0.00,,---,0.00,VWS V14.01,2013-02-09 06:23:00,
2013-02-09 01:24:00,58.1,39.6,30.08,NNW,342,0.0,0.0,50,0.00,,---,0.00,VWS V14.01,2013-02-09 06:24:00,
2013-02-09 01:25:00,58.1,39.6,30.08,NNW,342,0.0,0.0,50,0.00,,---,0.00,VWS V14.01,2013-02-09 06:25:00,
2013-02-09 01:26:00,58.1,39.6,30.08,NNW,342,0.0,0.0,50,0.00,,---,0.00,VWS V14.01,2013-02-09 06:26:00,
2013-02-09 01:27:00,58.1,39.6,30.08,NNW,342,0.0,0.0,50,0.00,,---,0.00,VWS V14.01,2013-02-09 06:27:00,
2013-02-09 01:28:00,57.9,39.4,30.08,NNW,342,0.0,0.0,50,0.00,,---,0.00,VWS V14.01,2013-02-09 06:28:00,
2013-02-09 01:29:00,57.9,39.4,30.08,NNW,342,0.0,0.0,50,0.00,,---,0.00,VWS V14.01,2013-02-09 06:29:00,
2013-02-09 01:30:00,57.9,39.4,30.08,NNW,342,0.0,0.0,50,0.00,,---,0.00,VWS V14.01,2013-02-09 06:30:00,
2013-02-09 01:31:00,57.9,39.4,30.08,NNW,342,0.0,0.0,50,0.00,,---,0.00,VWS V14.01,2013-02-09 06:31:00,
2013-02-09 01:32:00,57.9,39.4,30.08,NNW,342,0.0,0.0,50,0.00,,---,0.00,VWS V14.01,2013-02-09 06:32:00,
2013-02-09 01:33:00,57.9,39.4,30.08,NNW,342,0.0,0.0,50,0.00,,---,0.00,VWS V14.01,2013-02-09 06:33:00,
2013-02-09 01:34:00,57.7,39.2,30.08,NNW,342,0.0,0.0,50,0.00,,---,0.00,VWS V14.01,2013-02-09 06:34:00,
2013-02-09 01:35:00,57.7,39.2,30.08,NNW,342,0.0,0.0,50,0.00,,---,0.00,VWS V14.01,2013-02-09 06:35:00,
2013-02-09 01:36:00,57.7,39.2,30.08,NNW,342,0.0,0.0,50,0.00,,---,0.00,VWS V14.01,2013-02-09 06:36:00,
2013-02-09 01:37:00,57.7,39.2,30.08,NNW,342,0.0,0.0,50,0.00,,---,0.00,VWS V14.01,2013-02-09 06:37:00,
2013-02-09 01:38:00,57.6,39.1,30.08,NNW,342,0.0,0.0,50,0.00,,---,0.00,VWS V14.01,2013-02-09 06:38:00,
2013-02-09 01:39:00,57.6,39.1,30.08,NNW,342,0.0,0.0,50,0.00,,---,0.00,VWS V14.01,2013-02-09 06:39:00,
2013-02-09 01:40:00,57.6,39.1,30.08,NNW,342,0.0,0.0,50,0.00,,---,0.00,VWS V14.01,2013-02-09 06:40:00,
2013-02-09 01:41:00,57.6,39.1,30.08,NNW,342,0.0,0.0,50,0.00,,---,0.00,VWS V14.01,2013-02-09 06:41:00,
2013-02-09 01:42:00,57.6,39.1,30.08,NNW,342,0.0,0.0,50,0.00,,---,0.00,VWS V14.01,2013-02-09 06:42:00,
2013-02-09 01:43:00,57.6,39.1,30.08,NNW,342,0.0,0.0,50,0.00,,---,0.00,VWS V14.01,2013-02-09 06:43:00,
2013-02-09 01:44:00,57.6,39.1,30.08,NNW,342,0.0,0.0,50,0.00,,---,0.00,VWS V14.01,2013-02-09 06:44:00,
2013-02-09 01:45:00,57.6,39.1,30.08,NNW,342,0.0,0.0,50,0.00,,---,0.00,VWS V14.01,2013-02-09 06:45:00,
2013-02-09 01:46:00,57.6,39.1,30.08,NNW,342,0.0,0.0,50,0.00,,---,0.00,VWS V14.01,2013-02-09 06:46:00,
2013-02-09 01:47:00,57.6,39.1,30.08,NNW,342,0.0,0.0,50,0.00,,---,0.00,VWS V14.01,2013-02-09 06:47:00,
2013-02-09 01:48:00,57.6,39.1,30.08,NNW,342,0.0,0.0,50,0.00,,---,0.00,VWS V14.01,2013-02-09 06:48:00,
2013-02-09 01:49:00,57.6,39.1,30.08,NNW,342,0.0,0.0,50,0.00,,---,0.00,VWS V14.01,2013-02-09 06:49:00,
2013-02-09 01:50:00,57.6,39.1,30.08,NNW,342,0.0,0.0,50,0.00,,---,0.00,VWS V14.01,2013-02-09 06:50:00,
2013-02-09 01:51:00,57.7,39.2,30.08,NNW,342,0.0,0.0,50,0.00,,---,0.00,VWS V14.01,2013-02-09 06:51:00,
2013-02-09 01:52:00,57.6,39.1,30.08,NNW,342,0.0,0.0,50,0.00,,---,0.00,VWS V14.01,2013-02-09 06:52:00,
2013-02-09 01:53:00,57.6,39.1,30.08,NNW,342,0.0,0.0,50,0.00,,---,0.00,VWS V14.01,2013-02-09 06:53:00,
2013-02-09 01:54:00,57.6,39.1,30.08,NNW,342,0.0,0.0,50,0.00,,---,0.00,VWS V14.01,2013-02-09 06:54:00,
2013-02-09 01:55:00,57.6,39.1,30.08,NNW,342,0.0,0.0,50,0.00,,---,0.00,VWS V14.01,2013-02-09 06:55:00,
2013-02-09 01:56:00,57.6,39.1,30.08,NNW,342,0.0,0.0,50,0.00,,---,0.00,VWS V14.01,2013-02-09 06:56:00,
2013-02-09 01:57:00,57.6,39.1,30.08,NNW,342,0.0,0.0,50,0.00,,---,0.00,VWS V14.01,2013-02-09 06:57:00,
2013-02-09 01:58:00,57.6,39.1,30.08,NNW,342,0.0,0.0,50,0.00,,---,0.00,VWS V14.01,2013-02-09 06:58:00,
2013-02-09 01:59:00,57.6,39.1,30.08,NNW,342,0.0,0.0,50,0.00,,---,0.00,VWS V14.01,2013-02-09 06:59:00,
2013-02-09 02:00:00,57.6,39.1,30.08,NNW,342,0.0,0.0,50,0.00,,---,0.00,VWS V14.01,2013-02-09 07:00:00,
2013-02-09 02:01:00,57.6,39.1,30.08,NNW,342,0.0,0.0,50,0.00,,---,0.00,VWS V14.01,2013-02-09 07:01:00,
2013-02-09 02:02:00,57.6,39.1,30.08,NNW,342,0.0,0.0,50,0.00,,---,0.00,VWS V14.01,2013-02-09 07:02:00,
2013-02-09 02:03:00,57.6,39.1,30.08,NNW,342,0.0,0.0,50,0.00,,---,0.00,VWS V14.01,2013-02-09 07:03:00,
2013-02-09 02:04:00,57.6,39.1,30.08,NNW,342,0.0,0.0,50,0.00,,---,0.00,VWS V14.01,2013-02-09 07:04:00,
2013-02-09 02:05:00,57.6,39.1,30.08,NNW,342,0.0,0.0,50,0.00,,---,0.00,VWS V14.01,2013-02-09 07:05:00,
2013-02-09 02:06:00,57.6,39.1,30.08,NNW,342,0.0,0.0,50,0.00,,---,0.00,VWS V14.01,2013-02-09 07:06:00,
2013-02-09 02:07:00,57.6,39.1,30.08,NNW,343,0.0,0.0,50,0.00,,---,0.00,VWS V14.01,2013-02-09 07:07:00,
2013-02-09 02:08:00,57.6,39.1,30.08,NNW,342,0.0,0.0,50,0.00,,---,0.00,VWS V14.01,2013-02-09 07:08:00,
2013-02-09 02:09:00,57.6,39.1,30.08,NNW,342,0.0,0.0,50,0.00,,---,0.00,VWS V14.01,2013-02-09 07:09:00,
2013-02-09 02:10:00,57.6,39.1,30.08,NNW,342,0.0,0.0,50,0.00,,---,0.00,VWS V14.01,2013-02-09 07:10:00,
2013-02-09 02:11:00,57.6,39.6,30.08,NNW,342,0.0,0.0,51,0.00,,---,0.00,VWS V14.01,2013-02-09 07:11:00,
2013-02-09 02:12:00,57.6,39.6,30.08,NNW,342,0.0,0.0,51,0.00,,---,0.00,VWS V14.01,2013-02-09 07:12:00,
2013-02-09 02:13:00,57.6,39.6,30.08,NNW,342,0.0,0.0,51,0.00,,---,0.00,VWS V14.01,2013-02-09 07:13:00,
2013-02-09 02:14:00,57.6,39.6,30.08,NNW,342,0.0,0.0,51,0.00,,---,0.00,VWS V14.01,2013-02-09 07:14:00,
2013-02-09 02:15:00,57.6,39.6,30.08,NNW,342,0.0,0.0,51,0.00,,---,0.00,VWS V14.01,2013-02-09 07:15:00,
2013-02-09 02:16:00,57.6,39.6,30.08,NNW,342,0.0,0.0,51,0.00,,---,0.00,VWS V14.01,2013-02-09 07:16:00,
2013-02-09 02:17:00,57.6,39.1,30.08,NNW,342,0.0,0.0,50,0.00,,---,0.00,VWS V14.01,2013-02-09 07:17:00,
2013-02-09 02:18:00,57.6,39.1,30.08,NNW,342,0.0,0.0,50,0.00,,---,0.00,VWS V14.01,2013-02-09 07:18:00,
2013-02-09 02:19:00,57.6,39.1,30.08,NNW,342,0.0,0.0,50,0.00,,---,0.00,VWS V14.01,2013-02-09 07:19:00,
2013-02-09 02:20:00,57.6,39.1,30.08,NNW,342,0.0,0.0,50,0.00,,---,0.00,VWS V14.01,2013-02-09 07:20:00,
2013-02-09 02:21:00,57.6,39.1,30.08,NNW,342,0.0,0.0,50,0.00,,---,0.00,VWS V14.01,2013-02-09 07:21:00,
2013-02-09 02:22:00,57.6,39.1,30.08,NNW,342,0.0,0.0,50,0.00,,---,0.00,VWS V14.01,2013-02-09 07:22:00,
2013-02-09 02:23:00,57.6,39.6,30.08,NNW,342,0.0,0.0,51,0.00,,---,0.00,VWS V14.01,2013-02-09 07:23:00,
2013-02-09 02:24:00,57.6,39.6,30.08,NNW,342,0.0,0.0,51,0.00,,---,0.00,VWS V14.01,2013-02-09 07:24:00,
2013-02-09 02:25:00,57.6,39.6,30.08,NNW,342,0.0,0.0,51,0.00,,---,0.00,VWS V14.01,2013-02-09 07:25:00,
2013-02-09 02:26:00,57.6,39.6,30.08,NNW,342,0.0,0.0,51,0.00,,---,0.00,VWS V14.01,2013-02-09 07:26:00,
2013-02-09 02:27:00,57.6,39.6,30.08,NNW,342,0.0,0.0,51,0.00,,---,0.00,VWS V14.01,2013-02-09 07:27:00,
2013-02-09 02:28:00,57.6,39.6,30.08,NNW,342,0.0,0.0,51,0.00,,---,0.00,VWS V14.01,2013-02-09 07:28:00,
2013-02-09 02:29:00,57.6,39.6,30.08,NNW,342,0.0,0.0,51,0.00,,---,0.00,VWS V14.01,2013-02-09 07:29:00,
2013-02-09 02:30:00,57.6,39.6,30.08,NNW,342,0.0,0.0,51,0.00,,---,0.00,VWS V14.01,2013-02-09 07:30:00,
2013-02-09 02:31:00,57.6,39.6,30.08,NNW,342,0.0,0.0,51,0.00,,---,0.00,VWS V14.01,2013-02-09 07:31:00,
2013-02-09 02:32:00,57.6,39.6,30.08,NNW,342,0.0,0.0,51,0.00,,---,0.00,VWS V14.01,2013-02-09 07:32:00,
2013-02-09 02:33:00,57.6,39.6,30.08,NNW,342,0.0,0.0,51,0.00,,---,0.00,VWS V14.01,2013-02-09 07:33:00,
2013-02-09 02:34:00,57.6,39.6,30.08,NNW,342,0.0,0.0,51,0.00,,---,0.00,VWS V14.01,2013-02-09 07:34:00,
2013-02-09 02:35:00,57.6,39.6,30.08,NNW,342,0.0,0.0,51,0.00,,---,0.00,VWS V14.01,2013-02-09 07:35:00,
2013-02-09 02:36:00,57.6,39.6,30.08,NNW,342,0.0,0.0,51,0.00,,---,0.00,VWS V14.01,2013-02-09 07:36:00,
2013-02-09 02:37:00,57.4,39.4,30.08,NNW,342,0.0,0.0,51,0.00,,---,0.00,VWS V14.01,2013-02-09 07:37:00,
2013-02-09 02:38:00,57.4,39.4,30.08,NNW,342,0.0,0.0,51,0.00,,---,0.00,VWS V14.01,2013-02-09 07:38:00,
2013-02-09 02:39:00,57.4,39.4,30.08,NNW,342,0.0,0.0,51,0.00,,---,0.00,VWS V14.01,2013-02-09 07:39:00,
2013-02-09 02:40:00,57.4,39.4,30.08,NNW,342,0.0,0.0,51,0.00,,---,0.00,VWS V14.01,2013-02-09 07:40:00,
2013-02-09 02:41:00,57.4,39.4,30.08,NNW,342,0.0,0.0,51,0.00,,---,0.00,VWS V14.01,2013-02-09 07:41:00,
2013-02-09 02:42:00,57.4,39.9,30.08,NNW,342,0.0,0.0,52,0.00,,---,0.00,VWS V14.01,2013-02-09 07:42:00,
2013-02-09 02:43:00,57.4,39.9,30.08,NNW,342,0.0,0.0,52,0.00,,---,0.00,VWS V14.01,2013-02-09 07:43:00,
2013-02-09 02:44:00,57.4,39.9,30.08,NNW,342,0.0,0.0,52,0.00,,---,0.00,VWS V14.01,2013-02-09 07:44:00,
2013-02-09 02:45:00,57.4,39.9,30.08,NNW,342,0.0,0.0,52,0.00,,---,0.00,VWS V14.01,2013-02-09 07:45:00,
2013-02-09 02:46:00,57.4,39.9,30.08,NNW,342,0.0,0.0,52,0.00,,---,0.00,VWS V14.01,2013-02-09 07:46:00,
2013-02-09 02:47:00,57.4,40.4,30.08,NNW,342,0.0,0.0,53,0.00,,---,0.00,VWS V14.01,2013-02-09 07:47:00,
2013-02-09 02:48:00,57.4,40.4,30.08,NNW,342,0.0,0.0,53,0.00,,---,0.00,VWS V14.01,2013-02-09 07:48:00,
2013-02-09 02:49:00,57.4,40.4,30.08,NNW,342,0.0,0.0,53,0.00,,---,0.00,VWS V14.01,2013-02-09 07:49:00,
2013-02-09 02:50:00,57.6,40.6,30.08,NNW,342,0.0,0.0,53,0.00,,---,0.00,VWS V14.01,2013-02-09 07:50:00,
2013-02-09 02:51:00,57.4,40.4,30.08,NNW,342,0.0,0.0,53,0.00,,---,0.00,VWS V14.01,2013-02-09 07:51:00,
2013-02-09 02:52:00,57.6,41.1,30.08,NNW,342,0.0,0.0,54,0.00,,---,0.00,VWS V14.01,2013-02-09 07:52:00,
2013-02-09 02:53:00,57.6,41.1,30.08,NNW,342,0.0,0.0,54,0.00,,---,0.00,VWS V14.01,2013-02-09 07:53:00,
2013-02-09 02:54:00,57.6,41.1,30.08,NNW,342,0.0,0.0,54,0.00,,---,0.00,VWS V14.01,2013-02-09 07:54:00,
2013-02-09 02:55:00,57.6,41.1,30.08,NNW,342,0.0,0.0,54,0.00,,---,0.00,VWS V14.01,2013-02-09 07:55:00,
2013-02-09 02:56:00,57.6,41.5,30.08,NNW,342,0.0,0.0,55,0.00,,---,0.00,VWS V14.01,2013-02-09 07:56:00,
2013-02-09 02:57:00,57.7,41.7,30.08,NNW,342,0.0,0.0,55,0.00,,---,0.00,VWS V14.01,2013-02-09 07:57:00,
2013-02-09 02:58:00,57.7,41.7,30.08,NNW,342,0.0,0.0,55,0.00,,---,0.00,VWS V14.01,2013-02-09 07:58:00,
2013-02-09 02:59:00,57.7,41.7,30.08,NNW,342,0.0,0.0,55,0.00,,---,0.00,VWS V14.01,2013-02-09 07:59:00,
2013-02-09 03:00:00,57.7,42.2,30.08,NNW,342,0.0,0.0,56,0.00,,---,0.00,VWS V14.01,2013-02-09 08:00:00,
2013-02-09 03:01:00,57.7,42.2,30.08,NNW,342,0.0,0.0,56,0.00,,---,0.00,VWS V14.01,2013-02-09 08:01:00,
2013-02-09 03:02:00,57.9,42.8,30.08,NNW,342,0.0,0.0,57,0.00,,---,0.00,VWS V14.01,2013-02-09 08:02:00,
2013-02-09 03:03:00,57.9,42.8,30.08,NNW,342,0.0,0.0,57,0.00,,---,0.00,VWS V14.01,2013-02-09 08:03:00,
2013-02-09 03:04:00,57.9,43.2,30.08,NNW,342,0.0,0.0,58,0.00,,---,0.00,VWS V14.01,2013-02-09 08:04:00,
2013-02-09 03:05:00,57.9,43.2,30.08,NNW,342,0.0,0.0,58,0.00,,---,0.00,VWS V14.01,2013-02-09 08:05:00,
2013-02-09 03:06:00,57.9,43.2,30.08,NNW,342,0.0,0.0,58,0.00,,---,0.00,VWS V14.01,2013-02-09 08:06:00,
2013-02-09 03:07:00,57.9,43.2,30.08,NNW,342,0.0,0.0,58,0.00,,---,0.00,VWS V14.01,2013-02-09 08:07:00,
2013-02-09 03:08:00,57.9,43.2,30.08,NNW,342,0.0,0.0,58,0.00,,---,0.00,VWS V14.01,2013-02-09 08:08:00,
2013-02-09 03:09:00,57.9,43.7,30.08,NNW,342,0.0,0.0,59,0.00,,---,0.00,VWS V14.01,2013-02-09 08:09:00,
2013-02-09 03:10:00,57.9,43.7,30.08,NNW,342,0.0,0.0,59,0.00,,---,0.00,VWS V14.01,2013-02-09 08:10:00,
2013-02-09 03:11:00,57.9,43.7,30.08,NNW,342,0.0,0.0,59,0.00,,---,0.00,VWS V14.01,2013-02-09 08:11:00,
2013-02-09 03:12:00,57.9,43.7,30.08,NNW,342,0.0,0.0,59,0.00,,---,0.00,VWS V14.01,2013-02-09 08:12:00,
2013-02-09 03:13:00,58.1,43.9,30.08,NNW,342,0.0,0.0,59,0.00,,---,0.00,VWS V14.01,2013-02-09 08:13:00,
2013-02-09 03:14:00,58.1,43.9,30.08,NNW,342,0.0,0.0,59,0.00,,---,0.00,VWS V14.01,2013-02-09 08:14:00,
2013-02-09 03:15:00,58.1,43.9,30.08,NNW,342,0.0,0.0,59,0.00,,---,0.00,VWS V14.01,2013-02-09 08:15:00,
2013-02-09 03:16:00,58.1,44.3,30.08,NNW,342,0.0,0.0,60,0.00,,---,0.00,VWS V14.01,2013-02-09 08:16:00,
2013-02-09 03:17:00,58.1,44.3,30.08,NNW,342,0.0,0.0,60,0.00,,---,0.00,VWS V14.01,2013-02-09 08:17:00,
2013-02-09 03:18:00,58.1,44.3,30.08,NNW,342,0.0,0.0,60,0.00,,---,0.00,VWS V14.01,2013-02-09 08:18:00,
2013-02-09 03:19:00,58.1,44.3,30.08,NNW,342,0.0,0.0,60,0.00,,---,0.00,VWS V14.01,2013-02-09 08:19:00,
2013-02-09 03:20:00,58.3,44.5,30.08,NNW,342,0.0,0.0,60,0.00,,---,0.00,VWS V14.01,2013-02-09 08:20:00,
2013-02-09 03:21:00,58.3,44.5,30.08,NNW,342,0.0,0.0,60,0.00,,---,0.00,VWS V14.01,2013-02-09 08:21:00,
2013-02-09 03:22:00,58.3,44.5,30.08,NNW,342,0.0,0.0,60,0.00,,---,0.00,VWS V14.01,2013-02-09 08:22:00,
2013-02-09 03:23:00,58.3,44.5,30.08,NNW,342,0.0,0.0,60,0.00,,---,0.00,VWS V14.01,2013-02-09 08:23:00,
2013-02-09 03:24:00,58.3,44.5,30.08,NNW,342,0.0,0.0,60,0.00,,---,0.00,VWS V14.01,2013-02-09 08:24:00,
2013-02-09 03:25:00,58.3,44.5,30.08,NNW,342,0.0,0.0,60,0.00,,---,0.00,VWS V14.01,2013-02-09 08:25:00,
2013-02-09 03:26:00,58.3,44.5,30.08,NNW,342,0.0,0.0,60,0.00,,---,0.00,VWS V14.01,2013-02-09 08:26:00,
2013-02-09 03:27:00,58.5,44.6,30.08,NNW,342,0.0,0.0,60,0.00,,---,0.00,VWS V14.01,2013-02-09 08:27:00,
2013-02-09 03:28:00,58.5,44.6,30.08,NNW,342,0.0,0.0,60,0.00,,---,0.00,VWS V14.01,2013-02-09 08:28:00,
2013-02-09 03:29:00,58.5,44.6,30.08,NNW,342,0.0,0.0,60,0.00,,---,0.00,VWS V14.01,2013-02-09 08:29:00,
2013-02-09 03:30:00,58.5,44.6,30.08,NNW,342,0.0,0.0,60,0.00,,---,0.00,VWS V14.01,2013-02-09 08:30:00,
2013-02-09 03:31:00,58.5,44.6,30.08,NNW,342,0.0,0.0,60,0.00,,---,0.00,VWS V14.01,2013-02-09 08:31:00,
2013-02-09 03:32:00,58.5,44.6,30.08,NNW,342,0.0,0.0,60,0.00,,---,0.00,VWS V14.01,2013-02-09 08:32:00,
2013-02-09 03:33:00,58.5,44.6,30.08,NNW,342,0.0,0.0,60,0.00,,---,0.00,VWS V14.01,2013-02-09 08:33:00,
2013-02-09 03:34:00,58.5,44.6,30.08,NNW,342,0.0,0.0,60,0.00,,---,0.00,VWS V14.01,2013-02-09 08:34:00,
2013-02-09 03:35:00,58.5,44.6,30.08,NNW,342,0.0,0.0,60,0.00,,---,0.00,VWS V14.01,2013-02-09 08:35:00,
2013-02-09 03:36:00,58.5,44.6,30.08,NNW,342,0.0,0.0,60,0.00,,---,0.00,VWS V14.01,2013-02-09 08:36:00,
2013-02-09 03:37:00,58.5,45.1,30.08,NNW,342,0.0,0.0,61,0.00,,---,0.00,VWS V14.01,2013-02-09 08:37:00,
2013-02-09 03:38:00,58.5,45.1,30.08,NNW,342,0.0,0.0,61,0.00,,---,0.00,VWS V14.01,2013-02-09 08:38:00,
2013-02-09 03:39:00,58.5,45.1,30.08,NNW,342,0.0,0.0,61,0.00,,---,0.00,VWS V14.01,2013-02-09 08:39:00,
2013-02-09 03:40:00,58.5,45.1,30.08,NNW,342,0.0,0.0,61,0.00,,---,0.00,VWS V14.01,2013-02-09 08:40:00,
2013-02-09 03:41:00,58.5,45.1,30.08,NNW,342,0.0,0.0,61,0.00,,---,0.00,VWS V14.01,2013-02-09 08:41:00,
2013-02-09 03:42:00,58.5,45.1,30.08,NNW,342,0.0,0.0,61,0.00,,---,0.00,VWS V14.01,2013-02-09 08:42:00,
2013-02-09 03:43:00,58.5,45.5,30.08,NNW,342,0.0,0.0,62,0.00,,---,0.00,VWS V14.01,2013-02-09 08:43:00,
2013-02-09 03:44:00,58.5,45.5,30.08,NNW,342,0.0,0.0,62,0.00,,---,0.00,VWS V14.01,2013-02-09 08:44:00,
2013-02-09 03:45:00,58.5,45.5,30.08,NNW,342,0.0,0.0,62,0.00,,---,0.00,VWS V14.01,2013-02-09 08:45:00,
2013-02-09 03:46:00,58.5,45.5,30.08,NNW,342,0.0,0.0,62,0.00,,---,0.00,VWS V14.01,2013-02-09 08:46:00,
2013-02-09 03:47:00,58.5,45.5,30.08,NNW,342,0.0,0.0,62,0.00,,---,0.00,VWS V14.01,2013-02-09 08:47:00,
2013-02-09 03:48:00,58.5,45.5,30.08,NNW,342,0.0,0.0,62,0.00,,---,0.00,VWS V14.01,2013-02-09 08:48:00,
2013-02-09 03:49:00,58.5,45.5,30.08,NNW,342,0.0,0.0,62,0.00,,---,0.00,VWS V14.01,2013-02-09 08:49:00,
2013-02-09 03:50:00,58.5,45.5,30.08,NNW,342,0.0,0.0,62,0.00,,---,0.00,VWS V14.01,2013-02-09 08:50:00,
2013-02-09 03:51:00,58.5,45.5,30.08,NNW,342,0.0,0.0,62,0.00,,---,0.00,VWS V14.01,2013-02-09 08:51:00,
2013-02-09 03:52:00,58.5,45.5,30.08,NNW,342,0.0,0.0,62,0.00,,---,0.00,VWS V14.01,2013-02-09 08:52:00,
2013-02-09 03:53:00,58.5,45.5,30.08,NNW,342,0.0,0.0,62,0.00,,---,0.00,VWS V14.01,2013-02-09 08:53:00,
2013-02-09 03:54:00,58.3,45.3,30.08,NNW,342,0.0,0.0,62,0.00,,---,0.00,VWS V14.01,2013-02-09 08:54:00,
2013-02-09 03:55:00,58.3,45.3,30.08,NNW,342,0.0,0.0,62,0.00,,---,0.00,VWS V14.01,2013-02-09 08:55:00,
2013-02-09 03:56:00,58.3,45.3,30.08,NNW,342,0.0,0.0,62,0.00,,---,0.00,VWS V14.01,2013-02-09 08:56:00,
2013-02-09 03:57:00,58.3,45.3,30.08,NNW,343,0.0,0.0,62,0.00,,---,0.00,VWS V14.01,2013-02-09 08:57:00,
2013-02-09 03:58:00,58.3,45.3,30.08,NNW,342,0.0,0.0,62,0.00,,---,0.00,VWS V14.01,2013-02-09 08:58:00,
2013-02-09 03:59:00,58.3,45.3,30.08,NNW,342,0.0,0.0,62,0.00,,---,0.00,VWS V14.01,2013-02-09 08:59:00,
2013-02-09 04:00:00,58.3,45.3,30.08,NNW,343,0.0,0.0,62,0.00,,---,0.00,VWS V14.01,2013-02-09 09:00:00,
2013-02-09 04:01:00,58.3,45.8,30.08,NNW,342,0.0,0.0,63,0.00,,---,0.00,VWS V14.01,2013-02-09 09:01:00,
2013-02-09 04:02:00,58.3,45.8,30.08,NNW,342,0.0,0.0,63,0.00,,---,0.00,VWS V14.01,2013-02-09 09:02:00,
2013-02-09 04:03:00,58.3,45.8,30.08,NNW,342,0.0,0.0,63,0.00,,---,0.00,VWS V14.01,2013-02-09 09:03:00,
2013-02-09 04:04:00,58.3,45.8,30.08,NNW,342,0.0,0.0,63,0.00,,---,0.00,VWS V14.01,2013-02-09 09:04:00,
2013-02-09 04:05:00,58.3,45.8,30.08,NNW,342,0.0,0.0,63,0.00,,---,0.00,VWS V14.01,2013-02-09 09:05:00,
2013-02-09 04:06:00,58.3,45.8,30.08,NNW,342,0.0,0.0,63,0.00,,---,0.00,VWS V14.01,2013-02-09 09:06:00,
2013-02-09 04:07:00,58.3,45.8,30.08,NNW,342,0.0,0.0,63,0.00,,---,0.00,VWS V14.01,2013-02-09 09:07:00,
2013-02-09 04:08:00,58.3,45.8,30.08,NNW,342,0.0,0.0,63,0.00,,---,0.00,VWS V14.01,2013-02-09 09:08:00,
2013-02-09 04:09:00,58.3,45.8,30.08,NNW,342,0.0,0.0,63,0.00,,---,0.00,VWS V14.01,2013-02-09 09:09:00,
2013-02-09 04:10:00,58.3,45.8,30.08,NNW,342,0.0,0.0,63,0.00,,---,0.00,VWS V14.01,2013-02-09 09:10:00,
2013-02-09 04:11:00,58.3,45.8,30.08,NNW,342,0.0,0.0,63,0.00,,---,0.00,VWS V14.01,2013-02-09 09:11:00,
2013-02-09 04:12:00,58.3,45.8,30.08,NNW,342,0.0,0.0,63,0.00,,---,0.00,VWS V14.01,2013-02-09 09:12:00,
2013-02-09 04:13:00,58.3,45.8,30.08,NNW,342,0.0,0.0,63,0.00,,---,0.00,VWS V14.01,2013-02-09 09:13:00,
2013-02-09 04:14:00,58.3,45.3,30.08,NNW,342,0.0,0.0,62,0.00,,---,0.00,VWS V14.01,2013-02-09 09:14:00,
2013-02-09 04:15:00,58.3,45.3,30.08,NNW,342,0.0,0.0,62,0.00,,---,0.00,VWS V14.01,2013-02-09 09:15:00,
2013-02-09 04:16:00,58.1,45.2,30.08,NNW,342,0.0,0.0,62,0.00,,---,0.00,VWS V14.01,2013-02-09 09:16:00,
2013-02-09 04:17:00,58.1,45.2,30.08,NNW,342,0.0,0.0,62,0.00,,---,0.00,VWS V14.01,2013-02-09 09:17:00,
2013-02-09 04:18:00,58.1,45.2,30.08,NNW,342,0.0,0.0,62,0.00,,---,0.00,VWS V14.01,2013-02-09 09:18:00,
2013-02-09 04:19:00,58.1,45.2,30.08,NNW,342,0.0,0.0,62,0.00,,---,0.00,VWS V14.01,2013-02-09 09:19:00,
2013-02-09 04:20:00,58.1,45.2,30.08,NNW,342,0.0,0.0,62,0.00,,---,0.00,VWS V14.01,2013-02-09 09:20:00,
2013-02-09 04:21:00,58.1,45.2,30.08,NNW,342,0.0,0.0,62,0.00,,---,0.00,VWS V14.01,2013-02-09 09:21:00,
2013-02-09 04:22:00,58.1,45.2,30.08,NNW,342,0.0,0.0,62,0.00,,---,0.00,VWS V14.01,2013-02-09 09:22:00,
2013-02-09 04:23:00,58.1,45.2,30.08,NNW,342,0.0,0.0,62,0.00,,---,0.00,VWS V14.01,2013-02-09 09:23:00,
2013-02-09 04:24:00,58.1,45.2,30.08,NNW,342,0.0,0.0,62,0.00,,---,0.00,VWS V14.01,2013-02-09 09:24:00,
2013-02-09 04:25:00,58.1,44.7,30.08,NNW,342,0.0,0.0,61,0.00,,---,0.00,VWS V14.01,2013-02-09 09:25:00,
2013-02-09 04:26:00,58.1,44.7,30.08,NNW,342,0.0,0.0,61,0.00,,---,0.00,VWS V14.01,2013-02-09 09:26:00,
2013-02-09 04:27:00,58.1,44.7,30.08,NNW,342,0.0,0.0,61,0.00,,---,0.00,VWS V14.01,2013-02-09 09:27:00,
2013-02-09 04:28:00,58.1,44.7,30.08,NNW,342,0.0,0.0,61,0.00,,---,0.00,VWS V14.01,2013-02-09 09:28:00,
2013-02-09 04:29:00,58.1,44.7,30.08,NNW,342,0.0,0.0,61,0.00,,---,0.00,VWS V14.01,2013-02-09 09:29:00,
2013-02-09 04:30:00,58.1,44.7,30.08,NNW,342,0.0,0.0,61,0.00,,---,0.00,VWS V14.01,2013-02-09 09:30:00,
2013-02-09 04:31:00,58.1,44.7,30.08,NNW,342,0.0,0.0,61,0.00,,---,0.00,VWS V14.01,2013-02-09 09:31:00,
2013-02-09 04:32:00,58.1,44.3,30.08,NNW,342,0.0,0.0,60,0.00,,---,0.00,VWS V14.01,2013-02-09 09:32:00,
2013-02-09 04:33:00,58.1,43.9,30.08,NNW,342,0.0,0.0,59,0.00,,---,0.00,VWS V14.01,2013-02-09 09:33:00,
2013-02-09 04:34:00,58.1,43.9,30.08,NNW,342,0.0,0.0,59,0.00,,---,0.00,VWS V14.01,2013-02-09 09:34:00,
2013-02-09 04:35:00,58.1,43.4,30.08,NNW,342,0.0,0.0,58,0.00,,---,0.00,VWS V14.01,2013-02-09 09:35:00,
2013-02-09 04:36:00,58.1,43.4,30.08,North,349,0.0,0.0,58,0.00,,---,0.00,VWS V14.01,2013-02-09 09:36:00,
2013-02-09 04:37:00,58.1,43.4,30.08,North,349,0.0,0.0,58,0.00,,---,0.00,VWS V14.01,2013-02-09 09:37:00,
2013-02-09 04:38:00,58.1,43.0,30.08,North,349,0.0,0.0,57,0.00,,---,0.00,VWS V14.01,2013-02-09 09:38:00,
2013-02-09 04:39:00,58.1,43.0,30.08,North,349,0.0,0.0,57,0.00,,---,0.00,VWS V14.01,2013-02-09 09:39:00,
2013-02-09 04:40:00,58.1,43.0,30.08,North,349,0.0,0.0,57,0.00,,---,0.00,VWS V14.01,2013-02-09 09:40:00,
2013-02-09 04:41:00,58.1,43.0,30.08,North,349,0.0,0.0,57,0.00,,---,0.00,VWS V14.01,2013-02-09 09:41:00,
2013-02-09 04:42:00,58.3,42.7,30.08,North,349,0.0,0.0,56,0.00,,---,0.00,VWS V14.01,2013-02-09 09:42:00,
2013-02-09 04:43:00,58.3,42.7,30.08,North,349,0.0,0.0,56,0.00,,---,0.00,VWS V14.01,2013-02-09 09:43:00,
2013-02-09 04:44:00,58.3,42.2,30.08,North,349,0.0,0.0,55,0.00,,---,0.00,VWS V14.01,2013-02-09 09:44:00,
2013-02-09 04:45:00,58.1,41.6,30.08,North,349,0.0,0.0,54,0.00,,---,0.00,VWS V14.01,2013-02-09 09:45:00,
2013-02-09 04:46:00,58.1,41.1,30.08,North,349,0.0,0.0,53,0.00,,---,0.00,VWS V14.01,2013-02-09 09:46:00,
2013-02-09 04:47:00,58.1,40.6,30.08,NNW,343,0.0,0.0,52,0.00,,---,0.00,VWS V14.01,2013-02-09 09:47:00,
2013-02-09 04:48:00,58.3,40.2,30.08,NNW,343,0.0,0.0,51,0.00,,---,0.00,VWS V14.01,2013-02-09 09:48:00,
2013-02-09 04:49:00,58.3,40.2,30.08,NNW,344,0.0,0.0,51,0.00,,---,0.00,VWS V14.01,2013-02-09 09:49:00,
2013-02-09 04:50:00,58.3,39.7,30.08,NNW,344,0.0,0.0,50,0.00,,---,0.00,VWS V14.01,2013-02-09 09:50:00,
2013-02-09 04:51:00,58.3,39.7,30.08,NNW,344,0.0,0.0,50,0.00,,---,0.00,VWS V14.01,2013-02-09 09:51:00,
2013-02-09 04:52:00,58.3,39.7,30.08,NNW,344,0.0,0.0,50,0.00,,---,0.00,VWS V14.01,2013-02-09 09:52:00,
2013-02-09 04:53:00,58.3,39.2,30.11,NNW,344,0.0,0.0,49,0.00,,---,0.00,VWS V14.01,2013-02-09 09:53:00,
2013-02-09 04:54:00,58.3,39.2,30.11,NNW,344,0.0,0.0,49,0.00,,---,0.00,VWS V14.01,2013-02-09 09:54:00,
2013-02-09 04:55:00,58.3,39.2,30.11,NNW,344,0.0,0.0,49,0.00,,---,0.00,VWS V14.01,2013-02-09 09:55:00,
2013-02-09 04:56:00,58.5,38.9,30.11,NNW,344,0.0,0.0,48,0.00,,---,0.00,VWS V14.01,2013-02-09 09:56:00,
2013-02-09 04:57:00,58.3,38.7,30.11,NNW,344,0.0,0.0,48,0.00,,---,0.00,VWS V14.01,2013-02-09 09:57:00,
2013-02-09 04:58:00,58.3,38.7,30.11,NNW,344,0.0,0.0,48,0.00,,---,0.00,VWS V14.01,2013-02-09 09:58:00,
2013-02-09 04:59:00,58.3,38.2,30.11,North,3,0.0,0.0,47,0.00,,---,0.00,VWS V14.01,2013-02-09 09:59:00,
2013-02-09 05:00:00,58.3,38.2,30.11,North,3,0.0,0.0,47,0.00,,---,0.00,VWS V14.01,2013-02-09 10:00:00,
2013-02-09 05:01:00,58.5,38.3,30.11,North,3,0.0,0.0,47,0.00,,---,0.00,VWS V14.01,2013-02-09 10:01:00,
2013-02-09 05:02:00,58.5,37.8,30.11,North,3,0.0,0.0,46,0.00,,---,0.00,VWS V14.01,2013-02-09 10:02:00,
2013-02-09 05:03:00,58.5,37.8,30.11,North,3,0.0,0.0,46,0.00,,---,0.00,VWS V14.01,2013-02-09 10:03:00,
2013-02-09 05:04:00,58.5,37.8,30.11,North,3,0.0,0.0,46,0.00,,---,0.00,VWS V14.01,2013-02-09 10:04:00,
2013-02-09 05:05:00,58.5,37.8,30.11,North,3,0.0,0.0,46,0.00,,---,0.00,VWS V14.01,2013-02-09 10:05:00,
2013-02-09 05:06:00,58.5,37.8,30.11,North,3,0.0,0.0,46,0.00,,---,0.00,VWS V14.01,2013-02-09 10:06:00,
2013-02-09 05:07:00,58.5,37.2,30.11,North,3,0.0,0.0,45,0.00,,---,0.00,VWS V14.01,2013-02-09 10:07:00,
2013-02-09 05:08:00,58.5,37.2,30.11,North,3,0.0,0.0,45,0.00,,---,0.00,VWS V14.01,2013-02-09 10:08:00,
2013-02-09 05:09:00,58.5,37.2,30.11,North,3,0.0,0.0,45,0.00,,---,0.00,VWS V14.01,2013-02-09 10:09:00,
2013-02-09 05:10:00,58.5,37.2,30.11,North,3,0.0,0.0,45,0.00,,---,0.00,VWS V14.01,2013-02-09 10:10:00,
2013-02-09 05:11:00,58.5,37.2,30.11,North,3,0.0,0.0,45,0.00,,---,0.00,VWS V14.01,2013-02-09 10:11:00,
2013-02-09 05:12:00,58.5,37.2,30.11,North,3,0.0,0.0,45,0.00,,---,0.00,VWS V14.01,2013-02-09 10:12:00,
2013-02-09 05:13:00,58.5,37.2,30.11,NNW,335,0.0,0.0,45,0.00,,---,0.00,VWS V14.01,2013-02-09 10:13:00,
2013-02-09 05:14:00,58.5,37.2,30.11,NNW,335,0.0,0.0,45,0.00,,---,0.00,VWS V14.01,2013-02-09 10:14:00,
2013-02-09 05:15:00,58.5,37.2,30.11,NNW,335,0.0,0.0,45,0.00,,---,0.00,VWS V14.01,2013-02-09 10:15:00,
2013-02-09 05:16:00,58.3,36.5,30.11,NNE,27,0.0,0.0,44,0.00,,---,0.00,VWS V14.01,2013-02-09 10:16:00,
2013-02-09 05:17:00,58.5,36.7,30.11,North,0,4.0,4.0,44,0.00,,---,0.00,VWS V14.01,2013-02-09 10:17:00,
2013-02-09 05:18:00,58.5,36.7,30.11,North,0,0.0,4.0,44,0.00,,---,0.00,VWS V14.01,2013-02-09 10:18:00,
2013-02-09 05:19:00,58.5,36.7,30.11,North,0,0.0,0.0,44,0.00,,---,0.00,VWS V14.01,2013-02-09 10:19:00,
2013-02-09 05:20:00,58.3,35.9,30.11,NNE,17,0.0,0.0,43,0.00,,---,0.00,VWS V14.01,2013-02-09 10:20:00,
2013-02-09 05:21:00,58.5,36.1,30.11,NNE,17,0.0,0.0,43,0.00,,---,0.00,VWS V14.01,2013-02-09 10:21:00,
2013-02-09 05:22:00,58.3,35.9,30.11,NNE,17,0.0,0.0,43,0.00,,---,0.00,VWS V14.01,2013-02-09 10:22:00,
2013-02-09 05:23:00,58.3,35.9,30.11,North,0,2.2,2.7,43,0.00,,---,0.00,VWS V14.01,2013-02-09 10:23:00,
2013-02-09 05:24:00,58.3,35.3,30.11,NNE,25,0.0,3.6,42,0.00,,---,0.00,VWS V14.01,2013-02-09 10:24:00,
2013-02-09 05:25:00,58.3,35.3,30.11,NNE,21,0.0,0.0,42,0.00,,---,0.00,VWS V14.01,2013-02-09 10:25:00,
2013-02-09 05:26:00,58.3,34.7,30.11,NNE,19,0.0,0.0,41,0.00,,---,0.00,VWS V14.01,2013-02-09 10:26:00,
2013-02-09 05:27:00,58.3,34.7,30.11,North,353,2.7,2.7,41,0.00,,---,0.00,VWS V14.01,2013-02-09 10:27:00,
2013-02-09 05:28:00,58.3,34.7,30.11,North,353,0.0,2.7,41,0.00,,---,0.00,VWS V14.01,2013-02-09 10:28:00,
2013-02-09 05:29:00,58.5,34.9,30.11,NNW,332,3.1,3.1,41,0.00,,---,0.00,VWS V14.01,2013-02-09 10:29:00,
2013-02-09 05:30:00,58.5,34.9,30.11,NNW,338,0.0,3.1,41,0.00,,---,0.00,VWS V14.01,2013-02-09 10:30:00,
2013-02-09 05:31:00,58.5,34.9,30.11,NNW,338,0.0,0.0,41,0.00,,---,0.00,VWS V14.01,2013-02-09 10:31:00,
2013-02-09 05:32:00,58.5,34.9,30.11,NNW,338,0.0,0.0,41,0.00,,---,0.00,VWS V14.01,2013-02-09 10:32:00,
2013-02-09 05:33:00,58.5,34.9,30.11,NNW,338,0.0,0.0,41,0.00,,---,0.00,VWS V14.01,2013-02-09 10:33:00,
2013-02-09 05:34:00,58.3,34.1,30.11,NE,35,0.0,0.0,40,0.00,,---,0.00,VWS V14.01,2013-02-09 10:34:00,
2013-02-09 05:35:00,58.3,34.1,30.11,NNE,27,0.0,0.0,40,0.00,,---,0.00,VWS V14.01,2013-02-09 10:35:00,
2013-02-09 05:36:00,58.3,34.1,30.11,North,349,0.0,3.1,40,0.00,,---,0.00,VWS V14.01,2013-02-09 10:36:00,
2013-02-09 05:37:00,58.3,34.1,30.11,NNE,18,2.2,2.2,40,0.00,,---,0.00,VWS V14.01,2013-02-09 10:37:00,
2013-02-09 05:38:00,58.3,34.1,30.11,North,357,2.7,5.4,40,0.00,,---,0.00,VWS V14.01,2013-02-09 10:38:00,
2013-02-09 05:39:00,58.3,34.1,30.11,NNW,330,3.1,3.1,40,0.00,,---,0.00,VWS V14.01,2013-02-09 10:39:00,
2013-02-09 05:40:00,58.3,34.1,30.11,NNW,338,0.0,3.1,40,0.00,,---,0.00,VWS V14.01,2013-02-09 10:40:00,
2013-02-09 05:41:00,58.3,34.1,30.11,NNW,338,0.0,0.0,40,0.00,,---,0.00,VWS V14.01,2013-02-09 10:41:00,
2013-02-09 05:42:00,58.3,34.1,30.11,NNW,338,0.0,0.0,40,0.00,,---,0.00,VWS V14.01,2013-02-09 10:42:00,
2013-02-09 05:43:00,58.3,34.1,30.11,NNW,338,0.0,0.0,40,0.00,,---,0.00,VWS V14.01,2013-02-09 10:43:00,
2013-02-09 05:44:00,58.3,34.1,30.11,North,9,3.6,3.6,40,0.00,,---,0.00,VWS V14.01,2013-02-09 10:44:00,
2013-02-09 05:45:00,58.3,34.1,30.11,North,5,0.0,3.6,40,0.00,,---,0.00,VWS V14.01,2013-02-09 10:45:00,
2013-02-09 05:46:00,58.3,34.1,30.11,North,5,0.0,0.0,40,0.00,,---,0.00,VWS V14.01,2013-02-09 10:46:00,
2013-02-09 05:47:00,58.3,34.1,30.11,North,5,0.0,0.0,40,0.00,,---,0.00,VWS V14.01,2013-02-09 10:47:00,
2013-02-09 05:48:00,58.3,34.1,30.11,North,5,0.0,0.0,40,0.00,,---,0.00,VWS V14.01,2013-02-09 10:48:00,
2013-02-09 05:49:00,58.3,33.5,30.11,North,6,0.0,0.0,39,0.00,,---,0.00,VWS V14.01,2013-02-09 10:49:00,
2013-02-09 05:50:00,58.1,33.3,30.11,North,5,3.6,3.6,39,0.00,,---,0.00,VWS V14.01,2013-02-09 10:50:00,
2013-02-09 05:51:00,58.1,33.3,30.11,North,7,0.0,3.6,39,0.00,,---,0.00,VWS V14.01,2013-02-09 10:51:00,
2013-02-09 05:52:00,58.1,33.3,30.11,North,7,0.0,0.0,39,0.00,,---,0.00,VWS V14.01,2013-02-09 10:52:00,
2013-02-09 05:53:00,58.1,33.3,30.11,North,7,0.0,0.0,39,0.00,,---,0.00,VWS V14.01,2013-02-09 10:53:00,
2013-02-09 05:54:00,58.1,33.3,30.11,North,7,0.0,0.0,39,0.00,,---,0.00,VWS V14.01,2013-02-09 10:54:00,
2013-02-09 05:55:00,58.1,33.3,30.11,NNW,345,2.7,3.1,39,0.00,,---,0.00,VWS V14.01,2013-02-09 10:55:00,
2013-02-09 05:56:00,58.1,33.3,30.11,North,3,0.0,2.7,39,0.00,,---,0.00,VWS V14.01,2013-02-09 10:56:00,
2013-02-09 05:57:00,58.1,33.3,30.11,North,3,0.0,0.0,39,0.00,,---,0.00,VWS V14.01,2013-02-09 10:57:00,
2013-02-09 05:58:00,58.1,33.3,30.11,North,4,0.0,0.0,39,0.00,,---,0.00,VWS V14.01,2013-02-09 10:58:00,
2013-02-09 05:59:00,58.1,33.9,30.11,NNW,340,0.0,0.0,40,0.00,,---,0.00,VWS V14.01,2013-02-09 10:59:00,
2013-02-09 06:00:00,58.1,33.9,30.11,North,0,0.0,0.0,40,0.00,,---,0.00,VWS V14.01,2013-02-09 11:00:00,
2013-02-09 06:01:00,58.1,33.9,30.11,North,0,0.0,0.0,40,0.00,,---,0.00,VWS V14.01,2013-02-09 11:01:00,
2013-02-09 06:02:00,58.1,33.9,30.11,NNW,334,0.0,2.7,40,0.00,,---,0.00,VWS V14.01,2013-02-09 11:02:00,
2013-02-09 06:03:00,58.1,33.9,30.11,North,7,0.0,2.7,40,0.00,,---,0.00,VWS V14.01,2013-02-09 11:03:00,
2013-02-09 06:04:00,57.9,33.8,30.11,North,7,0.0,0.0,40,0.00,,---,0.00,VWS V14.01,2013-02-09 11:04:00,
2013-02-09 06:05:00,57.9,33.8,30.11,NNW,329,0.0,0.0,40,0.00,,---,0.00,VWS V14.01,2013-02-09 11:05:00,
2013-02-09 06:06:00,57.9,33.8,30.11,NNW,330,0.0,0.0,40,0.00,,---,0.00,VWS V14.01,2013-02-09 11:06:00,
2013-02-09 06:07:00,57.9,33.8,30.11,NNW,330,0.0,0.0,40,0.00,,---,0.00,VWS V14.01,2013-02-09 11:07:00,
2013-02-09 06:08:00,57.9,33.8,30.11,NNW,330,0.0,0.0,40,0.00,,---,0.00,VWS V14.01,2013-02-09 11:08:00,
2013-02-09 06:09:00,57.9,33.8,30.11,NNW,330,0.0,0.0,40,0.00,,---,0.00,VWS V14.01,2013-02-09 11:09:00,
2013-02-09 06:10:00,57.9,33.8,30.11,NNW,330,0.0,0.0,40,0.00,,---,0.00,VWS V14.01,2013-02-09 11:10:00,
2013-02-09 06:11:00,57.9,33.8,30.11,NNW,330,0.0,0.0,40,0.00,,---,0.00,VWS V14.01,2013-02-09 11:11:00,
2013-02-09 06:12:00,57.9,33.8,30.11,North,10,0.0,0.0,40,0.00,,---,0.00,VWS V14.01,2013-02-09 11:12:00,
2013-02-09 06:13:00,57.9,33.8,30.11,North,10,0.0,0.0,40,0.00,,---,0.00,VWS V14.01,2013-02-09 11:13:00,
2013-02-09 06:14:00,57.9,34.4,30.11,North,0,0.0,0.0,41,0.00,,---,0.00,VWS V14.01,2013-02-09 11:14:00,
2013-02-09 06:15:00,57.9,34.4,30.11,North,0,0.0,0.0,41,0.00,,---,0.00,VWS V14.01,2013-02-09 11:15:00,
2013-02-09 06:16:00,57.9,34.4,30.11,North,0,0.0,0.0,41,0.00,,---,0.00,VWS V14.01,2013-02-09 11:16:00,
2013-02-09 06:17:00,57.9,34.4,30.11,North,0,0.0,0.0,41,0.00,,---,0.00,VWS V14.01,2013-02-09 11:17:00,
2013-02-09 06:18:00,57.9,34.4,30.11,North,0,0.0,0.0,41,0.00,,---,0.00,VWS V14.01,2013-02-09 11:18:00,
2013-02-09 06:19:00,57.9,34.4,30.11,North,0,0.0,0.0,41,0.00,,---,0.00,VWS V14.01,2013-02-09 11:19:00,
2013-02-09 06:20:00,57.7,34.2,30.11,North,0,0.0,0.0,41,0.00,,---,0.00,VWS V14.01,2013-02-09 11:20:00,
2013-02-09 06:21:00,57.7,34.2,30.11,North,357,0.0,0.0,41,0.00,,---,0.00,VWS V14.01,2013-02-09 11:21:00,
2013-02-09 06:22:00,57.7,34.2,30.11,North,357,0.0,0.0,41,0.00,,---,0.00,VWS V14.01,2013-02-09 11:22:00,
2013-02-09 06:23:00,57.7,34.2,30.14,North,357,0.0,0.0,41,0.00,,---,0.00,VWS V14.01,2013-02-09 11:23:00,
2013-02-09 06:24:00,57.7,34.2,30.14,North,357,0.0,0.0,41,0.00,,---,0.00,VWS V14.01,2013-02-09 11:24:00,
2013-02-09 06:25:00,57.7,34.8,30.14,North,357,0.0,0.0,42,0.00,,---,0.00,VWS V14.01,2013-02-09 11:25:00,
2013-02-09 06:26:00,57.7,34.8,30.14,North,357,0.0,0.0,42,0.00,,---,0.00,VWS V14.01,2013-02-09 11:26:00,
2013-02-09 06:27:00,57.7,34.8,30.14,North,357,0.0,0.0,42,0.00,,---,0.00,VWS V14.01,2013-02-09 11:27:00,
2013-02-09 06:28:00,57.7,34.8,30.14,North,357,0.0,0.0,42,0.00,,---,0.00,VWS V14.01,2013-02-09 11:28:00,
2013-02-09 06:29:00,57.7,34.8,30.14,North,357,0.0,0.0,42,0.00,,---,0.00,VWS V14.01,2013-02-09 11:29:00,
2013-02-09 06:30:00,57.7,34.8,30.14,North,357,0.0,0.0,42,0.00,,---,0.00,VWS V14.01,2013-02-09 11:30:00,
2013-02-09 06:31:00,57.6,34.7,30.14,North,357,0.0,0.0,42,0.00,,---,0.00,VWS V14.01,2013-02-09 11:31:00,
2013-02-09 06:32:00,57.6,34.7,30.14,North,357,0.0,0.0,42,0.00,,---,0.00,VWS V14.01,2013-02-09 11:32:00,
2013-02-09 06:33:00,57.6,34.7,30.14,North,357,0.0,0.0,42,0.00,,---,0.00,VWS V14.01,2013-02-09 11:33:00,
2013-02-09 06:34:00,57.6,34.7,30.14,North,357,0.0,0.0,42,0.00,,---,0.00,VWS V14.01,2013-02-09 11:34:00,
2013-02-09 06:35:00,57.6,34.7,30.14,North,357,0.0,0.0,42,0.00,,---,0.00,VWS V14.01,2013-02-09 11:35:00,
2013-02-09 06:36:00,57.6,35.2,30.14,North,357,0.0,0.0,43,0.00,,---,0.00,VWS V14.01,2013-02-09 11:36:00,
2013-02-09 06:37:00,57.6,35.2,30.14,North,357,0.0,0.0,43,0.00,,---,0.00,VWS V14.01,2013-02-09 11:37:00,
2013-02-09 06:38:00,57.6,35.2,30.14,North,357,0.0,0.0,43,0.00,,---,0.00,VWS V14.01,2013-02-09 11:38:00,
2013-02-09 06:39:00,57.4,35.1,30.14,North,357,0.0,0.0,43,0.00,,---,0.00,VWS V14.01,2013-02-09 11:39:00,
2013-02-09 06:40:00,57.4,35.1,30.14,North,357,0.0,0.0,43,0.00,,---,0.00,VWS V14.01,2013-02-09 11:40:00,
2013-02-09 06:41:00,57.4,35.1,30.14,North,357,0.0,0.0,43,0.00,,---,0.00,VWS V14.01,2013-02-09 11:41:00,
2013-02-09 06:42:00,57.4,35.1,30.14,North,357,0.0,0.0,43,0.00,,---,0.00,VWS V14.01,2013-02-09 11:42:00,
2013-02-09 06:43:00,57.4,35.7,30.14,North,357,0.0,0.0,44,0.00,,---,0.00,VWS V14.01,2013-02-09 11:43:00,
2013-02-09 06:44:00,57.4,35.7,30.14,North,357,0.0,0.0,44,0.00,,---,0.00,VWS V14.01,2013-02-09 11:44:00,
2013-02-09 06:45:00,57.4,35.7,30.14,NNW,346,0.0,0.0,44,0.00,,---,0.00,VWS V14.01,2013-02-09 11:45:00,
2013-02-09 06:46:00,57.2,35.5,30.14,NNW,343,0.0,3.1,44,0.00,,---,0.00,VWS V14.01,2013-02-09 11:46:00,
2013-02-09 06:47:00,57.2,35.5,30.14,NNW,343,0.0,0.0,44,0.00,,---,0.00,VWS V14.01,2013-02-09 11:47:00,
2013-02-09 06:48:00,57.2,35.5,30.14,NNW,343,0.0,0.0,44,0.00,,---,0.00,VWS V14.01,2013-02-09 11:48:00,
2013-02-09 06:49:00,57.2,35.5,30.14,NNW,343,0.0,0.0,44,0.00,,---,0.00,VWS V14.01,2013-02-09 11:49:00,
2013-02-09 06:50:00,57.2,35.5,30.14,NNW,343,0.0,0.0,44,0.00,,---,0.00,VWS V14.01,2013-02-09 11:50:00,
2013-02-09 06:51:00,57.2,35.5,30.14,NNW,343,0.0,0.0,44,0.00,,---,0.00,VWS V14.01,2013-02-09 11:51:00,
2013-02-09 06:52:00,57.2,35.5,30.14,NNW,343,0.0,0.0,44,0.00,,---,0.00,VWS V14.01,2013-02-09 11:52:00,
2013-02-09 06:53:00,57.2,35.5,30.14,NNW,343,0.0,0.0,44,0.00,,---,0.00,VWS V14.01,2013-02-09 11:53:00,
2013-02-09 06:54:00,57.2,35.5,30.14,NNW,343,0.0,0.0,44,0.00,,---,0.00,VWS V14.01,2013-02-09 11:54:00,
2013-02-09 06:55:00,57.2,35.5,30.14,NNW,343,0.0,0.0,44,0.00,,---,0.00,VWS V14.01,2013-02-09 11:55:00,
2013-02-09 06:56:00,57.2,35.5,30.14,North,349,0.0,2.7,44,0.00,,---,0.00,VWS V14.01,2013-02-09 11:56:00,
2013-02-09 06:57:00,57.2,35.5,30.14,North,349,0.0,0.0,44,0.00,,---,0.00,VWS V14.01,2013-02-09 11:57:00,
2013-02-09 06:58:00,57.2,35.5,30.14,North,6,0.0,0.0,44,0.00,,---,0.00,VWS V14.01,2013-02-09 11:58:00,
2013-02-09 06:59:00,57.2,35.5,30.14,NNE,21,0.0,0.0,44,0.00,,---,0.00,VWS V14.01,2013-02-09 11:59:00,
2013-02-09 07:00:00,57.2,35.5,30.14,NNE,21,0.0,0.0,44,0.00,,---,0.00,VWS V14.01,2013-02-09 12:00:00,
2013-02-09 07:01:00,57.2,35.5,30.14,NNE,21,0.0,0.0,44,0.00,,---,0.00,VWS V14.01,2013-02-09 12:01:00,
2013-02-09 07:02:00,57.2,35.5,30.14,NNE,21,0.0,0.0,44,0.00,,---,0.00,VWS V14.01,2013-02-09 12:02:00,
2013-02-09 07:03:00,57.2,34.9,30.14,NNE,21,0.0,0.0,43,0.00,,---,0.00,VWS V14.01,2013-02-09 12:03:00,
2013-02-09 07:04:00,57.2,34.9,30.14,NNE,21,0.0,0.0,43,0.00,,---,0.00,VWS V14.01,2013-02-09 12:04:00,
2013-02-09 07:05:00,57.2,34.9,30.14,NNE,21,0.0,0.0,43,0.00,,---,0.00,VWS V14.01,2013-02-09 12:05:00,
2013-02-09 07:06:00,57.2,34.9,30.14,NNE,21,0.0,0.0,43,0.00,,---,0.00,VWS V14.01,2013-02-09 12:06:00,
2013-02-09 07:07:00,57.2,34.9,30.14,NNE,21,0.0,0.0,43,0.00,,---,0.00,VWS V14.01,2013-02-09 12:07:00,
2013-02-09 07:08:00,57.2,34.9,30.14,NNE,21,0.0,0.0,43,0.00,,---,0.00,VWS V14.01,2013-02-09 12:08:00,
2013-02-09 07:09:00,57.2,34.9,30.14,NNE,21,0.0,0.0,43,0.00,,---,0.00,VWS V14.01,2013-02-09 12:09:00,
2013-02-09 07:10:00,57.0,34.8,30.14,NNE,21,0.0,0.0,43,0.00,,---,0.00,VWS V14.01,2013-02-09 12:10:00,
2013-02-09 07:11:00,57.0,34.8,30.14,NNE,21,0.0,0.0,43,0.00,,---,0.00,VWS V14.01,2013-02-09 12:11:00,
2013-02-09 07:12:00,57.0,34.8,30.14,NNE,21,0.0,0.0,43,0.00,,---,0.00,VWS V14.01,2013-02-09 12:12:00,
2013-02-09 07:13:00,57.0,34.8,30.14,NNE,21,0.0,0.0,43,0.00,,---,0.00,VWS V14.01,2013-02-09 12:13:00,
2013-02-09 07:14:00,57.0,34.8,30.14,NNE,21,0.0,0.0,43,0.00,,---,0.00,VWS V14.01,2013-02-09 12:14:00,
2013-02-09 07:15:00,57.0,34.8,30.14,NNE,21,0.0,0.0,43,0.00,,---,0.00,VWS V14.01,2013-02-09 12:15:00,
2013-02-09 07:16:00,57.0,34.8,30.14,NNE,21,0.0,0.0,43,0.00,,---,0.00,VWS V14.01,2013-02-09 12:16:00,
2013-02-09 07:17:00,57.0,34.8,30.14,NNE,21,0.0,0.0,43,0.00,,---,0.00,VWS V14.01,2013-02-09 12:17:00,
2013-02-09 07:18:00,57.0,34.8,30.14,NNE,15,0.0,0.0,43,0.00,,---,0.00,VWS V14.01,2013-02-09 12:18:00,
2013-02-09 07:19:00,57.0,34.8,30.14,NNE,14,0.0,0.0,43,0.00,,---,0.00,VWS V14.01,2013-02-09 12:19:00,
2013-02-09 07:20:00,57.0,34.8,30.14,NNE,14,0.0,0.0,43,0.00,,---,0.00,VWS V14.01,2013-02-09 12:20:00,
2013-02-09 07:21:00,57.0,34.8,30.14,NNE,14,0.0,0.0,43,0.00,,---,0.00,VWS V14.01,2013-02-09 12:21:00,
2013-02-09 07:22:00,57.0,34.8,30.14,NNE,14,0.0,0.0,43,0.00,,---,0.00,VWS V14.01,2013-02-09 12:22:00,
2013-02-09 07:23:00,57.0,34.8,30.14,NNE,14,0.0,0.0,43,0.00,,---,0.00,VWS V14.01,2013-02-09 12:23:00,
2013-02-09 07:24:00,57.0,34.8,30.14,NNE,14,0.0,0.0,43,0.00,,---,0.00,VWS V14.01,2013-02-09 12:24:00,
2013-02-09 07:25:00,57.0,34.8,30.14,NNE,14,0.0,0.0,43,0.00,,---,0.00,VWS V14.01,2013-02-09 12:25:00,
2013-02-09 07:26:00,57.0,34.8,30.14,NNE,14,0.0,0.0,43,0.00,,---,0.00,VWS V14.01,2013-02-09 12:26:00,
2013-02-09 07:27:00,57.0,34.8,30.14,NNE,26,2.2,2.2,43,0.00,,---,0.00,VWS V14.01,2013-02-09 12:27:00,
2013-02-09 07:28:00,57.0,34.8,30.14,NNE,14,0.0,3.1,43,0.00,,---,0.00,VWS V14.01,2013-02-09 12:28:00,
2013-02-09 07:29:00,57.0,34.8,30.14,NNE,14,0.0,0.0,43,0.00,,---,0.00,VWS V14.01,2013-02-09 12:29:00,
2013-02-09 07:30:00,57.0,34.8,30.14,NNE,14,2.7,2.7,43,0.00,,---,0.00,VWS V14.01,2013-02-09 12:30:00,
2013-02-09 07:31:00,57.0,34.2,30.14,NNE,21,0.0,4.0,42,0.00,,---,0.00,VWS V14.01,2013-02-09 12:31:00,
2013-02-09 07:32:00,57.0,34.2,30.14,NNE,21,0.0,0.0,42,0.00,,---,0.00,VWS V14.01,2013-02-09 12:32:00,
2013-02-09 07:33:00,57.0,34.2,30.14,NNE,21,0.0,0.0,42,0.00,,---,0.00,VWS V14.01,2013-02-09 12:33:00,
2013-02-09 07:34:00,57.0,34.2,30.14,NNE,21,0.0,0.0,42,0.00,,---,0.00,VWS V14.01,2013-02-09 12:34:00,
2013-02-09 07:35:00,57.0,34.2,30.14,NNE,21,0.0,0.0,42,0.00,,---,0.00,VWS V14.01,2013-02-09 12:35:00,
2013-02-09 07:36:00,57.0,34.2,30.14,NNE,21,0.0,0.0,42,0.00,,---,0.00,VWS V14.01,2013-02-09 12:36:00,
2013-02-09 07:37:00,57.0,34.2,30.14,NNE,21,0.0,0.0,42,0.00,,---,0.00,VWS V14.01,2013-02-09 12:37:00,
2013-02-09 07:38:00,57.0,34.2,30.14,NNE,14,0.0,0.0,42,0.00,,---,0.00,VWS V14.01,2013-02-09 12:38:00,
2013-02-09 07:39:00,57.0,33.6,30.14,North,11,0.0,0.0,41,0.00,,---,0.00,VWS V14.01,2013-02-09 12:39:00,
2013-02-09 07:40:00,57.0,33.6,30.14,North,11,0.0,0.0,41,0.00,,---,0.00,VWS V14.01,2013-02-09 12:40:00,
2013-02-09 07:41:00,57.0,33.6,30.14,North,11,0.0,0.0,41,0.00,,---,0.00,VWS V14.01,2013-02-09 12:41:00,
2013-02-09 07:42:00,57.0,33.6,30.14,North,11,0.0,0.0,41,0.00,,---,0.00,VWS V14.01,2013-02-09 12:42:00,
2013-02-09 07:43:00,57.0,33.6,30.14,North,1,2.2,2.2,41,0.00,,---,0.00,VWS V14.01,2013-02-09 12:43:00,
2013-02-09 07:44:00,57.0,33.6,30.14,North,1,0.0,2.2,41,0.00,,---,0.00,VWS V14.01,2013-02-09 12:44:00,
2013-02-09 07:45:00,57.0,33.6,30.14,NNE,13,0.0,4.5,41,0.00,,---,0.00,VWS V14.01,2013-02-09 12:45:00,
2013-02-09 07:46:00,57.2,33.1,30.14,NNE,13,0.0,0.0,40,0.00,,---,0.00,VWS V14.01,2013-02-09 12:46:00,
2013-02-09 07:47:00,57.2,33.1,30.14,NNE,13,0.0,0.0,40,0.00,,---,0.00,VWS V14.01,2013-02-09 12:47:00,
2013-02-09 07:48:00,57.2,33.1,30.14,North,3,0.0,0.0,40,0.00,,---,0.00,VWS V14.01,2013-02-09 12:48:00,
2013-02-09 07:49:00,57.2,33.1,30.14,North,3,0.0,0.0,40,0.00,,---,0.00,VWS V14.01,2013-02-09 12:49:00,
2013-02-09 07:50:00,57.2,32.5,30.14,NNE,33,2.7,2.7,39,0.00,,---,0.00,VWS V14.01,2013-02-09 12:50:00,
2013-02-09 07:51:00,57.2,32.5,30.14,NNE,33,0.0,3.6,39,0.00,,---,0.00,VWS V14.01,2013-02-09 12:51:00,
2013-02-09 07:52:00,57.2,32.5,30.14,NNE,33,0.0,0.0,39,0.00,,---,0.00,VWS V14.01,2013-02-09 12:52:00,
2013-02-09 07:53:00,57.2,32.5,30.17,NNE,33,0.0,0.0,39,0.00,,---,0.00,VWS V14.01,2013-02-09 12:53:00,
2013-02-09 07:54:00,57.2,32.5,30.17,NNE,32,0.0,0.0,39,0.00,,---,0.00,VWS V14.01,2013-02-09 12:54:00,
2013-02-09 07:55:00,57.4,32.0,30.17,ENE,64,0.0,0.0,38,0.00,,---,0.00,VWS V14.01,2013-02-09 12:55:00,
2013-02-09 07:56:00,57.4,32.0,30.17,ENE,64,0.0,0.0,38,0.00,,---,0.00,VWS V14.01,2013-02-09 12:56:00,
2013-02-09 07:57:00,57.4,32.0,30.17,ENE,64,0.0,0.0,38,0.00,,---,0.00,VWS V14.01,2013-02-09 12:57:00,
2013-02-09 07:58:00,57.4,32.0,30.17,ENE,64,0.0,0.0,38,0.00,,---,0.00,VWS V14.01,2013-02-09 12:58:00,
2013-02-09 07:59:00,57.4,32.0,30.17,NNE,29,0.0,0.0,38,0.00,,---,0.00,VWS V14.01,2013-02-09 12:59:00,
2013-02-09 08:00:00,57.4,32.0,30.17,NNE,29,0.0,0.0,38,0.00,,---,0.00,VWS V14.01,2013-02-09 13:00:00,
2013-02-09 08:01:00,57.4,32.0,30.17,NE,41,0.0,0.0,38,0.00,,---,0.00,VWS V14.01,2013-02-09 13:01:00,
2013-02-09 08:02:00,57.6,32.2,30.17,NE,35,0.0,0.0,38,0.00,,---,0.00,VWS V14.01,2013-02-09 13:02:00,
2013-02-09 08:03:00,57.6,32.2,30.17,NE,35,0.0,0.0,38,0.00,,---,0.00,VWS V14.01,2013-02-09 13:03:00,
2013-02-09 08:04:00,57.6,32.2,30.17,NE,35,0.0,0.0,38,0.00,,---,0.00,VWS V14.01,2013-02-09 13:04:00,
2013-02-09 08:05:00,57.6,32.2,30.17,NE,35,0.0,0.0,38,0.00,,---,0.00,VWS V14.01,2013-02-09 13:05:00,
2013-02-09 08:06:00,57.6,32.2,30.17,NE,35,0.0,0.0,38,0.00,,---,0.00,VWS V14.01,2013-02-09 13:06:00,
2013-02-09 08:07:00,57.6,32.2,30.17,NE,35,0.0,0.0,38,0.00,,---,0.00,VWS V14.01,2013-02-09 13:07:00,
2013-02-09 08:08:00,57.6,32.2,30.17,ENE,78,0.0,0.0,38,0.00,,---,0.00,VWS V14.01,2013-02-09 13:08:00,
2013-02-09 08:09:00,57.7,32.3,30.17,ENE,78,0.0,0.0,38,0.00,,---,0.00,VWS V14.01,2013-02-09 13:09:00,
2013-02-09 08:10:00,57.7,31.7,30.17,ENE,75,0.0,0.0,37,0.00,,---,0.00,VWS V14.01,2013-02-09 13:10:00,
2013-02-09 08:11:00,57.7,31.7,30.17,NNE,16,0.0,0.0,37,0.00,,---,0.00,VWS V14.01,2013-02-09 13:11:00,
2013-02-09 08:12:00,57.7,31.7,30.17,NNW,344,2.2,4.0,37,0.00,,---,0.00,VWS V14.01,2013-02-09 13:12:00,
2013-02-09 08:13:00,57.7,31.7,30.17,NNE,20,0.0,4.9,37,0.00,,---,0.00,VWS V14.01,2013-02-09 13:13:00,
2013-02-09 08:14:00,57.9,31.8,30.17,NNE,19,0.0,3.1,37,0.00,,---,0.00,VWS V14.01,2013-02-09 13:14:00,
2013-02-09 08:15:00,57.9,31.8,30.17,NNE,19,0.0,0.0,37,0.00,,---,0.00,VWS V14.01,2013-02-09 13:15:00,
2013-02-09 08:16:00,57.9,31.8,30.17,NNE,19,0.0,0.0,37,0.00,,---,0.00,VWS V14.01,2013-02-09 13:16:00,
2013-02-09 08:17:00,57.9,31.8,30.17,NNE,21,0.0,0.0,37,0.00,,---,0.00,VWS V14.01,2013-02-09 13:17:00,
2013-02-09 08:18:00,57.9,31.8,30.17,NNE,21,0.0,0.0,37,0.00,,---,0.00,VWS V14.01,2013-02-09 13:18:00,
2013-02-09 08:19:00,57.9,31.8,30.17,North,6,3.1,3.1,37,0.00,,---,0.00,VWS V14.01,2013-02-09 13:19:00,
2013-02-09 08:20:00,57.9,31.8,30.17,NNE,28,4.9,5.4,37,0.00,,---,0.00,VWS V14.01,2013-02-09 13:20:00,
2013-02-09 08:21:00,57.9,31.8,30.17,NNE,28,0.0,4.9,37,0.00,,---,0.00,VWS V14.01,2013-02-09 13:21:00,
2013-02-09 08:22:00,58.1,31.3,30.17,NNE,28,0.0,0.0,36,0.00,,---,0.00,VWS V14.01,2013-02-09 13:22:00,
2013-02-09 08:23:00,58.1,31.3,30.17,NNE,28,0.0,0.0,36,0.00,,---,0.00,VWS V14.01,2013-02-09 13:23:00,
2013-02-09 08:24:00,58.1,31.3,30.17,North,2,0.0,0.0,36,0.00,,---,0.00,VWS V14.01,2013-02-09 13:24:00,
2013-02-09 08:25:00,58.1,31.3,30.17,ENE,61,0.0,0.0,36,0.00,,---,0.00,VWS V14.01,2013-02-09 13:25:00,
2013-02-09 08:26:00,58.1,31.3,30.17,ENE,61,0.0,0.0,36,0.00,,---,0.00,VWS V14.01,2013-02-09 13:26:00,
2013-02-09 08:27:00,58.1,31.3,30.17,ENE,61,0.0,0.0,36,0.00,,---,0.00,VWS V14.01,2013-02-09 13:27:00,
2013-02-09 08:28:00,58.3,31.5,30.17,ENE,61,0.0,0.0,36,0.00,,---,0.00,VWS V14.01,2013-02-09 13:28:00,
2013-02-09 08:29:00,58.3,31.5,30.17,ENE,61,0.0,0.0,36,0.00,,---,0.00,VWS V14.01,2013-02-09 13:29:00,
2013-02-09 08:30:00,58.3,31.5,30.17,North,353,2.2,2.7,36,0.00,,---,0.00,VWS V14.01,2013-02-09 13:30:00,
2013-02-09 08:31:00,58.3,31.5,30.17,North,353,0.0,2.2,36,0.00,,---,0.00,VWS V14.01,2013-02-09 13:31:00,
2013-02-09 08:32:00,58.5,31.6,30.17,North,353,0.0,0.0,36,0.00,,---,0.00,VWS V14.01,2013-02-09 13:32:00,
2013-02-09 08:33:00,58.5,31.6,30.17,North,353,0.0,0.0,36,0.00,,---,0.00,VWS V14.01,2013-02-09 13:33:00,
2013-02-09 08:34:00,58.5,31.6,30.17,North,353,0.0,0.0,36,0.00,,---,0.00,VWS V14.01,2013-02-09 13:34:00,
2013-02-09 08:35:00,58.5,31.6,30.17,North,353,0.0,0.0,36,0.00,,---,0.00,VWS V14.01,2013-02-09 13:35:00,
2013-02-09 08:36:00,58.5,31.6,30.17,North,353,0.0,0.0,36,0.00,,---,0.00,VWS V14.01,2013-02-09 13:36:00,
2013-02-09 08:37:00,58.6,31.8,30.17,ENE,62,0.0,0.0,36,0.00,,---,0.00,VWS V14.01,2013-02-09 13:37:00,
2013-02-09 08:38:00,58.6,31.8,30.17,ENE,62,0.0,0.0,36,0.00,,---,0.00,VWS V14.01,2013-02-09 13:38:00,
2013-02-09 08:39:00,58.6,31.8,30.17,SE,127,0.0,0.0,36,0.00,,---,0.00,VWS V14.01,2013-02-09 13:39:00,
2013-02-09 08:40:00,58.6,31.1,30.17,NNE,28,0.0,0.0,35,0.00,,---,0.00,VWS V14.01,2013-02-09 13:40:00,
2013-02-09 08:41:00,58.8,31.2,30.17,NE,43,0.0,2.7,35,0.00,,---,0.00,VWS V14.01,2013-02-09 13:41:00,
2013-02-09 08:42:00,58.8,31.2,30.17,NE,43,0.0,0.0,35,0.00,,---,0.00,VWS V14.01,2013-02-09 13:42:00,
2013-02-09 08:43:00,58.8,31.2,30.17,NE,43,0.0,0.0,35,0.00,,---,0.00,VWS V14.01,2013-02-09 13:43:00,
2013-02-09 08:44:00,58.8,31.2,30.17,NE,43,0.0,0.0,35,0.00,,---,0.00,VWS V14.01,2013-02-09 13:44:00,
2013-02-09 08:45:00,58.8,31.2,30.17,NE,43,0.0,0.0,35,0.00,,---,0.00,VWS V14.01,2013-02-09 13:45:00,
2013-02-09 08:46:00,58.8,31.2,30.17,NE,43,0.0,0.0,35,0.00,,---,0.00,VWS V14.01,2013-02-09 13:46:00,
2013-02-09 08:47:00,59.0,30.7,30.17,NE,43,0.0,0.0,34,0.00,,---,0.00,VWS V14.01,2013-02-09 13:47:00,
2013-02-09 08:48:00,59.0,30.7,30.17,NE,43,0.0,0.0,34,0.00,,---,0.00,VWS V14.01,2013-02-09 13:48:00,
2013-02-09 08:49:00,59.0,30.7,30.17,NE,49,0.0,0.0,34,0.00,,---,0.00,VWS V14.01,2013-02-09 13:49:00,
2013-02-09 08:50:00,59.0,30.7,30.17,NE,49,0.0,0.0,34,0.00,,---,0.00,VWS V14.01,2013-02-09 13:50:00,
2013-02-09 08:51:00,59.2,30.9,30.17,NE,49,0.0,0.0,34,0.00,,---,0.00,VWS V14.01,2013-02-09 13:51:00,
2013-02-09 08:52:00,59.2,30.9,30.17,ENE,57,0.0,0.0,34,0.00,,---,0.00,VWS V14.01,2013-02-09 13:52:00,
2013-02-09 08:53:00,59.2,30.1,30.17,NE,55,2.2,2.7,33,0.00,,---,0.00,VWS V14.01,2013-02-09 13:53:00,
2013-02-09 08:54:00,59.2,29.4,30.17,NE,48,0.0,2.2,32,0.00,,---,0.00,VWS V14.01,2013-02-09 13:54:00,
2013-02-09 08:55:00,59.2,29.4,30.17,NE,50,0.0,0.0,32,0.00,,---,0.00,VWS V14.01,2013-02-09 13:55:00,
2013-02-09 08:56:00,59.2,28.6,30.17,East,83,0.0,0.0,31,0.00,,---,0.00,VWS V14.01,2013-02-09 13:56:00,
2013-02-09 08:57:00,59.2,27.8,30.17,ENE,77,0.0,0.0,30,0.00,,---,0.00,VWS V14.01,2013-02-09 13:57:00,
2013-02-09 08:58:00,59.2,27.8,30.17,NNE,30,2.2,3.1,30,0.00,,---,0.00,VWS V14.01,2013-02-09 13:58:00,
2013-02-09 08:59:00,59.2,27.8,30.17,NNE,32,0.0,2.2,30,0.00,,---,0.00,VWS V14.01,2013-02-09 13:59:00,
2013-02-09 09:00:00,59.2,27.8,30.17,NE,38,0.0,0.0,30,0.00,,---,0.00,VWS V14.01,2013-02-09 14:00:00,
2013-02-09 09:01:00,59.4,27.9,30.17,NNE,32,0.0,0.0,30,0.00,,---,0.00,VWS V14.01,2013-02-09 14:01:00,
2013-02-09 09:02:00,59.4,27.9,30.17,NNE,33,0.0,0.0,30,0.00,,---,0.00,VWS V14.01,2013-02-09 14:02:00,
2013-02-09 09:03:00,59.4,27.9,30.17,NNE,33,0.0,0.0,30,0.00,,---,0.00,VWS V14.01,2013-02-09 14:03:00,
2013-02-09 09:04:00,59.4,27.9,30.17,NNE,17,3.1,3.6,30,0.00,,---,0.00,VWS V14.01,2013-02-09 14:04:00,
2013-02-09 09:05:00,59.4,27.1,30.17,NNE,27,2.7,4.0,29,0.00,,---,0.00,VWS V14.01,2013-02-09 14:05:00,
2013-02-09 09:06:00,59.4,27.1,30.17,ENE,60,3.1,3.6,29,0.00,,---,0.00,VWS V14.01,2013-02-09 14:06:00,
2013-02-09 09:07:00,59.4,27.1,30.17,ENE,77,0.0,3.1,29,0.00,,---,0.00,VWS V14.01,2013-02-09 14:07:00,
2013-02-09 09:08:00,59.5,27.3,30.17,ENE,66,0.0,3.6,29,0.00,,---,0.00,VWS V14.01,2013-02-09 14:08:00,
2013-02-09 09:09:00,59.5,27.3,30.17,ENE,69,0.0,0.0,29,0.00,,---,0.00,VWS V14.01,2013-02-09 14:09:00,
2013-02-09 09:10:00,59.5,27.3,30.17,ENE,69,0.0,0.0,29,0.00,,---,0.00,VWS V14.01,2013-02-09 14:10:00,
2013-02-09 09:11:00,59.5,26.4,30.17,East,85,0.0,0.0,28,0.00,,---,0.00,VWS V14.01,2013-02-09 14:11:00,
2013-02-09 09:12:00,59.5,27.3,30.17,East,84,0.0,0.0,29,0.00,,---,0.00,VWS V14.01,2013-02-09 14:12:00,
2013-02-09 09:13:00,59.7,27.4,30.17,NE,50,0.0,0.0,29,0.00,,---,0.00,VWS V14.01,2013-02-09 14:13:00,
2013-02-09 09:14:00,59.7,27.4,30.17,East,80,0.0,0.0,29,0.00,,---,0.00,VWS V14.01,2013-02-09 14:14:00,
2013-02-09 09:15:00,59.7,27.4,30.17,East,80,0.0,0.0,29,0.00,,---,0.00,VWS V14.01,2013-02-09 14:15:00,
2013-02-09 09:16:00,59.7,27.4,30.17,North,349,3.1,3.1,29,0.00,,---,0.00,VWS V14.01,2013-02-09 14:16:00,
2013-02-09 09:17:00,59.7,27.4,30.17,NE,44,0.0,3.1,29,0.00,,---,0.00,VWS V14.01,2013-02-09 14:17:00,
2013-02-09 09:18:00,59.9,26.7,30.17,North,7,3.6,4.0,28,0.00,,---,0.00,VWS V14.01,2013-02-09 14:18:00,
2013-02-09 09:19:00,59.9,26.7,30.17,South,172,2.2,3.6,28,0.00,,---,0.00,VWS V14.01,2013-02-09 14:19:00,
2013-02-09 09:20:00,59.9,26.7,30.17,NNE,27,0.0,4.0,28,0.00,,---,0.00,VWS V14.01,2013-02-09 14:20:00,
2013-02-09 09:21:00,59.9,25.9,30.17,NE,47,3.6,5.4,27,0.00,,---,0.00,VWS V14.01,2013-02-09 14:21:00,
2013-02-09 09:22:00,59.9,25.9,30.17,North,5,2.2,3.6,27,0.00,,---,0.00,VWS V14.01,2013-02-09 14:22:00,
2013-02-09 09:23:00,59.9,26.7,30.17,NE,34,3.6,3.6,28,0.00,,---,0.00,VWS V14.01,2013-02-09 14:23:00,
2013-02-09 09:24:00,59.9,26.7,30.17,NE,34,3.1,3.6,28,0.00,,---,0.00,VWS V14.01,2013-02-09 14:24:00,
2013-02-09 09:25:00,60.1,26.9,30.17,NNE,29,2.2,4.9,28,0.00,,---,0.00,VWS V14.01,2013-02-09 14:25:00,
2013-02-09 09:26:00,60.1,26.0,30.17,NNE,21,5.8,5.8,27,0.00,,---,0.00,VWS V14.01,2013-02-09 14:26:00,
2013-02-09 09:27:00,60.1,26.0,30.17,NNE,21,3.6,5.8,27,0.00,,---,0.00,VWS V14.01,2013-02-09 14:27:00,
2013-02-09 09:28:00,60.1,26.0,30.17,NE,39,3.6,3.6,27,0.00,,---,0.00,VWS V14.01,2013-02-09 14:28:00,
2013-02-09 09:29:00,60.3,26.2,30.17,NE,35,2.2,4.0,27,0.00,,---,0.00,VWS V14.01,2013-02-09 14:29:00,
2013-02-09 09:30:00,60.3,26.2,30.17,NNW,343,0.0,4.0,27,0.00,,---,0.00,VWS V14.01,2013-02-09 14:30:00,
2013-02-09 09:31:00,60.3,26.2,30.17,NNW,343,0.0,0.0,27,0.00,,---,0.00,VWS V14.01,2013-02-09 14:31:00,
2013-02-09 09:32:00,60.4,26.3,30.17,NNW,343,0.0,0.0,27,0.00,,---,0.00,VWS V14.01,2013-02-09 14:32:00,
2013-02-09 09:33:00,60.4,26.3,30.17,NW,316,2.2,2.2,27,0.00,,---,0.00,VWS V14.01,2013-02-09 14:33:00,
2013-02-09 09:34:00,60.6,26.5,30.17,NNE,31,2.2,3.1,27,0.00,,---,0.00,VWS V14.01,2013-02-09 14:34:00,
2013-02-09 09:35:00,60.6,26.5,30.17,NE,45,2.7,3.6,27,0.00,,---,0.00,VWS V14.01,2013-02-09 14:35:00,
2013-02-09 09:36:00,60.6,25.6,30.17,NE,40,2.2,3.1,26,0.00,,---,0.00,VWS V14.01,2013-02-09 14:36:00,
2013-02-09 09:37:00,60.6,25.6,30.17,East,79,0.0,3.1,26,0.00,,---,0.00,VWS V14.01,2013-02-09 14:37:00,
2013-02-09 09:38:00,60.8,24.8,30.17,NE,42,2.7,2.7,25,0.00,,---,0.00,VWS V14.01,2013-02-09 14:38:00,
2013-02-09 09:39:00,60.8,24.8,30.17,ENE,66,0.0,3.1,25,0.00,,---,0.00,VWS V14.01,2013-02-09 14:39:00,
2013-02-09 09:40:00,60.8,24.8,30.17,ENE,66,0.0,0.0,25,0.00,,---,0.00,VWS V14.01,2013-02-09 14:40:00,
2013-02-09 09:41:00,61.0,24.9,30.17,ENE,57,0.0,0.0,25,0.00,,---,0.00,VWS V14.01,2013-02-09 14:41:00,
2013-02-09 09:42:00,61.0,24.9,30.17,NNE,23,0.0,0.0,25,0.00,,---,0.00,VWS V14.01,2013-02-09 14:42:00,
2013-02-09 09:43:00,61.0,24.9,30.17,NE,55,0.0,0.0,25,0.00,,---,0.00,VWS V14.01,2013-02-09 14:43:00,
2013-02-09 09:44:00,61.0,24.9,30.17,North,11,3.6,3.6,25,0.00,,---,0.00,VWS V14.01,2013-02-09 14:44:00,
2013-02-09 09:45:00,61.0,24.9,30.17,NE,49,0.0,3.6,25,0.00,,---,0.00,VWS V14.01,2013-02-09 14:45:00,
2013-02-09 09:46:00,61.0,24.9,30.17,NNE,30,4.0,4.0,25,0.00,,---,0.00,VWS V14.01,2013-02-09 14:46:00,
2013-02-09 09:47:00,61.0,24.9,30.17,NE,40,3.1,4.0,25,0.00,,---,0.00,VWS V14.01,2013-02-09 14:47:00,
2013-02-09 09:48:00,61.0,24.9,30.17,NNE,22,3.1,3.1,25,0.00,,---,0.00,VWS V14.01,2013-02-09 14:48:00,
2013-02-09 09:49:00,61.2,25.1,30.17,East,79,2.2,3.6,25,0.00,,---,0.00,VWS V14.01,2013-02-09 14:49:00,
2013-02-09 09:50:00,61.2,25.1,30.17,East,80,0.0,2.2,25,0.00,,---,0.00,VWS V14.01,2013-02-09 14:50:00,
2013-02-09 09:51:00,61.3,25.2,30.17,East,80,0.0,0.0,25,0.00,,---,0.00,VWS V14.01,2013-02-09 14:51:00,
2013-02-09 09:52:00,61.3,24.3,30.17,North,357,3.1,4.9,24,0.00,,---,0.00,VWS V14.01,2013-02-09 14:52:00,
2013-02-09 09:53:00,61.3,25.2,30.17,NNW,341,2.7,4.0,25,0.00,,---,0.00,VWS V14.01,2013-02-09 14:53:00,
2013-02-09 09:54:00,61.3,25.2,30.17,North,8,2.7,5.4,25,0.00,,---,0.00,VWS V14.01,2013-02-09 14:54:00,
2013-02-09 09:55:00,61.5,24.4,30.17,North,0,0.0,2.7,24,0.00,,---,0.00,VWS V14.01,2013-02-09 14:55:00,
2013-02-09 09:56:00,61.5,24.4,30.17,NNE,13,0.0,0.0,24,0.00,,---,0.00,VWS V14.01,2013-02-09 14:56:00,
2013-02-09 09:57:00,61.7,25.5,30.17,NE,51,0.0,0.0,25,0.00,,---,0.00,VWS V14.01,2013-02-09 14:57:00,
2013-02-09 09:58:00,61.7,25.5,30.17,ESE,105,0.0,0.0,25,0.00,,---,0.00,VWS V14.01,2013-02-09 14:58:00,
2013-02-09 09:59:00,61.9,25.7,30.17,ENE,75,0.0,0.0,25,0.00,,---,0.00,VWS V14.01,2013-02-09 14:59:00,
2013-02-09 10:00:00,61.9,25.7,30.17,ENE,75,0.0,0.0,25,0.00,,---,0.00,VWS V14.01,2013-02-09 15:00:00,
2013-02-09 10:01:00,62.1,25.9,30.17,ENE,74,0.0,0.0,25,0.00,,---,0.00,VWS V14.01,2013-02-09 15:01:00,
2013-02-09 10:02:00,62.1,24.9,30.17,NNW,343,4.0,4.0,24,0.00,,---,0.00,VWS V14.01,2013-02-09 15:02:00,
2013-02-09 10:03:00,62.2,25.0,30.17,NNW,346,2.7,4.0,24,0.00,,---,0.00,VWS V14.01,2013-02-09 15:03:00,
2013-02-09 10:04:00,62.2,25.0,30.17,North,0,3.6,3.6,24,0.00,,---,0.00,VWS V14.01,2013-02-09 15:04:00,
2013-02-09 10:05:00,62.2,25.0,30.17,NNW,327,0.0,3.6,24,0.00,,---,0.00,VWS V14.01,2013-02-09 15:05:00,
2013-02-09 10:06:00,62.2,25.0,30.17,NNE,19,0.0,0.0,24,0.00,,---,0.00,VWS V14.01,2013-02-09 15:06:00,
2013-02-09 10:07:00,62.4,25.2,30.17,East,89,0.0,0.0,24,0.00,,---,0.00,VWS V14.01,2013-02-09 15:07:00,
2013-02-09 10:08:00,62.4,25.2,30.19,ENE,72,0.0,0.0,24,0.00,,---,0.00,VWS V14.01,2013-02-09 15:08:00,
2013-02-09 10:09:00,62.4,25.2,30.19,NNE,19,3.1,3.1,24,0.00,,---,0.00,VWS V14.01,2013-02-09 15:09:00,
2013-02-09 10:10:00,62.6,24.3,30.19,NE,43,2.7,3.1,23,0.00,,---,0.00,VWS V14.01,2013-02-09 15:10:00,
2013-02-09 10:11:00,62.6,25.3,30.19,NE,35,0.0,2.7,24,0.00,,---,0.00,VWS V14.01,2013-02-09 15:11:00,
2013-02-09 10:12:00,62.6,24.3,30.19,NNE,24,0.0,4.9,23,0.00,,---,0.00,VWS V14.01,2013-02-09 15:12:00,
2013-02-09 10:13:00,62.8,22.3,30.19,NNW,341,3.6,3.6,21,0.00,,---,0.00,VWS V14.01,2013-02-09 15:13:00,
2013-02-09 10:14:00,62.8,24.5,30.19,North,353,0.0,3.6,23,0.00,,---,0.00,VWS V14.01,2013-02-09 15:14:00,
2013-02-09 10:15:00,63.0,22.4,30.19,NNE,29,2.7,2.7,21,0.00,,---,0.00,VWS V14.01,2013-02-09 15:15:00,
2013-02-09 10:16:00,63.0,22.4,30.19,SSE,155,2.2,4.0,21,0.00,,---,0.00,VWS V14.01,2013-02-09 15:16:00,
2013-02-09 10:17:00,63.0,22.4,30.19,ESE,123,2.7,3.1,21,0.00,,---,0.00,VWS V14.01,2013-02-09 15:17:00,
2013-02-09 10:18:00,63.0,22.4,30.19,NNE,16,2.7,2.7,21,0.00,,---,0.00,VWS V14.01,2013-02-09 15:18:00,
2013-02-09 10:19:00,63.1,22.6,30.19,NE,35,2.2,5.4,21,0.00,,---,0.00,VWS V14.01,2013-02-09 15:19:00,
2013-02-09 10:20:00,63.1,22.6,30.19,East,87,0.0,2.7,21,0.00,,---,0.00,VWS V14.01,2013-02-09 15:20:00,
2013-02-09 10:21:00,63.3,22.8,30.19,East,82,0.0,0.0,21,0.00,,---,0.00,VWS V14.01,2013-02-09 15:21:00,
2013-02-09 10:22:00,63.3,22.8,30.19,ESE,108,2.2,2.2,21,0.00,,---,0.00,VWS V14.01,2013-02-09 15:22:00,
2013-02-09 10:23:00,63.5,22.9,30.19,SE,141,0.0,2.2,21,0.00,,---,0.00,VWS V14.01,2013-02-09 15:23:00,
2013-02-09 10:24:00,63.5,22.9,30.19,ESE,109,0.0,0.0,21,0.00,,---,0.00,VWS V14.01,2013-02-09 15:24:00,
2013-02-09 10:25:00,63.7,23.0,30.19,ESE,123,0.0,0.0,21,0.00,,---,0.00,VWS V14.01,2013-02-09 15:25:00,
2013-02-09 10:26:00,63.7,19.4,30.19,ESE,122,0.0,0.0,18,0.00,,---,0.00,VWS V14.01,2013-02-09 15:26:00,
2013-02-09 10:27:00,63.9,19.6,30.19,NNE,18,2.7,2.7,18,0.00,,---,0.00,VWS V14.01,2013-02-09 15:27:00,
2013-02-09 10:28:00,63.9,19.6,30.19,NE,55,0.0,2.7,18,0.00,,---,0.00,VWS V14.01,2013-02-09 15:28:00,
2013-02-09 10:29:00,64.0,19.7,30.19,ENE,76,0.0,0.0,18,0.00,,---,0.00,VWS V14.01,2013-02-09 15:29:00,
2013-02-09 10:30:00,64.0,19.7,30.19,East,82,0.0,0.0,18,0.00,,---,0.00,VWS V14.01,2013-02-09 15:30:00,
2013-02-09 10:31:00,64.2,19.9,30.19,NNE,31,0.0,0.0,18,0.00,,---,0.00,VWS V14.01,2013-02-09 15:31:00,
2013-02-09 10:32:00,64.2,17.1,30.19,NE,36,0.0,0.0,16,0.00,,---,0.00,VWS V14.01,2013-02-09 15:32:00,
2013-02-09 10:33:00,64.2,19.9,30.19,ESE,102,0.0,0.0,18,0.00,,---,0.00,VWS V14.01,2013-02-09 15:33:00,
2013-02-09 10:34:00,64.4,20.0,30.19,SE,125,2.2,2.2,18,0.00,,---,0.00,VWS V14.01,2013-02-09 15:34:00,
2013-02-09 10:35:00,64.4,20.0,30.19,ESE,120,0.0,3.1,18,0.00,,---,0.00,VWS V14.01,2013-02-09 15:35:00,
2013-02-09 10:36:00,64.4,20.0,30.19,SSE,167,0.0,0.0,18,0.00,,---,0.00,VWS V14.01,2013-02-09 15:36:00,
2013-02-09 10:37:00,64.6,20.1,30.19,East,82,2.7,3.6,18,0.00,,---,0.00,VWS V14.01,2013-02-09 15:37:00,
2013-02-09 10:38:00,64.8,16.1,30.19,East,83,2.7,2.7,15,0.00,,---,0.00,VWS V14.01,2013-02-09 15:38:00,
2013-02-09 10:39:00,64.8,16.1,30.19,East,93,0.0,2.7,15,0.00,,---,0.00,VWS V14.01,2013-02-09 15:39:00,
2013-02-09 10:40:00,64.9,16.2,30.19,East,85,0.0,2.7,15,0.00,,---,0.00,VWS V14.01,2013-02-09 15:40:00,
2013-02-09 10:41:00,64.9,16.2,30.19,East,85,0.0,0.0,15,0.00,,---,0.00,VWS V14.01,2013-02-09 15:41:00,
2013-02-09 10:42:00,64.9,16.2,30.19,East,89,0.0,0.0,15,0.00,,---,0.00,VWS V14.01,2013-02-09 15:42:00,
2013-02-09 10:43:00,64.9,16.2,30.19,North,10,0.0,0.0,15,0.00,,---,0.00,VWS V14.01,2013-02-09 15:43:00,
2013-02-09 10:44:00,65.1,16.4,30.19,NNE,27,0.0,0.0,15,0.00,,---,0.00,VWS V14.01,2013-02-09 15:44:00,
2013-02-09 10:45:00,65.1,16.4,30.19,ENE,57,0.0,0.0,15,0.00,,---,0.00,VWS V14.01,2013-02-09 15:45:00,
2013-02-09 10:46:00,65.1,16.4,30.19,ESE,110,0.0,0.0,15,0.00,,---,0.00,VWS V14.01,2013-02-09 15:46:00,
2013-02-09 10:47:00,65.3,16.5,30.19,ESE,110,0.0,0.0,15,0.00,,---,0.00,VWS V14.01,2013-02-09 15:47:00,
2013-02-09 10:48:00,65.5,16.6,30.19,ESE,110,0.0,0.0,15,0.00,,---,0.00,VWS V14.01,2013-02-09 15:48:00,
2013-02-09 10:49:00,65.5,16.6,30.19,East,97,0.0,0.0,15,0.00,,---,0.00,VWS V14.01,2013-02-09 15:49:00,
2013-02-09 10:50:00,65.5,16.6,30.19,ESE,112,0.0,0.0,15,0.00,,---,0.00,VWS V14.01,2013-02-09 15:50:00,
2013-02-09 10:51:00,65.7,16.8,30.19,NNE,12,0.0,0.0,15,0.00,,---,0.00,VWS V14.01,2013-02-09 15:51:00,
2013-02-09 10:52:00,65.7,16.8,30.19,NE,38,0.0,0.0,15,0.00,,---,0.00,VWS V14.01,2013-02-09 15:52:00,
2013-02-09 10:53:00,65.8,16.9,30.19,NE,51,0.0,0.0,15,0.00,,---,0.00,VWS V14.01,2013-02-09 15:53:00,
2013-02-09 10:54:00,65.8,16.9,30.19,ENE,73,0.0,0.0,15,0.00,,---,0.00,VWS V14.01,2013-02-09 15:54:00,
2013-02-09 10:55:00,65.8,16.9,30.19,NE,48,0.0,0.0,15,0.00,,---,0.00,VWS V14.01,2013-02-09 15:55:00,
2013-02-09 10:56:00,66.0,17.1,30.19,NE,48,0.0,0.0,15,0.00,,---,0.00,VWS V14.01,2013-02-09 15:56:00,
2013-02-09 10:57:00,66.0,17.1,30.19,ENE,68,0.0,0.0,15,0.00,,---,0.00,VWS V14.01,2013-02-09 15:57:00,
2013-02-09 10:58:00,66.0,17.1,30.19,NNW,339,4.9,4.9,15,0.00,,---,0.00,VWS V14.01,2013-02-09 15:58:00,
2013-02-09 10:59:00,66.0,17.1,30.19,East,82,0.0,4.9,15,0.00,,---,0.00,VWS V14.01,2013-02-09 15:59:00,
2013-02-09 11:00:00,66.2,17.2,30.19,ENE,78,0.0,0.0,15,0.00,,---,0.00,VWS V14.01,2013-02-09 16:00:00,
2013-02-09 11:01:00,66.2,12.1,30.19,ENE,77,0.0,0.0,12,0.00,,---,0.00,VWS V14.01,2013-02-09 16:01:00,
2013-02-09 11:02:00,66.2,12.1,30.19,NNE,23,2.7,3.6,12,0.00,,---,0.00,VWS V14.01,2013-02-09 16:02:00,
2013-02-09 11:03:00,66.2,12.1,30.19,North,357,4.9,4.9,12,0.00,,---,0.00,VWS V14.01,2013-02-09 16:03:00,
2013-02-09 11:04:00,66.2,12.1,30.19,NNE,19,2.7,4.9,12,0.00,,---,0.00,VWS V14.01,2013-02-09 16:04:00,
2013-02-09 11:05:00,66.2,12.1,30.19,North,353,3.6,4.0,12,0.00,,---,0.00,VWS V14.01,2013-02-09 16:05:00,
2013-02-09 11:06:00,66.2,12.1,30.19,North,0,3.1,3.6,12,0.00,,---,0.00,VWS V14.01,2013-02-09 16:06:00,
2013-02-09 11:07:00,66.2,12.1,30.19,NNE,13,3.6,4.0,12,0.00,,---,0.00,VWS V14.01,2013-02-09 16:07:00,
2013-02-09 11:08:00,66.2,12.1,30.19,NNW,339,5.8,5.8,12,0.00,,---,0.00,VWS V14.01,2013-02-09 16:08:00,
2013-02-09 11:09:00,66.2,12.1,30.19,North,5,4.9,5.8,12,0.00,,---,0.00,VWS V14.01,2013-02-09 16:09:00,
2013-02-09 11:10:00,66.2,12.1,30.19,NNE,32,2.7,4.9,12,0.00,,---,0.00,VWS V14.01,2013-02-09 16:10:00,
2013-02-09 11:11:00,66.2,12.1,30.19,NNW,342,3.6,5.8,12,0.00,,---,0.00,VWS V14.01,2013-02-09 16:11:00,
2013-02-09 11:12:00,66.2,12.1,30.19,NNW,342,2.2,3.6,12,0.00,,---,0.00,VWS V14.01,2013-02-09 16:12:00,
2013-02-09 11:13:00,66.2,12.1,30.19,NNE,14,0.0,2.7,12,0.00,,---,0.00,VWS V14.01,2013-02-09 16:13:00,
2013-02-09 11:14:00,66.2,12.1,30.19,North,7,4.9,4.9,12,0.00,,---,0.00,VWS V14.01,2013-02-09 16:14:00,
2013-02-09 11:15:00,66.2,12.1,30.19,NNW,337,0.0,5.8,12,0.00,,---,0.00,VWS V14.01,2013-02-09 16:15:00,
2013-02-09 11:16:00,66.2,12.1,30.19,North,6,3.1,3.6,12,0.00,,---,0.00,VWS V14.01,2013-02-09 16:16:00,
2013-02-09 11:17:00,66.4,12.3,30.19,North,353,5.4,5.4,12,0.00,,---,0.00,VWS V14.01,2013-02-09 16:17:00,
2013-02-09 11:18:00,66.4,12.3,30.19,NNE,14,3.6,5.4,12,0.00,,---,0.00,VWS V14.01,2013-02-09 16:18:00,
2013-02-09 11:19:00,66.4,12.3,30.19,NNE,25,2.2,4.0,12,0.00,,---,0.00,VWS V14.01,2013-02-09 16:19:00,
2013-02-09 11:20:00,66.6,12.4,30.19,NNE,25,0.0,2.2,12,0.00,,---,0.00,VWS V14.01,2013-02-09 16:20:00,
2013-02-09 11:21:00,66.6,12.4,30.19,NNE,25,0.0,0.0,12,0.00,,---,0.00,VWS V14.01,2013-02-09 16:21:00,
2013-02-09 11:22:00,66.7,12.5,30.19,NNW,346,0.0,2.2,12,0.00,,---,0.00,VWS V14.01,2013-02-09 16:22:00,
2013-02-09 11:23:00,66.7,12.5,30.17,WNW,283,2.7,5.4,12,0.00,,---,0.00,VWS V14.01,2013-02-09 16:23:00,
2013-02-09 11:24:00,66.9,12.7,30.17,North,349,3.1,3.6,12,0.00,,---,0.00,VWS V14.01,2013-02-09 16:24:00,
2013-02-09 11:25:00,66.9,12.7,30.17,NE,53,2.7,3.1,12,0.00,,---,0.00,VWS V14.01,2013-02-09 16:25:00,
2013-02-09 11:26:00,67.1,12.8,30.17,NE,34,0.0,3.6,12,0.00,,---,0.00,VWS V14.01,2013-02-09 16:26:00,
2013-02-09 11:27:00,67.1,12.8,30.17,SSW,192,0.0,0.0,12,0.00,,---,0.00,VWS V14.01,2013-02-09 16:27:00,
2013-02-09 11:28:00,67.1,12.8,30.17,North,9,3.6,3.6,12,0.00,,---,0.00,VWS V14.01,2013-02-09 16:28:00,
2013-02-09 11:29:00,67.1,12.8,30.17,East,81,2.7,3.6,12,0.00,,---,0.00,VWS V14.01,2013-02-09 16:29:00,
2013-02-09 11:30:00,67.3,13.0,30.17,East,81,0.0,2.7,12,0.00,,---,0.00,VWS V14.01,2013-02-09 16:30:00,
2013-02-09 11:31:00,67.3,13.0,30.17,NNE,29,0.0,0.0,12,0.00,,---,0.00,VWS V14.01,2013-02-09 16:31:00,
2013-02-09 11:32:00,67.5,13.1,30.17,NNE,18,4.0,4.0,12,0.00,,---,0.00,VWS V14.01,2013-02-09 16:32:00,
2013-02-09 11:33:00,67.5,13.1,30.17,NNE,24,2.7,4.0,12,0.00,,---,0.00,VWS V14.01,2013-02-09 16:33:00,
2013-02-09 11:34:00,67.5,13.1,30.17,NNW,338,0.0,2.7,12,0.00,,---,0.00,VWS V14.01,2013-02-09 16:34:00,
2013-02-09 11:35:00,67.5,13.1,30.17,North,350,0.0,0.0,12,0.00,,---,0.00,VWS V14.01,2013-02-09 16:35:00,
2013-02-09 11:36:00,67.5,13.1,30.17,NE,50,0.0,0.0,12,0.00,,---,0.00,VWS V14.01,2013-02-09 16:36:00,
2013-02-09 11:37:00,67.6,13.2,30.17,ENE,61,0.0,0.0,12,0.00,,---,0.00,VWS V14.01,2013-02-09 16:37:00,
2013-02-09 11:38:00,67.6,13.2,30.17,NNE,13,3.1,3.6,12,0.00,,---,0.00,VWS V14.01,2013-02-09 16:38:00,
2013-02-09 11:39:00,67.6,13.2,30.17,NNW,336,0.0,3.6,12,0.00,,---,0.00,VWS V14.01,2013-02-09 16:39:00,
2013-02-09 11:40:00,67.6,13.2,30.17,ENE,71,0.0,0.0,12,0.00,,---,0.00,VWS V14.01,2013-02-09 16:40:00,
2013-02-09 11:41:00,67.8,13.4,30.17,NNE,31,0.0,0.0,12,0.00,,---,0.00,VWS V14.01,2013-02-09 16:41:00,
2013-02-09 11:42:00,67.6,13.2,30.17,North,8,0.0,0.0,12,0.00,,---,0.00,VWS V14.01,2013-02-09 16:42:00,
2013-02-09 11:43:00,67.8,13.4,30.17,ESE,102,0.0,0.0,12,0.00,,---,0.00,VWS V14.01,2013-02-09 16:43:00,
2013-02-09 11:44:00,67.8,13.4,30.17,NE,46,0.0,0.0,12,0.00,,---,0.00,VWS V14.01,2013-02-09 16:44:00,
2013-02-09 11:45:00,67.8,13.4,30.17,NNW,338,0.0,0.0,12,0.00,,---,0.00,VWS V14.01,2013-02-09 16:45:00,
2013-02-09 11:46:00,68.0,13.5,30.17,NNW,338,0.0,0.0,12,0.00,,---,0.00,VWS V14.01,2013-02-09 16:46:00,
2013-02-09 11:47:00,68.0,13.5,30.17,East,93,0.0,0.0,12,0.00,,---,0.00,VWS V14.01,2013-02-09 16:47:00,
2013-02-09 11:48:00,68.0,13.5,30.17,East,82,0.0,0.0,12,0.00,,---,0.00,VWS V14.01,2013-02-09 16:48:00,
2013-02-09 11:49:00,68.0,13.5,30.17,ENE,65,0.0,0.0,12,0.00,,---,0.00,VWS V14.01,2013-02-09 16:49:00,
2013-02-09 11:50:00,68.0,13.5,30.17,North,0,2.7,2.7,12,0.00,,---,0.00,VWS V14.01,2013-02-09 16:50:00,
2013-02-09 11:51:00,68.2,13.7,30.17,NNE,22,4.9,4.9,12,0.00,,---,0.00,VWS V14.01,2013-02-09 16:51:00,
2013-02-09 11:52:00,68.0,13.5,30.17,NNE,26,4.0,6.3,12,0.00,,---,0.00,VWS V14.01,2013-02-09 16:52:00,
2013-02-09 11:53:00,68.2,13.7,30.17,North,4,3.1,4.0,12,0.00,,---,0.00,VWS V14.01,2013-02-09 16:53:00,
2013-02-09 11:54:00,68.0,13.5,30.17,NE,46,0.0,5.8,12,0.00,,---,0.00,VWS V14.01,2013-02-09 16:54:00,
2013-02-09 11:55:00,68.2,13.7,30.17,NE,49,0.0,0.0,12,0.00,,---,0.00,VWS V14.01,2013-02-09 16:55:00,
2013-02-09 11:56:00,68.2,13.7,30.17,NNE,20,0.0,0.0,12,0.00,,---,0.00,VWS V14.01,2013-02-09 16:56:00,
2013-02-09 11:57:00,68.2,13.7,30.17,ENE,62,2.2,5.4,12,0.00,,---,0.00,VWS V14.01,2013-02-09 16:57:00,
2013-02-09 11:58:00,68.4,13.8,30.17,NE,51,0.0,2.2,12,0.00,,---,0.00,VWS V14.01,2013-02-09 16:58:00,
2013-02-09 11:59:00,68.4,13.8,30.17,NE,54,0.0,5.4,12,0.00,,---,0.00,VWS V14.01,2013-02-09 16:59:00,
2013-02-09 12:00:00,68.4,13.8,30.17,NE,35,3.1,3.6,12,0.00,,---,0.00,VWS V14.01,2013-02-09 17:00:00,
2013-02-09 12:01:00,68.5,13.9,30.17,NNE,26,0.0,3.1,12,0.00,,---,0.00,VWS V14.01,2013-02-09 17:01:00,
2013-02-09 12:02:00,68.5,13.9,30.17,NE,35,4.0,4.0,12,0.00,,---,0.00,VWS V14.01,2013-02-09 17:02:00,
2013-02-09 12:03:00,68.5,13.9,30.17,North,357,4.9,4.9,12,0.00,,---,0.00,VWS V14.01,2013-02-09 17:03:00,
2013-02-09 12:04:00,68.5,13.9,30.17,NNE,13,3.6,4.9,12,0.00,,---,0.00,VWS V14.01,2013-02-09 17:04:00,
2013-02-09 12:05:00,68.5,13.9,30.17,NNE,21,2.2,3.6,12,0.00,,---,0.00,VWS V14.01,2013-02-09 17:05:00,
2013-02-09 12:06:00,68.5,13.9,30.17,NNE,23,2.2,3.6,12,0.00,,---,0.00,VWS V14.01,2013-02-09 17:06:00,
2013-02-09 12:07:00,68.5,13.9,30.17,NNW,332,2.7,4.0,12,0.00,,---,0.00,VWS V14.01,2013-02-09 17:07:00,
2013-02-09 12:08:00,68.7,14.1,30.17,North,353,2.7,3.6,12,0.00,,---,0.00,VWS V14.01,2013-02-09 17:08:00,
2013-02-09 12:09:00,68.7,14.1,30.17,NNW,333,0.0,3.6,12,0.00,,---,0.00,VWS V14.01,2013-02-09 17:09:00,
2013-02-09 12:10:00,68.9,14.2,30.17,North,8,0.0,0.0,12,0.00,,---,0.00,VWS V14.01,2013-02-09 17:10:00,
2013-02-09 12:11:00,68.9,14.2,30.17,ENE,69,0.0,0.0,12,0.00,,---,0.00,VWS V14.01,2013-02-09 17:11:00,
2013-02-09 12:12:00,68.9,14.2,30.17,NNE,17,2.7,3.1,12,0.00,,---,0.00,VWS V14.01,2013-02-09 17:12:00,
2013-02-09 12:13:00,69.1,14.4,30.17,NNE,17,0.0,2.7,12,0.00,,---,0.00,VWS V14.01,2013-02-09 17:13:00,
2013-02-09 12:14:00,69.1,14.4,30.17,NE,34,0.0,0.0,12,0.00,,---,0.00,VWS V14.01,2013-02-09 17:14:00,
2013-02-09 12:15:00,69.3,14.5,30.17,ESE,102,0.0,0.0,12,0.00,,---,0.00,VWS V14.01,2013-02-09 17:15:00,
2013-02-09 12:16:00,69.4,14.6,30.17,NNE,18,4.0,4.0,12,0.00,,---,0.00,VWS V14.01,2013-02-09 17:16:00,
2013-02-09 12:17:00,69.4,14.6,30.17,NE,46,3.6,4.0,12,0.00,,---,0.00,VWS V14.01,2013-02-09 17:17:00,
2013-02-09 12:18:00,69.4,14.6,30.17,NE,46,3.6,3.6,12,0.00,,---,0.00,VWS V14.01,2013-02-09 17:18:00,
2013-02-09 12:19:00,69.4,14.6,30.17,NNE,27,3.1,4.9,12,0.00,,---,0.00,VWS V14.01,2013-02-09 17:19:00,
2013-02-09 12:20:00,69.4,14.6,30.17,NE,41,3.1,3.1,12,0.00,,---,0.00,VWS V14.01,2013-02-09 17:20:00,
2013-02-09 12:21:00,69.4,14.6,30.17,NNE,32,3.1,3.1,12,0.00,,---,0.00,VWS V14.01,2013-02-09 17:21:00,
2013-02-09 12:22:00,69.1,14.4,30.17,ENE,63,4.9,6.3,12,0.00,,---,0.00,VWS V14.01,2013-02-09 17:22:00,
2013-02-09 12:23:00,69.3,14.5,30.17,NNE,33,3.1,4.9,12,0.00,,---,0.00,VWS V14.01,2013-02-09 17:23:00,
2013-02-09 12:24:00,69.1,14.4,30.17,NE,38,2.7,3.1,12,0.00,,---,0.00,VWS V14.01,2013-02-09 17:24:00,
2013-02-09 12:25:00,69.3,14.5,30.17,NNE,28,2.2,2.7,12,0.00,,---,0.00,VWS V14.01,2013-02-09 17:25:00,
2013-02-09 12:26:00,69.3,14.5,30.17,NNE,28,0.0,2.2,12,0.00,,---,0.00,VWS V14.01,2013-02-09 17:26:00,
2013-02-09 12:27:00,69.3,14.5,30.17,North,9,3.6,3.6,12,0.00,,---,0.00,VWS V14.01,2013-02-09 17:27:00,
2013-02-09 12:28:00,69.4,14.6,30.17,NNW,335,4.0,4.0,12,0.00,,---,0.00,VWS V14.01,2013-02-09 17:28:00,
2013-02-09 12:29:00,69.6,14.8,30.17,NNE,32,3.6,4.0,12,0.00,,---,0.00,VWS V14.01,2013-02-09 17:29:00,
2013-02-09 12:30:00,69.6,14.8,30.17,NNE,31,2.7,3.6,12,0.00,,---,0.00,VWS V14.01,2013-02-09 17:30:00,
2013-02-09 12:31:00,69.8,14.9,30.17,ENE,72,0.0,2.7,12,0.00,,---,0.00,VWS V14.01,2013-02-09 17:31:00,
2013-02-09 12:32:00,70.0,15.1,30.17,ENE,72,0.0,0.0,12,0.00,,---,0.00,VWS V14.01,2013-02-09 17:32:00,
2013-02-09 12:33:00,70.2,15.2,30.17,ESE,102,0.0,0.0,12,0.00,,---,0.00,VWS V14.01,2013-02-09 17:33:00,
2013-02-09 12:34:00,70.3,15.4,30.17,NNE,27,2.7,2.7,12,0.00,,---,0.00,VWS V14.01,2013-02-09 17:34:00,
2013-02-09 12:35:00,70.3,15.4,30.17,North,0,0.0,3.1,12,0.00,,---,0.00,VWS V14.01,2013-02-09 17:35:00,
2013-02-09 12:36:00,70.5,15.5,30.17,ESE,105,0.0,0.0,12,0.00,,---,0.00,VWS V14.01,2013-02-09 17:36:00,
2013-02-09 12:37:00,70.5,15.5,30.17,NNE,17,2.7,4.0,12,0.00,,---,0.00,VWS V14.01,2013-02-09 17:37:00,
2013-02-09 12:38:00,70.5,15.5,30.17,NNE,31,2.2,4.0,12,0.00,,---,0.00,VWS V14.01,2013-02-09 17:38:00,
2013-02-09 12:39:00,70.5,15.5,30.17,NNE,32,0.0,3.1,12,0.00,,---,0.00,VWS V14.01,2013-02-09 17:39:00,
2013-02-09 12:40:00,70.5,15.5,30.17,NE,51,0.0,0.0,12,0.00,,---,0.00,VWS V14.01,2013-02-09 17:40:00,
2013-02-09 12:41:00,70.5,15.5,30.17,NNE,17,0.0,4.0,12,0.00,,---,0.00,VWS V14.01,2013-02-09 17:41:00,
2013-02-09 12:42:00,70.5,15.5,30.17,East,97,0.0,0.0,12,0.00,,---,0.00,VWS V14.01,2013-02-09 17:42:00,
2013-02-09 12:43:00,70.7,15.6,30.17,East,97,0.0,0.0,12,0.00,,---,0.00,VWS V14.01,2013-02-09 17:43:00,
2013-02-09 12:44:00,70.9,15.8,30.17,ESE,116,0.0,0.0,12,0.00,,---,0.00,VWS V14.01,2013-02-09 17:44:00,
2013-02-09 12:45:00,70.9,15.8,30.17,NNE,30,2.7,3.6,12,0.00,,---,0.00,VWS V14.01,2013-02-09 17:45:00,
2013-02-09 12:46:00,70.9,15.8,30.17,North,0,0.0,3.6,12,0.00,,---,0.00,VWS V14.01,2013-02-09 17:46:00,
2013-02-09 12:47:00,71.1,15.9,30.17,East,86,0.0,0.0,12,0.00,,---,0.00,VWS V14.01,2013-02-09 17:47:00,
2013-02-09 12:48:00,71.1,15.9,30.17,NE,49,0.0,0.0,12,0.00,,---,0.00,VWS V14.01,2013-02-09 17:48:00,
2013-02-09 12:49:00,71.1,15.9,30.17,ENE,73,0.0,3.6,12,0.00,,---,0.00,VWS V14.01,2013-02-09 17:49:00,
2013-02-09 12:50:00,71.2,16.1,30.17,ESE,109,0.0,0.0,12,0.00,,---,0.00,VWS V14.01,2013-02-09 17:50:00,
2013-02-09 12:51:00,71.2,16.1,30.17,East,85,0.0,0.0,12,0.00,,---,0.00,VWS V14.01,2013-02-09 17:51:00,
2013-02-09 12:52:00,71.4,16.2,30.17,East,85,0.0,0.0,12,0.00,,---,0.00,VWS V14.01,2013-02-09 17:52:00,
2013-02-09 12:53:00,71.6,14.4,30.17,NE,35,0.0,0.0,11,0.00,,---,0.00,VWS V14.01,2013-02-09 17:53:00,
2013-02-09 12:54:00,71.6,14.4,30.17,East,82,0.0,0.0,11,0.00,,---,0.00,VWS V14.01,2013-02-09 17:54:00,
2013-02-09 12:55:00,71.8,14.5,30.17,East,81,0.0,0.0,11,0.00,,---,0.00,VWS V14.01,2013-02-09 17:55:00,
2013-02-09 12:56:00,72.0,14.6,30.17,ESE,114,2.7,2.7,11,0.00,,---,0.00,VWS V14.01,2013-02-09 17:56:00,
2013-02-09 12:57:00,72.1,14.8,30.17,NNE,27,0.0,2.7,11,0.00,,---,0.00,VWS V14.01,2013-02-09 17:57:00,
2013-02-09 12:58:00,72.1,14.8,30.17,NE,43,0.0,0.0,11,0.00,,---,0.00,VWS V14.01,2013-02-09 17:58:00,
2013-02-09 12:59:00,72.3,14.9,30.17,ESE,120,0.0,0.0,11,0.00,,---,0.00,VWS V14.01,2013-02-09 17:59:00,
2013-02-09 13:00:00,72.3,14.9,30.17,NNE,33,2.7,2.7,11,0.00,,---,0.00,VWS V14.01,2013-02-09 18:00:00,
2013-02-09 13:01:00,72.1,14.8,30.17,NNW,339,3.6,3.6,11,0.00,,---,0.00,VWS V14.01,2013-02-09 18:01:00,
2013-02-09 13:02:00,72.3,14.9,30.17,East,81,0.0,3.6,11,0.00,,---,0.00,VWS V14.01,2013-02-09 18:02:00,
2013-02-09 13:03:00,72.3,14.9,30.17,NNE,25,0.0,2.7,11,0.00,,---,0.00,VWS V14.01,2013-02-09 18:03:00,
2013-02-09 13:04:00,72.3,14.9,30.17,NNE,32,0.0,0.0,11,0.00,,---,0.00,VWS V14.01,2013-02-09 18:04:00,
2013-02-09 13:05:00,72.5,15.0,30.17,East,101,0.0,0.0,11,0.00,,---,0.00,VWS V14.01,2013-02-09 18:05:00,
2013-02-09 13:06:00,72.3,14.9,30.17,NE,39,2.2,4.5,11,0.00,,---,0.00,VWS V14.01,2013-02-09 18:06:00,
2013-02-09 13:07:00,72.5,15.0,30.17,East,85,0.0,2.2,11,0.00,,---,0.00,VWS V14.01,2013-02-09 18:07:00,
2013-02-09 13:08:00,72.7,15.2,30.14,East,85,0.0,0.0,11,0.00,,---,0.00,VWS V14.01,2013-02-09 18:08:00,
2013-02-09 13:09:00,72.7,15.2,30.14,East,85,0.0,0.0,11,0.00,,---,0.00,VWS V14.01,2013-02-09 18:09:00,
2013-02-09 13:10:00,72.9,15.3,30.14,East,85,0.0,0.0,11,0.00,,---,0.00,VWS V14.01,2013-02-09 18:10:00,
2013-02-09 13:11:00,72.9,15.3,30.14,NE,35,3.6,3.6,11,0.00,,---,0.00,VWS V14.01,2013-02-09 18:11:00,
2013-02-09 13:12:00,72.9,15.3,30.14,NE,37,2.7,3.6,11,0.00,,---,0.00,VWS V14.01,2013-02-09 18:12:00,
2013-02-09 13:13:00,72.9,15.3,30.14,ENE,74,0.0,2.7,11,0.00,,---,0.00,VWS V14.01,2013-02-09 18:13:00,
2013-02-09 13:14:00,73.0,15.5,30.14,NE,37,3.6,3.6,11,0.00,,---,0.00,VWS V14.01,2013-02-09 18:14:00,
2013-02-09 13:15:00,73.0,15.5,30.14,NNW,348,2.7,3.6,11,0.00,,---,0.00,VWS V14.01,2013-02-09 18:15:00,
2013-02-09 13:16:00,73.0,15.5,30.14,NNE,32,3.6,3.6,11,0.00,,---,0.00,VWS V14.01,2013-02-09 18:16:00,
2013-02-09 13:17:00,72.9,15.3,30.14,ENE,75,0.0,3.6,11,0.00,,---,0.00,VWS V14.01,2013-02-09 18:17:00,
2013-02-09 13:18:00,72.9,15.3,30.14,North,357,0.0,4.0,11,0.00,,---,0.00,VWS V14.01,2013-02-09 18:18:00,
2013-02-09 13:19:00,73.0,15.5,30.14,North,357,0.0,0.0,11,0.00,,---,0.00,VWS V14.01,2013-02-09 18:19:00,
2013-02-09 13:20:00,73.0,15.5,30.14,North,357,0.0,0.0,11,0.00,,---,0.00,VWS V14.01,2013-02-09 18:20:00,
2013-02-09 13:21:00,73.0,15.5,30.14,ENE,60,0.0,0.0,11,0.00,,---,0.00,VWS V14.01,2013-02-09 18:21:00,
2013-02-09 13:22:00,73.2,15.6,30.14,ENE,60,0.0,0.0,11,0.00,,---,0.00,VWS V14.01,2013-02-09 18:22:00,
2013-02-09 13:23:00,73.4,15.7,30.14,South,172,0.0,0.0,11,0.00,,---,0.00,VWS V14.01,2013-02-09 18:23:00,
2013-02-09 13:24:00,73.6,15.9,30.14,SE,145,0.0,0.0,11,0.00,,---,0.00,VWS V14.01,2013-02-09 18:24:00,
2013-02-09 13:25:00,73.6,15.9,30.14,SE,143,0.0,0.0,11,0.00,,---,0.00,VWS V14.01,2013-02-09 18:25:00,
2013-02-09 13:26:00,73.8,16.0,30.14,ESE,121,0.0,0.0,11,0.00,,---,0.00,VWS V14.01,2013-02-09 18:26:00,
2013-02-09 13:27:00,73.9,16.1,30.14,ESE,103,0.0,0.0,11,0.00,,---,0.00,VWS V14.01,2013-02-09 18:27:00,
2013-02-09 13:28:00,74.1,16.3,30.14,East,100,0.0,0.0,11,0.00,,---,0.00,VWS V14.01,2013-02-09 18:28:00,
2013-02-09 13:29:00,74.3,16.4,30.14,NNW,335,0.0,0.0,11,0.00,,---,0.00,VWS V14.01,2013-02-09 18:29:00,
2013-02-09 13:30:00,74.3,16.4,30.14,NW,322,0.0,2.2,11,0.00,,---,0.00,VWS V14.01,2013-02-09 18:30:00,
2013-02-09 13:31:00,74.5,16.6,30.14,NNW,345,2.2,2.7,11,0.00,,---,0.00,VWS V14.01,2013-02-09 18:31:00,
2013-02-09 13:32:00,74.3,16.4,30.14,East,88,0.0,2.2,11,0.00,,---,0.00,VWS V14.01,2013-02-09 18:32:00,
2013-02-09 13:33:00,74.1,16.3,30.14,NNE,29,2.2,3.1,11,0.00,,---,0.00,VWS V14.01,2013-02-09 18:33:00,
2013-02-09 13:34:00,74.1,16.3,30.14,NNE,32,2.7,4.0,11,0.00,,---,0.00,VWS V14.01,2013-02-09 18:34:00,
2013-02-09 13:35:00,74.1,16.3,30.14,NNE,33,3.6,3.6,11,0.00,,---,0.00,VWS V14.01,2013-02-09 18:35:00,
2013-02-09 13:36:00,73.9,16.1,30.14,NNE,33,0.0,3.6,11,0.00,,---,0.00,VWS V14.01,2013-02-09 18:36:00,
2013-02-09 13:37:00,74.1,16.3,30.14,NNE,25,3.6,3.6,11,0.00,,---,0.00,VWS V14.01,2013-02-09 18:37:00,
2013-02-09 13:38:00,74.1,16.3,30.14,North,353,3.6,3.6,11,0.00,,---,0.00,VWS V14.01,2013-02-09 18:38:00,
2013-02-09 13:39:00,74.1,16.3,30.14,NNE,12,3.1,3.6,11,0.00,,---,0.00,VWS V14.01,2013-02-09 18:39:00,
2013-02-09 13:40:00,74.1,16.3,30.14,NNE,12,2.7,3.1,11,0.00,,---,0.00,VWS V14.01,2013-02-09 18:40:00,
2013-02-09 13:41:00,74.3,16.4,30.14,NNE,12,0.0,2.7,11,0.00,,---,0.00,VWS V14.01,2013-02-09 18:41:00,
2013-02-09 13:42:00,74.5,16.6,30.14,SE,130,0.0,0.0,11,0.00,,---,0.00,VWS V14.01,2013-02-09 18:42:00,
2013-02-09 13:43:00,74.5,16.6,30.14,SE,130,0.0,0.0,11,0.00,,---,0.00,VWS V14.01,2013-02-09 18:43:00,
2013-02-09 13:44:00,74.7,16.7,30.14,NW,311,0.0,0.0,11,0.00,,---,0.00,VWS V14.01,2013-02-09 18:44:00,
2013-02-09 13:45:00,74.3,16.4,30.14,NNE,22,4.0,6.3,11,0.00,,---,0.00,VWS V14.01,2013-02-09 18:45:00,
2013-02-09 13:46:00,74.3,16.4,30.14,NNE,26,2.7,4.0,11,0.00,,---,0.00,VWS V14.01,2013-02-09 18:46:00,
2013-02-09 13:47:00,74.3,16.4,30.14,North,11,3.6,3.6,11,0.00,,---,0.00,VWS V14.01,2013-02-09 18:47:00,
2013-02-09 13:48:00,74.1,16.3,30.14,NNE,31,3.6,3.6,11,0.00,,---,0.00,VWS V14.01,2013-02-09 18:48:00,
2013-02-09 13:49:00,74.1,16.3,30.14,North,357,3.6,4.0,11,0.00,,---,0.00,VWS V14.01,2013-02-09 18:49:00,
2013-02-09 13:50:00,74.1,16.3,30.14,NNE,31,2.7,3.6,11,0.00,,---,0.00,VWS V14.01,2013-02-09 18:50:00,
2013-02-09 13:51:00,73.9,16.1,30.14,North,2,2.2,3.6,11,0.00,,---,0.00,VWS V14.01,2013-02-09 18:51:00,
2013-02-09 13:52:00,73.9,16.1,30.14,North,0,0.0,2.2,11,0.00,,---,0.00,VWS V14.01,2013-02-09 18:52:00,
2013-02-09 13:53:00,74.3,16.4,30.14,North,0,0.0,0.0,11,0.00,,---,0.00,VWS V14.01,2013-02-09 18:53:00,
2013-02-09 13:54:00,74.5,16.6,30.14,North,3,0.0,0.0,11,0.00,,---,0.00,VWS V14.01,2013-02-09 18:54:00,
2013-02-09 13:55:00,74.8,16.9,30.14,North,3,0.0,0.0,11,0.00,,---,0.00,VWS V14.01,2013-02-09 18:55:00,
2013-02-09 13:56:00,75.0,17.0,30.14,NNW,335,0.0,0.0,11,0.00,,---,0.00,VWS V14.01,2013-02-09 18:56:00,
2013-02-09 13:57:00,75.2,14.9,30.14,NNW,343,0.0,0.0,10,0.00,,---,0.00,VWS V14.01,2013-02-09 18:57:00,
2013-02-09 13:58:00,75.4,15.1,30.14,South,171,0.0,0.0,10,0.00,,---,0.00,VWS V14.01,2013-02-09 18:58:00,
2013-02-09 13:59:00,75.6,15.2,30.14,NNW,343,3.1,3.1,10,0.00,,---,0.00,VWS V14.01,2013-02-09 18:59:00,
2013-02-09 14:00:00,75.6,15.2,30.14,NNW,334,0.0,3.1,10,0.00,,---,0.00,VWS V14.01,2013-02-09 19:00:00,
2013-02-09 14:01:00,75.7,15.4,30.14,NNW,345,0.0,0.0,10,0.00,,---,0.00,VWS V14.01,2013-02-09 19:01:00,
2013-02-09 14:02:00,75.9,15.5,30.14,NE,34,0.0,0.0,10,0.00,,---,0.00,VWS V14.01,2013-02-09 19:02:00,
2013-02-09 14:03:00,75.7,15.4,30.14,ENE,62,0.0,0.0,10,0.00,,---,0.00,VWS V14.01,2013-02-09 19:03:00,
2013-02-09 14:04:00,75.6,15.2,30.14,ENE,67,3.6,3.6,10,0.00,,---,0.00,VWS V14.01,2013-02-09 19:04:00,
2013-02-09 14:05:00,75.4,15.1,30.14,North,0,2.7,4.9,10,0.00,,---,0.00,VWS V14.01,2013-02-09 19:05:00,
2013-02-09 14:06:00,75.4,15.1,30.14,NNE,32,3.1,3.6,10,0.00,,---,0.00,VWS V14.01,2013-02-09 19:06:00,
2013-02-09 14:07:00,75.6,15.2,30.14,NNE,30,2.7,3.1,10,0.00,,---,0.00,VWS V14.01,2013-02-09 19:07:00,
2013-02-09 14:08:00,75.6,15.2,30.14,NNE,31,0.0,4.9,10,0.00,,---,0.00,VWS V14.01,2013-02-09 19:08:00,
2013-02-09 14:09:00,75.6,15.2,30.14,NNE,22,0.0,0.0,10,0.00,,---,0.00,VWS V14.01,2013-02-09 19:09:00,
2013-02-09 14:10:00,75.2,14.9,30.14,NNE,25,4.0,4.0,10,0.00,,---,0.00,VWS V14.01,2013-02-09 19:10:00,
2013-02-09 14:11:00,75.6,15.2,30.14,NNE,14,3.1,4.0,10,0.00,,---,0.00,VWS V14.01,2013-02-09 19:11:00,
2013-02-09 14:12:00,75.4,15.1,30.14,East,93,0.0,3.6,10,0.00,,---,0.00,VWS V14.01,2013-02-09 19:12:00,
2013-02-09 14:13:00,75.7,15.4,30.14,ESE,120,2.7,3.1,10,0.00,,---,0.00,VWS V14.01,2013-02-09 19:13:00,
2013-02-09 14:14:00,75.9,10.4,30.14,WSW,251,0.0,3.1,8,0.00,,---,0.00,VWS V14.01,2013-02-09 19:14:00,
2013-02-09 14:15:00,76.1,15.6,30.14,North,353,0.0,3.1,10,0.00,,---,0.00,VWS V14.01,2013-02-09 19:15:00,
2013-02-09 14:16:00,76.3,15.8,30.14,NNE,14,4.0,4.0,10,0.00,,---,0.00,VWS V14.01,2013-02-09 19:16:00,
2013-02-09 14:17:00,75.7,15.4,30.14,NNE,16,3.6,5.8,10,0.00,,---,0.00,VWS V14.01,2013-02-09 19:17:00,
2013-02-09 14:18:00,75.7,15.4,30.14,NNW,330,2.2,3.6,10,0.00,,---,0.00,VWS V14.01,2013-02-09 19:18:00,
2013-02-09 14:19:00,76.1,15.6,30.14,WNW,300,0.0,2.2,10,0.00,,---,0.00,VWS V14.01,2013-02-09 19:19:00,
2013-02-09 14:20:00,75.7,15.4,30.14,NE,46,0.0,0.0,10,0.00,,---,0.00,VWS V14.01,2013-02-09 19:20:00,
2013-02-09 14:21:00,75.9,15.5,30.14,NE,46,0.0,0.0,10,0.00,,---,0.00,VWS V14.01,2013-02-09 19:21:00,
2013-02-09 14:22:00,75.6,15.2,30.14,North,353,4.0,4.0,10,0.00,,---,0.00,VWS V14.01,2013-02-09 19:22:00,
2013-02-09 14:23:00,75.9,15.5,30.14,North,357,3.1,4.0,10,0.00,,---,0.00,VWS V14.01,2013-02-09 19:23:00,
2013-02-09 14:24:00,76.1,15.6,30.14,North,0,0.0,3.1,10,0.00,,---,0.00,VWS V14.01,2013-02-09 19:24:00,
2013-02-09 14:25:00,76.1,15.6,30.14,North,0,0.0,0.0,10,0.00,,---,0.00,VWS V14.01,2013-02-09 19:25:00,
2013-02-09 14:26:00,76.3,15.8,30.14,North,0,0.0,0.0,10,0.00,,---,0.00,VWS V14.01,2013-02-09 19:26:00,
2013-02-09 14:27:00,76.5,15.9,30.14,North,0,0.0,0.0,10,0.00,,---,0.00,VWS V14.01,2013-02-09 19:27:00,
2013-02-09 14:28:00,76.6,16.0,30.14,North,0,0.0,0.0,10,0.00,,---,0.00,VWS V14.01,2013-02-09 19:28:00,
2013-02-09 14:29:00,76.8,16.2,30.14,North,0,0.0,0.0,10,0.00,,---,0.00,VWS V14.01,2013-02-09 19:29:00,
2013-02-09 14:30:00,77.2,16.5,30.14,North,0,0.0,0.0,10,0.00,,---,0.00,VWS V14.01,2013-02-09 19:30:00,
2013-02-09 14:31:00,77.4,16.6,30.14,North,0,0.0,0.0,10,0.00,,---,0.00,VWS V14.01,2013-02-09 19:31:00,
2013-02-09 14:32:00,77.7,16.9,30.14,North,1,0.0,0.0,10,0.00,,---,0.00,VWS V14.01,2013-02-09 19:32:00,
2013-02-09 14:33:00,77.9,17.0,30.14,NNE,30,4.0,4.0,10,0.00,,---,0.00,VWS V14.01,2013-02-09 19:33:00,
2013-02-09 14:34:00,77.9,17.0,30.14,ESE,123,2.7,4.0,10,0.00,,---,0.00,VWS V14.01,2013-02-09 19:34:00,
2013-02-09 14:35:00,78.1,17.1,30.14,SE,124,0.0,3.1,10,0.00,,---,0.00,VWS V14.01,2013-02-09 19:35:00,
2013-02-09 14:36:00,78.3,17.3,30.14,SE,136,0.0,0.0,10,0.00,,---,0.00,VWS V14.01,2013-02-09 19:36:00,
2013-02-09 14:37:00,78.4,17.4,30.14,SE,135,0.0,0.0,10,0.00,,---,0.00,VWS V14.01,2013-02-09 19:37:00,
2013-02-09 14:38:00,78.6,17.5,30.14,NE,39,0.0,0.0,10,0.00,,---,0.00,VWS V14.01,2013-02-09 19:38:00,
2013-02-09 14:39:00,78.6,17.5,30.11,NNE,14,2.2,2.7,10,0.00,,---,0.00,VWS V14.01,2013-02-09 19:39:00,
2013-02-09 14:40:00,78.6,17.5,30.11,NNE,14,0.0,2.7,10,0.00,,---,0.00,VWS V14.01,2013-02-09 19:40:00,
2013-02-09 14:41:00,78.4,17.4,30.11,NE,38,5.8,7.2,10,0.00,,---,0.00,VWS V14.01,2013-02-09 19:41:00,
2013-02-09 14:42:00,78.4,17.4,30.11,WNW,300,0.0,5.8,10,0.00,,---,0.00,VWS V14.01,2013-02-09 19:42:00,
2013-02-09 14:43:00,78.4,17.4,30.11,WNW,300,0.0,0.0,10,0.00,,---,0.00,VWS V14.01,2013-02-09 19:43:00,
2013-02-09 14:44:00,78.4,17.4,30.11,WNW,298,0.0,0.0,10,0.00,,---,0.00,VWS V14.01,2013-02-09 19:44:00,
2013-02-09 14:45:00,78.6,17.5,30.11,WNW,295,0.0,0.0,10,0.00,,---,0.00,VWS V14.01,2013-02-09 19:45:00,
2013-02-09 14:46:00,79.0,17.8,30.11,SE,124,0.0,0.0,10,0.00,,---,0.00,VWS V14.01,2013-02-09 19:46:00,
2013-02-09 14:47:00,79.0,17.8,30.11,SSW,198,0.0,4.0,10,0.00,,---,0.00,VWS V14.01,2013-02-09 19:47:00,
2013-02-09 14:48:00,79.3,18.1,30.11,SSW,197,0.0,2.2,10,0.00,,---,0.00,VWS V14.01,2013-02-09 19:48:00,
2013-02-09 14:49:00,79.5,18.2,30.11,SSW,198,0.0,0.0,10,0.00,,---,0.00,VWS V14.01,2013-02-09 19:49:00,
2013-02-09 14:50:00,79.5,18.2,30.11,SSW,198,0.0,0.0,10,0.00,,---,0.00,VWS V14.01,2013-02-09 19:50:00,
2013-02-09 14:51:00,79.7,18.4,30.11,SSW,197,0.0,0.0,10,0.00,,---,0.00,VWS V14.01,2013-02-09 19:51:00,
2013-02-09 14:52:00,79.7,18.4,30.11,SSW,197,0.0,0.0,10,0.00,,---,0.00,VWS V14.01,2013-02-09 19:52:00,
2013-02-09 14:53:00,79.9,18.5,30.11,SSW,198,0.0,0.0,10,0.00,,---,0.00,VWS V14.01,2013-02-09 19:53:00,
2013-02-09 14:54:00,79.9,18.5,30.11,SSW,197,0.0,0.0,10,0.00,,---,0.00,VWS V14.01,2013-02-09 19:54:00,
2013-02-09 14:55:00,79.9,18.5,30.11,SE,138,2.2,3.1,10,0.00,,---,0.00,VWS V14.01,2013-02-09 19:55:00,
2013-02-09 14:56:00,80.1,18.6,30.11,SSE,149,0.0,2.7,10,0.00,,---,0.00,VWS V14.01,2013-02-09 19:56:00,
2013-02-09 14:57:00,80.1,18.6,30.11,SE,133,0.0,0.0,10,0.00,,---,0.00,VWS V14.01,2013-02-09 19:57:00,
2013-02-09 14:58:00,80.1,18.6,30.11,SE,143,0.0,0.0,10,0.00,,---,0.00,VWS V14.01,2013-02-09 19:58:00,
2013-02-09 14:59:00,80.2,18.8,30.11,SE,139,0.0,0.0,10,0.00,,---,0.00,VWS V14.01,2013-02-09 19:59:00,
2013-02-09 15:00:00,80.2,18.8,30.11,ESE,102,0.0,0.0,10,0.00,,---,0.00,VWS V14.01,2013-02-09 20:00:00,
2013-02-09 15:01:00,80.2,18.8,30.11,NNE,15,0.0,0.0,10,0.00,,---,0.00,VWS V14.01,2013-02-09 20:01:00,
2013-02-09 15:02:00,80.1,18.6,30.11,NE,44,2.7,3.1,10,0.00,,---,0.00,VWS V14.01,2013-02-09 20:02:00,
2013-02-09 15:03:00,79.9,18.5,30.11,NNE,27,0.0,2.7,10,0.00,,---,0.00,VWS V14.01,2013-02-09 20:03:00,
2013-02-09 15:04:00,79.7,18.4,30.11,NNE,27,0.0,0.0,10,0.00,,---,0.00,VWS V14.01,2013-02-09 20:04:00,
2013-02-09 15:05:00,79.7,18.4,30.11,NNE,24,2.7,2.7,10,0.00,,---,0.00,VWS V14.01,2013-02-09 20:05:00,
2013-02-09 15:06:00,79.5,18.2,30.11,NE,55,0.0,3.1,10,0.00,,---,0.00,VWS V14.01,2013-02-09 20:06:00,
2013-02-09 15:07:00,79.2,18.0,30.11,NE,55,0.0,0.0,10,0.00,,---,0.00,VWS V14.01,2013-02-09 20:07:00,
2013-02-09 15:08:00,79.3,18.1,30.11,NE,51,0.0,0.0,10,0.00,,---,0.00,VWS V14.01,2013-02-09 20:08:00,
2013-02-09 15:09:00,79.3,18.1,30.11,NNW,333,2.2,2.2,10,0.00,,---,0.00,VWS V14.01,2013-02-09 20:09:00,
2013-02-09 15:10:00,78.8,17.7,30.11,NE,34,2.7,2.7,10,0.00,,---,0.00,VWS V14.01,2013-02-09 20:10:00,
2013-02-09 15:11:00,79.0,17.8,30.11,NE,37,2.7,4.9,10,0.00,,---,0.00,VWS V14.01,2013-02-09 20:11:00,
2013-02-09 15:12:00,78.8,17.7,30.11,NE,39,0.0,3.6,10,0.00,,---,0.00,VWS V14.01,2013-02-09 20:12:00,
2013-02-09 15:13:00,78.6,17.5,30.11,ESE,109,0.0,0.0,10,0.00,,---,0.00,VWS V14.01,2013-02-09 20:13:00,
2013-02-09 15:14:00,78.8,17.7,30.11,SE,124,2.2,2.2,10,0.00,,---,0.00,VWS V14.01,2013-02-09 20:14:00,
2013-02-09 15:15:00,78.8,17.7,30.11,NNE,21,0.0,3.1,10,0.00,,---,0.00,VWS V14.01,2013-02-09 20:15:00,
2013-02-09 15:16:00,78.8,17.7,30.11,NE,42,0.0,0.0,10,0.00,,---,0.00,VWS V14.01,2013-02-09 20:16:00,
2013-02-09 15:17:00,78.8,17.7,30.11,SE,128,0.0,0.0,10,0.00,,---,0.00,VWS V14.01,2013-02-09 20:17:00,
2013-02-09 15:18:00,78.8,17.7,30.11,SE,129,0.0,0.0,10,0.00,,---,0.00,VWS V14.01,2013-02-09 20:18:00,
2013-02-09 15:19:00,78.8,17.7,30.11,North,0,0.0,0.0,10,0.00,,---,0.00,VWS V14.01,2013-02-09 20:19:00,
2013-02-09 15:20:00,78.8,17.7,30.11,ENE,77,0.0,0.0,10,0.00,,---,0.00,VWS V14.01,2013-02-09 20:20:00,
2013-02-09 15:21:00,78.6,17.5,30.11,East,87,0.0,0.0,10,0.00,,---,0.00,VWS V14.01,2013-02-09 20:21:00,
2013-02-09 15:22:00,78.6,17.5,30.11,East,87,0.0,0.0,10,0.00,,---,0.00,VWS V14.01,2013-02-09 20:22:00,
2013-02-09 15:23:00,78.6,17.5,30.11,ENE,58,0.0,0.0,10,0.00,,---,0.00,VWS V14.01,2013-02-09 20:23:00,
2013-02-09 15:24:00,78.6,17.5,30.11,ENE,58,0.0,0.0,10,0.00,,---,0.00,VWS V14.01,2013-02-09 20:24:00,
2013-02-09 15:25:00,78.6,17.5,30.11,ENE,58,0.0,0.0,10,0.00,,---,0.00,VWS V14.01,2013-02-09 20:25:00,
2013-02-09 15:26:00,78.6,17.5,30.11,ENE,58,0.0,0.0,10,0.00,,---,0.00,VWS V14.01,2013-02-09 20:26:00,
2013-02-09 15:27:00,78.6,17.5,30.11,East,83,0.0,0.0,10,0.00,,---,0.00,VWS V14.01,2013-02-09 20:27:00,
2013-02-09 15:28:00,78.6,17.5,30.11,SSE,157,0.0,0.0,10,0.00,,---,0.00,VWS V14.01,2013-02-09 20:28:00,
2013-02-09 15:29:00,78.6,17.5,30.11,SE,144,0.0,0.0,10,0.00,,---,0.00,VWS V14.01,2013-02-09 20:29:00,
2013-02-09 15:30:00,78.6,17.5,30.11,East,81,0.0,0.0,10,0.00,,---,0.00,VWS V14.01,2013-02-09 20:30:00,
2013-02-09 15:31:00,78.6,17.5,30.11,NNE,21,0.0,0.0,10,0.00,,---,0.00,VWS V14.01,2013-02-09 20:31:00,
2013-02-09 15:32:00,78.4,17.4,30.11,NNE,20,0.0,0.0,10,0.00,,---,0.00,VWS V14.01,2013-02-09 20:32:00,
2013-02-09 15:33:00,78.3,17.3,30.11,NNE,20,0.0,0.0,10,0.00,,---,0.00,VWS V14.01,2013-02-09 20:33:00,
2013-02-09 15:34:00,78.1,17.1,30.11,NNE,20,0.0,0.0,10,0.00,,---,0.00,VWS V14.01,2013-02-09 20:34:00,
2013-02-09 15:35:00,77.9,17.0,30.11,NNE,20,0.0,0.0,10,0.00,,---,0.00,VWS V14.01,2013-02-09 20:35:00,
2013-02-09 15:36:00,77.9,11.9,30.11,NNE,20,0.0,0.0,8,0.00,,---,0.00,VWS V14.01,2013-02-09 20:36:00,
2013-02-09 15:37:00,77.9,17.0,30.11,NNE,20,0.0,0.0,10,0.00,,---,0.00,VWS V14.01,2013-02-09 20:37:00,
2013-02-09 15:38:00,77.7,16.9,30.11,NNE,27,0.0,0.0,10,0.00,,---,0.00,VWS V14.01,2013-02-09 20:38:00,
2013-02-09 15:39:00,77.7,16.9,30.11,NNE,30,0.0,0.0,10,0.00,,---,0.00,VWS V14.01,2013-02-09 20:39:00,
2013-02-09 15:40:00,77.9,17.0,30.11,ENE,62,0.0,0.0,10,0.00,,---,0.00,VWS V14.01,2013-02-09 20:40:00,
2013-02-09 15:41:00,77.9,17.0,30.11,SE,132,0.0,0.0,10,0.00,,---,0.00,VWS V14.01,2013-02-09 20:41:00,
2013-02-09 15:42:00,77.9,17.0,30.11,SE,132,0.0,0.0,10,0.00,,---,0.00,VWS V14.01,2013-02-09 20:42:00,
2013-02-09 15:43:00,78.1,12.0,30.11,ESE,116,0.0,0.0,8,0.00,,---,0.00,VWS V14.01,2013-02-09 20:43:00,
2013-02-09 15:44:00,78.3,17.3,30.11,SE,140,2.7,2.7,10,0.00,,---,0.00,VWS V14.01,2013-02-09 20:44:00,
2013-02-09 15:45:00,78.3,17.3,30.11,SSE,152,0.0,2.7,10,0.00,,---,0.00,VWS V14.01,2013-02-09 20:45:00,
2013-02-09 15:46:00,78.1,17.1,30.11,North,357,3.6,3.6,10,0.00,,---,0.00,VWS V14.01,2013-02-09 20:46:00,
2013-02-09 15:47:00,78.1,17.1,30.11,North,357,0.0,3.6,10,0.00,,---,0.00,VWS V14.01,2013-02-09 20:47:00,
2013-02-09 15:48:00,77.9,17.0,30.11,NNE,17,0.0,3.1,10,0.00,,---,0.00,VWS V14.01,2013-02-09 20:48:00,
2013-02-09 15:49:00,77.7,11.8,30.11,NNE,23,0.0,0.0,8,0.00,,---,0.00,VWS V14.01,2013-02-09 20:49:00,
2013-02-09 15:50:00,77.7,11.8,30.11,NE,49,0.0,0.0,8,0.00,,---,0.00,VWS V14.01,2013-02-09 20:50:00,
2013-02-09 15:51:00,77.5,11.6,30.11,NE,37,0.0,0.0,8,0.00,,---,0.00,VWS V14.01,2013-02-09 20:51:00,
2013-02-09 15:52:00,77.5,16.7,30.11,NNE,26,0.0,0.0,10,0.00,,---,0.00,VWS V14.01,2013-02-09 20:52:00,
2013-02-09 15:53:00,77.5,16.7,30.11,NNE,26,0.0,0.0,10,0.00,,---,0.00,VWS V14.01,2013-02-09 20:53:00,
2013-02-09 15:54:00,77.5,16.7,30.11,NNE,26,0.0,0.0,10,0.00,,---,0.00,VWS V14.01,2013-02-09 20:54:00,
2013-02-09 15:55:00,77.5,16.7,30.11,NNE,14,0.0,0.0,10,0.00,,---,0.00,VWS V14.01,2013-02-09 20:55:00,
2013-02-09 15:56:00,77.5,16.7,30.11,NNW,331,3.1,3.1,10,0.00,,---,0.00,VWS V14.01,2013-02-09 20:56:00,
2013-02-09 15:57:00,77.4,16.6,30.11,NNW,332,2.7,3.1,10,0.00,,---,0.00,VWS V14.01,2013-02-09 20:57:00,
2013-02-09 15:58:00,77.4,11.5,30.11,NNE,19,3.1,4.0,8,0.00,,---,0.00,VWS V14.01,2013-02-09 20:58:00,
2013-02-09 15:59:00,77.2,11.4,30.11,NNW,344,3.6,3.6,8,0.00,,---,0.00,VWS V14.01,2013-02-09 20:59:00,
2013-02-09 16:00:00,77.2,11.4,30.11,North,357,0.0,3.6,8,0.00,,---,0.00,VWS V14.01,2013-02-09 21:00:00,
2013-02-09 16:01:00,77.2,11.4,30.11,North,357,0.0,0.0,8,0.00,,---,0.00,VWS V14.01,2013-02-09 21:01:00,
2013-02-09 16:02:00,77.0,11.2,30.11,North,10,3.1,3.1,8,0.00,,---,0.00,VWS V14.01,2013-02-09 21:02:00,
2013-02-09 16:03:00,77.0,11.2,30.11,North,0,0.0,4.9,8,0.00,,---,0.00,VWS V14.01,2013-02-09 21:03:00,
2013-02-09 16:04:00,76.8,11.1,30.11,NNE,13,0.0,0.0,8,0.00,,---,0.00,VWS V14.01,2013-02-09 21:04:00,
2013-02-09 16:05:00,76.8,11.1,30.11,NNE,13,0.0,0.0,8,0.00,,---,0.00,VWS V14.01,2013-02-09 21:05:00,
2013-02-09 16:06:00,76.6,11.0,30.11,North,353,3.6,3.6,8,0.00,,---,0.00,VWS V14.01,2013-02-09 21:06:00,
2013-02-09 16:07:00,76.6,11.0,30.11,NNE,32,2.2,4.0,8,0.00,,---,0.00,VWS V14.01,2013-02-09 21:07:00,
2013-02-09 16:08:00,76.5,10.8,30.11,NNE,32,0.0,2.2,8,0.00,,---,0.00,VWS V14.01,2013-02-09 21:08:00,
2013-02-09 16:09:00,76.5,10.8,30.11,NNE,32,0.0,0.0,8,0.00,,---,0.00,VWS V14.01,2013-02-09 21:09:00,
2013-02-09 16:10:00,76.5,10.8,30.11,NNE,32,0.0,0.0,8,0.00,,---,0.00,VWS V14.01,2013-02-09 21:10:00,
2013-02-09 16:11:00,76.5,10.8,30.11,NNE,27,4.0,4.0,8,0.00,,---,0.00,VWS V14.01,2013-02-09 21:11:00,
2013-02-09 16:12:00,76.3,10.7,30.11,NNE,27,0.0,4.0,8,0.00,,---,0.00,VWS V14.01,2013-02-09 21:12:00,
2013-02-09 16:13:00,76.3,10.7,30.11,NNE,27,0.0,0.0,8,0.00,,---,0.00,VWS V14.01,2013-02-09 21:13:00,
2013-02-09 16:14:00,76.3,10.7,30.11,NNE,27,0.0,0.0,8,0.00,,---,0.00,VWS V14.01,2013-02-09 21:14:00,
2013-02-09 16:15:00,76.3,10.7,30.11,North,0,0.0,0.0,8,0.00,,---,0.00,VWS V14.01,2013-02-09 21:15:00,
2013-02-09 16:16:00,76.3,10.7,30.11,North,0,0.0,0.0,8,0.00,,---,0.00,VWS V14.01,2013-02-09 21:16:00,
2013-02-09 16:17:00,76.3,10.7,30.11,North,357,0.0,0.0,8,0.00,,---,0.00,VWS V14.01,2013-02-09 21:17:00,
2013-02-09 16:18:00,76.5,10.8,30.11,ENE,75,0.0,0.0,8,0.00,,---,0.00,VWS V14.01,2013-02-09 21:18:00,
2013-02-09 16:19:00,76.5,10.8,30.11,NE,38,0.0,0.0,8,0.00,,---,0.00,VWS V14.01,2013-02-09 21:19:00,
2013-02-09 16:20:00,76.3,10.7,30.11,North,353,3.1,3.1,8,0.00,,---,0.00,VWS V14.01,2013-02-09 21:20:00,
2013-02-09 16:21:00,76.3,10.7,30.11,NNE,29,4.0,4.0,8,0.00,,---,0.00,VWS V14.01,2013-02-09 21:21:00,
2013-02-09 16:22:00,76.3,10.7,30.11,NNE,29,0.0,4.0,8,0.00,,---,0.00,VWS V14.01,2013-02-09 21:22:00,
2013-02-09 16:23:00,76.1,10.6,30.08,NNE,29,0.0,0.0,8,0.00,,---,0.00,VWS V14.01,2013-02-09 21:23:00,
2013-02-09 16:24:00,76.1,10.6,30.08,NNE,29,0.0,0.0,8,0.00,,---,0.00,VWS V14.01,2013-02-09 21:24:00,
2013-02-09 16:25:00,76.1,10.6,30.08,NE,37,0.0,0.0,8,0.00,,---,0.00,VWS V14.01,2013-02-09 21:25:00,
2013-02-09 16:26:00,75.9,10.4,30.08,NE,37,0.0,0.0,8,0.00,,---,0.00,VWS V14.01,2013-02-09 21:26:00,
2013-02-09 16:27:00,75.9,10.4,30.08,NE,37,0.0,0.0,8,0.00,,---,0.00,VWS V14.01,2013-02-09 21:27:00,
2013-02-09 16:28:00,75.9,10.4,30.08,North,357,0.0,0.0,8,0.00,,---,0.00,VWS V14.01,2013-02-09 21:28:00,
2013-02-09 16:29:00,75.7,10.3,30.08,North,357,0.0,0.0,8,0.00,,---,0.00,VWS V14.01,2013-02-09 21:29:00,
2013-02-09 16:30:00,75.7,10.3,30.08,North,5,2.7,3.6,8,0.00,,---,0.00,VWS V14.01,2013-02-09 21:30:00,
2013-02-09 16:31:00,75.6,10.2,30.08,NNE,20,0.0,3.1,8,0.00,,---,0.00,VWS V14.01,2013-02-09 21:31:00,
2013-02-09 16:32:00,75.4,10.0,30.08,NNE,27,0.0,0.0,8,0.00,,---,0.00,VWS V14.01,2013-02-09 21:32:00,
2013-02-09 16:33:00,75.4,10.0,30.08,NNE,23,0.0,3.1,8,0.00,,---,0.00,VWS V14.01,2013-02-09 21:33:00,
2013-02-09 16:34:00,75.2,9.9,30.08,NNE,23,0.0,0.0,8,0.00,,---,0.00,VWS V14.01,2013-02-09 21:34:00,
2013-02-09 16:35:00,75.2,9.9,30.08,NNE,24,0.0,0.0,8,0.00,,---,0.00,VWS V14.01,2013-02-09 21:35:00,
2013-02-09 16:36:00,75.2,9.9,30.08,NNE,24,0.0,0.0,8,0.00,,---,0.00,VWS V14.01,2013-02-09 21:36:00,
2013-02-09 16:37:00,75.0,9.8,30.08,NNE,24,0.0,0.0,8,0.00,,---,0.00,VWS V14.01,2013-02-09 21:37:00,
2013-02-09 16:38:00,75.0,9.8,30.11,NNE,24,0.0,0.0,8,0.00,,---,0.00,VWS V14.01,2013-02-09 21:38:00,
2013-02-09 16:39:00,75.0,9.8,30.11,NNE,24,0.0,0.0,8,0.00,,---,0.00,VWS V14.01,2013-02-09 21:39:00,
2013-02-09 16:40:00,75.0,9.8,30.11,NNE,24,0.0,0.0,8,0.00,,---,0.00,VWS V14.01,2013-02-09 21:40:00,
2013-02-09 16:41:00,75.0,9.8,30.11,NNE,24,0.0,0.0,8,0.00,,---,0.00,VWS V14.01,2013-02-09 21:41:00,
2013-02-09 16:42:00,74.8,9.6,30.11,NNE,24,0.0,0.0,8,0.00,,---,0.00,VWS V14.01,2013-02-09 21:42:00,
2013-02-09 16:43:00,74.8,9.6,30.11,NNE,24,0.0,0.0,8,0.00,,---,0.00,VWS V14.01,2013-02-09 21:43:00,
2013-02-09 16:44:00,74.8,9.6,30.11,NNW,338,3.6,3.6,8,0.00,,---,0.00,VWS V14.01,2013-02-09 21:44:00,
2013-02-09 16:45:00,74.8,9.6,30.11,NNW,328,0.0,3.6,8,0.00,,---,0.00,VWS V14.01,2013-02-09 21:45:00,
2013-02-09 16:46:00,74.8,9.6,30.11,NNW,335,0.0,0.0,8,0.00,,---,0.00,VWS V14.01,2013-02-09 21:46:00,
2013-02-09 16:47:00,74.7,9.5,30.11,NNE,23,2.7,3.6,8,0.00,,---,0.00,VWS V14.01,2013-02-09 21:47:00,
2013-02-09 16:48:00,74.7,9.5,30.11,NNE,23,0.0,2.7,8,0.00,,---,0.00,VWS V14.01,2013-02-09 21:48:00,
2013-02-09 16:49:00,74.7,9.5,30.11,NNE,23,0.0,0.0,8,0.00,,---,0.00,VWS V14.01,2013-02-09 21:49:00,
2013-02-09 16:50:00,74.7,9.5,30.11,North,0,0.0,0.0,8,0.00,,---,0.00,VWS V14.01,2013-02-09 21:50:00,
2013-02-09 16:51:00,74.7,9.5,30.11,North,0,0.0,0.0,8,0.00,,---,0.00,VWS V14.01,2013-02-09 21:51:00,
2013-02-09 16:52:00,74.5,9.4,30.11,North,0,0.0,0.0,8,0.00,,---,0.00,VWS V14.01,2013-02-09 21:52:00,
2013-02-09 16:53:00,74.5,9.4,30.11,NNW,344,0.0,3.6,8,0.00,,---,0.00,VWS V14.01,2013-02-09 21:53:00,
2013-02-09 16:54:00,74.5,9.4,30.11,North,0,0.0,0.0,8,0.00,,---,0.00,VWS V14.01,2013-02-09 21:54:00,
2013-02-09 16:55:00,74.5,9.4,30.11,North,0,0.0,0.0,8,0.00,,---,0.00,VWS V14.01,2013-02-09 21:55:00,
2013-02-09 16:56:00,74.5,9.4,30.11,North,0,0.0,0.0,8,0.00,,---,0.00,VWS V14.01,2013-02-09 21:56:00,
2013-02-09 16:57:00,74.5,9.4,30.11,North,0,0.0,0.0,8,0.00,,---,0.00,VWS V14.01,2013-02-09 21:57:00,
2013-02-09 16:58:00,74.3,9.2,30.11,NNE,24,3.1,3.1,8,0.00,,---,0.00,VWS V14.01,2013-02-09 21:58:00,
2013-02-09 16:59:00,74.3,9.2,30.11,North,7,3.6,4.0,8,0.00,,---,0.00,VWS V14.01,2013-02-09 21:59:00,
2013-02-09 17:00:00,74.3,9.2,30.11,North,7,0.0,3.6,8,0.00,,---,0.00,VWS V14.01,2013-02-09 22:00:00,
2013-02-09 17:01:00,74.3,9.2,30.11,North,7,0.0,0.0,8,0.00,,---,0.00,VWS V14.01,2013-02-09 22:01:00,
2013-02-09 17:02:00,74.3,9.2,30.11,North,9,0.0,0.0,8,0.00,,---,0.00,VWS V14.01,2013-02-09 22:02:00,
2013-02-09 17:03:00,74.1,9.1,30.11,North,9,0.0,0.0,8,0.00,,---,0.00,VWS V14.01,2013-02-09 22:03:00,
2013-02-09 17:04:00,74.1,9.1,30.11,North,9,0.0,0.0,8,0.00,,---,0.00,VWS V14.01,2013-02-09 22:04:00,
2013-02-09 17:05:00,74.1,9.1,30.11,North,9,0.0,0.0,8,0.00,,---,0.00,VWS V14.01,2013-02-09 22:05:00,
2013-02-09 17:06:00,74.1,9.1,30.11,North,9,0.0,0.0,8,0.00,,---,0.00,VWS V14.01,2013-02-09 22:06:00,
2013-02-09 17:07:00,74.1,9.1,30.11,North,9,0.0,0.0,8,0.00,,---,0.00,VWS V14.01,2013-02-09 22:07:00,
2013-02-09 17:08:00,74.1,9.1,30.11,North,9,0.0,0.0,8,0.00,,---,0.00,VWS V14.01,2013-02-09 22:08:00,
2013-02-09 17:09:00,74.1,9.1,30.11,North,9,0.0,0.0,8,0.00,,---,0.00,VWS V14.01,2013-02-09 22:09:00,
2013-02-09 17:10:00,73.9,9.0,30.11,North,9,0.0,0.0,8,0.00,,---,0.00,VWS V14.01,2013-02-09 22:10:00,
2013-02-09 17:11:00,73.9,9.0,30.11,North,9,0.0,0.0,8,0.00,,---,0.00,VWS V14.01,2013-02-09 22:11:00,
2013-02-09 17:12:00,73.9,9.0,30.11,North,9,0.0,0.0,8,0.00,,---,0.00,VWS V14.01,2013-02-09 22:12:00,
2013-02-09 17:13:00,73.9,9.0,30.11,North,9,0.0,0.0,8,0.00,,---,0.00,VWS V14.01,2013-02-09 22:13:00,
2013-02-09 17:14:00,73.9,9.0,30.11,North,9,0.0,0.0,8,0.00,,---,0.00,VWS V14.01,2013-02-09 22:14:00,
2013-02-09 17:15:00,73.8,8.8,30.11,North,9,0.0,0.0,8,0.00,,---,0.00,VWS V14.01,2013-02-09 22:15:00,
2013-02-09 17:16:00,73.8,8.8,30.11,North,9,0.0,0.0,8,0.00,,---,0.00,VWS V14.01,2013-02-09 22:16:00,
2013-02-09 17:17:00,73.8,8.8,30.11,North,9,0.0,0.0,8,0.00,,---,0.00,VWS V14.01,2013-02-09 22:17:00,
2013-02-09 17:18:00,73.8,8.8,30.11,North,9,0.0,0.0,8,0.00,,---,0.00,VWS V14.01,2013-02-09 22:18:00,
2013-02-09 17:19:00,73.6,8.7,30.11,North,9,0.0,0.0,8,0.00,,---,0.00,VWS V14.01,2013-02-09 22:19:00,
2013-02-09 17:20:00,73.6,8.7,30.11,North,9,0.0,0.0,8,0.00,,---,0.00,VWS V14.01,2013-02-09 22:20:00,
2013-02-09 17:21:00,73.6,8.7,30.11,North,9,0.0,0.0,8,0.00,,---,0.00,VWS V14.01,2013-02-09 22:21:00,
2013-02-09 17:22:00,73.6,8.7,30.11,North,9,0.0,0.0,8,0.00,,---,0.00,VWS V14.01,2013-02-09 22:22:00,
2013-02-09 17:23:00,73.6,8.7,30.11,North,9,0.0,0.0,8,0.00,,---,0.00,VWS V14.01,2013-02-09 22:23:00,
2013-02-09 17:24:00,73.4,8.6,30.11,North,9,0.0,0.0,8,0.00,,---,0.00,VWS V14.01,2013-02-09 22:24:00,
2013-02-09 17:25:00,73.4,8.6,30.11,North,9,0.0,0.0,8,0.00,,---,0.00,VWS V14.01,2013-02-09 22:25:00,
2013-02-09 17:26:00,73.4,8.6,30.11,North,9,0.0,0.0,8,0.00,,---,0.00,VWS V14.01,2013-02-09 22:26:00,
2013-02-09 17:27:00,73.4,8.6,30.11,North,9,0.0,0.0,8,0.00,,---,0.00,VWS V14.01,2013-02-09 22:27:00,
2013-02-09 17:28:00,73.4,8.6,30.11,North,9,0.0,0.0,8,0.00,,---,0.00,VWS V14.01,2013-02-09 22:28:00,
2013-02-09 17:29:00,73.4,8.6,30.11,North,9,0.0,0.0,8,0.00,,---,0.00,VWS V14.01,2013-02-09 22:29:00,
2013-02-09 17:30:00,73.4,8.6,30.11,North,9,0.0,0.0,8,0.00,,---,0.00,VWS V14.01,2013-02-09 22:30:00,
2013-02-09 17:31:00,73.4,8.6,30.11,North,9,0.0,0.0,8,0.00,,---,0.00,VWS V14.01,2013-02-09 22:31:00,
2013-02-09 17:32:00,73.4,8.6,30.11,North,9,0.0,0.0,8,0.00,,---,0.00,VWS V14.01,2013-02-09 22:32:00,
2013-02-09 17:33:00,73.4,8.6,30.11,North,9,0.0,0.0,8,0.00,,---,0.00,VWS V14.01,2013-02-09 22:33:00,
2013-02-09 17:34:00,73.4,8.6,30.11,North,9,0.0,0.0,8,0.00,,---,0.00,VWS V14.01,2013-02-09 22:34:00,
2013-02-09 17:35:00,73.4,8.6,30.11,North,9,0.0,0.0,8,0.00,,---,0.00,VWS V14.01,2013-02-09 22:35:00,
2013-02-09 17:36:00,73.4,8.6,30.11,North,9,0.0,0.0,8,0.00,,---,0.00,VWS V14.01,2013-02-09 22:36:00,
2013-02-09 17:37:00,73.4,8.6,30.11,North,9,0.0,0.0,8,0.00,,---,0.00,VWS V14.01,2013-02-09 22:37:00,
2013-02-09 17:38:00,73.2,11.1,30.11,North,9,0.0,0.0,9,0.00,,---,0.00,VWS V14.01,2013-02-09 22:38:00,
2013-02-09 17:39:00,73.2,11.1,30.11,North,9,0.0,0.0,9,0.00,,---,0.00,VWS V14.01,2013-02-09 22:39:00,
2013-02-09 17:40:00,73.2,11.1,30.11,North,9,0.0,0.0,9,0.00,,---,0.00,VWS V14.01,2013-02-09 22:40:00,
2013-02-09 17:41:00,73.2,11.1,30.11,North,9,0.0,0.0,9,0.00,,---,0.00,VWS V14.01,2013-02-09 22:41:00,
2013-02-09 17:42:00,73.0,10.9,30.11,North,9,0.0,0.0,9,0.00,,---,0.00,VWS V14.01,2013-02-09 22:42:00,
2013-02-09 17:43:00,73.0,10.9,30.11,North,9,0.0,0.0,9,0.00,,---,0.00,VWS V14.01,2013-02-09 22:43:00,
2013-02-09 17:44:00,73.0,10.9,30.11,North,9,0.0,0.0,9,0.00,,---,0.00,VWS V14.01,2013-02-09 22:44:00,
2013-02-09 17:45:00,72.9,10.8,30.11,North,9,0.0,0.0,9,0.00,,---,0.00,VWS V14.01,2013-02-09 22:45:00,
2013-02-09 17:46:00,72.9,10.8,30.11,North,9,0.0,0.0,9,0.00,,---,0.00,VWS V14.01,2013-02-09 22:46:00,
2013-02-09 17:47:00,72.9,10.8,30.11,North,9,0.0,0.0,9,0.00,,---,0.00,VWS V14.01,2013-02-09 22:47:00,
2013-02-09 17:48:00,72.7,10.6,30.11,North,9,0.0,0.0,9,0.00,,---,0.00,VWS V14.01,2013-02-09 22:48:00,
2013-02-09 17:49:00,72.7,10.6,30.11,North,9,0.0,0.0,9,0.00,,---,0.00,VWS V14.01,2013-02-09 22:49:00,
2013-02-09 17:50:00,72.7,10.6,30.11,North,9,0.0,0.0,9,0.00,,---,0.00,VWS V14.01,2013-02-09 22:50:00,
2013-02-09 17:51:00,72.7,10.6,30.11,North,9,0.0,0.0,9,0.00,,---,0.00,VWS V14.01,2013-02-09 22:51:00,
2013-02-09 17:52:00,72.7,10.6,30.11,North,9,0.0,0.0,9,0.00,,---,0.00,VWS V14.01,2013-02-09 22:52:00,
2013-02-09 17:53:00,72.5,10.5,30.11,North,9,0.0,0.0,9,0.00,,---,0.00,VWS V14.01,2013-02-09 22:53:00,
2013-02-09 17:54:00,72.5,10.5,30.11,North,9,0.0,0.0,9,0.00,,---,0.00,VWS V14.01,2013-02-09 22:54:00,
2013-02-09 17:55:00,72.5,10.5,30.11,North,9,0.0,0.0,9,0.00,,---,0.00,VWS V14.01,2013-02-09 22:55:00,
2013-02-09 17:56:00,72.3,10.4,30.11,North,9,0.0,0.0,9,0.00,,---,0.00,VWS V14.01,2013-02-09 22:56:00,
2013-02-09 17:57:00,72.3,10.4,30.11,North,9,0.0,0.0,9,0.00,,---,0.00,VWS V14.01,2013-02-09 22:57:00,
2013-02-09 17:58:00,72.3,10.4,30.11,North,9,0.0,0.0,9,0.00,,---,0.00,VWS V14.01,2013-02-09 22:58:00,
2013-02-09 17:59:00,72.1,10.2,30.11,North,9,0.0,0.0,9,0.00,,---,0.00,VWS V14.01,2013-02-09 22:59:00,
2013-02-09 18:00:00,72.1,10.2,30.11,North,9,0.0,0.0,9,0.00,,---,0.00,VWS V14.01,2013-02-09 23:00:00,
2013-02-09 18:01:00,72.1,10.2,30.11,North,9,0.0,0.0,9,0.00,,---,0.00,VWS V14.01,2013-02-09 23:01:00,
2013-02-09 18:02:00,72.0,10.1,30.11,North,9,0.0,0.0,9,0.00,,---,0.00,VWS V14.01,2013-02-09 23:02:00,
2013-02-09 18:03:00,72.0,10.1,30.11,North,9,0.0,0.0,9,0.00,,---,0.00,VWS V14.01,2013-02-09 23:03:00,
2013-02-09 18:04:00,72.0,10.1,30.11,North,9,0.0,0.0,9,0.00,,---,0.00,VWS V14.01,2013-02-09 23:04:00,
2013-02-09 18:05:00,71.8,10.0,30.11,North,9,0.0,0.0,9,0.00,,---,0.00,VWS V14.01,2013-02-09 23:05:00,
2013-02-09 18:06:00,71.8,10.0,30.11,North,9,0.0,0.0,9,0.00,,---,0.00,VWS V14.01,2013-02-09 23:06:00,
2013-02-09 18:07:00,71.8,10.0,30.11,North,9,0.0,0.0,9,0.00,,---,0.00,VWS V14.01,2013-02-09 23:07:00,
2013-02-09 18:08:00,71.6,9.8,30.11,North,9,0.0,0.0,9,0.00,,---,0.00,VWS V14.01,2013-02-09 23:08:00,
2013-02-09 18:09:00,71.6,9.8,30.11,North,9,0.0,0.0,9,0.00,,---,0.00,VWS V14.01,2013-02-09 23:09:00,
2013-02-09 18:10:00,71.4,9.7,30.11,North,9,0.0,0.0,9,0.00,,---,0.00,VWS V14.01,2013-02-09 23:10:00,
2013-02-09 18:11:00,71.4,9.7,30.11,North,9,0.0,0.0,9,0.00,,---,0.00,VWS V14.01,2013-02-09 23:11:00,
2013-02-09 18:12:00,71.4,9.7,30.11,North,9,0.0,0.0,9,0.00,,---,0.00,VWS V14.01,2013-02-09 23:12:00,
2013-02-09 18:13:00,71.2,9.6,30.11,North,9,0.0,0.0,9,0.00,,---,0.00,VWS V14.01,2013-02-09 23:13:00,
2013-02-09 18:14:00,71.2,9.6,30.11,North,9,0.0,0.0,9,0.00,,---,0.00,VWS V14.01,2013-02-09 23:14:00,
2013-02-09 18:15:00,71.2,9.6,30.11,North,9,0.0,0.0,9,0.00,,---,0.00,VWS V14.01,2013-02-09 23:15:00,
2013-02-09 18:16:00,71.1,9.4,30.11,North,9,0.0,0.0,9,0.00,,---,0.00,VWS V14.01,2013-02-09 23:16:00,
2013-02-09 18:17:00,71.1,9.4,30.11,North,9,0.0,0.0,9,0.00,,---,0.00,VWS V14.01,2013-02-09 23:17:00,
2013-02-09 18:18:00,71.1,9.4,30.11,North,9,0.0,0.0,9,0.00,,---,0.00,VWS V14.01,2013-02-09 23:18:00,
2013-02-09 18:19:00,70.9,9.3,30.11,North,9,0.0,0.0,9,0.00,,---,0.00,VWS V14.01,2013-02-09 23:19:00,
2013-02-09 18:20:00,70.9,9.3,30.11,North,9,0.0,0.0,9,0.00,,---,0.00,VWS V14.01,2013-02-09 23:20:00,
2013-02-09 18:21:00,70.9,9.3,30.11,North,9,0.0,0.0,9,0.00,,---,0.00,VWS V14.01,2013-02-09 23:21:00,
2013-02-09 18:22:00,70.7,9.1,30.11,North,9,0.0,0.0,9,0.00,,---,0.00,VWS V14.01,2013-02-09 23:22:00,
2013-02-09 18:23:00,70.7,9.1,30.11,North,9,0.0,0.0,9,0.00,,---,0.00,VWS V14.01,2013-02-09 23:23:00,
2013-02-09 18:24:00,70.7,9.1,30.11,North,9,0.0,0.0,9,0.00,,---,0.00,VWS V14.01,2013-02-09 23:24:00,
2013-02-09 18:25:00,70.5,9.0,30.11,North,9,0.0,0.0,9,0.00,,---,0.00,VWS V14.01,2013-02-09 23:25:00,
2013-02-09 18:26:00,70.5,9.0,30.11,North,9,0.0,0.0,9,0.00,,---,0.00,VWS V14.01,2013-02-09 23:26:00,
2013-02-09 18:27:00,70.3,8.9,30.11,North,9,0.0,0.0,9,0.00,,---,0.00,VWS V14.01,2013-02-09 23:27:00,
2013-02-09 18:28:00,70.2,8.7,30.11,North,9,0.0,0.0,9,0.00,,---,0.00,VWS V14.01,2013-02-09 23:28:00,
2013-02-09 18:29:00,70.2,8.7,30.11,North,9,0.0,0.0,9,0.00,,---,0.00,VWS V14.01,2013-02-09 23:29:00,
2013-02-09 18:30:00,70.2,8.7,30.11,North,9,0.0,0.0,9,0.00,,---,0.00,VWS V14.01,2013-02-09 23:30:00,
2013-02-09 18:31:00,70.0,8.6,30.11,North,9,0.0,0.0,9,0.00,,---,0.00,VWS V14.01,2013-02-09 23:31:00,
2013-02-09 18:32:00,70.0,8.6,30.11,North,9,0.0,0.0,9,0.00,,---,0.00,VWS V14.01,2013-02-09 23:32:00,
2013-02-09 18:33:00,70.0,8.6,30.11,North,9,0.0,0.0,9,0.00,,---,0.00,VWS V14.01,2013-02-09 23:33:00,
2013-02-09 18:34:00,69.8,8.5,30.11,North,9,0.0,0.0,9,0.00,,---,0.00,VWS V14.01,2013-02-09 23:34:00,
2013-02-09 18:35:00,69.8,8.5,30.11,North,9,0.0,0.0,9,0.00,,---,0.00,VWS V14.01,2013-02-09 23:35:00,
2013-02-09 18:36:00,69.6,10.7,30.11,North,9,0.0,0.0,10,0.00,,---,0.00,VWS V14.01,2013-02-09 23:36:00,
2013-02-09 18:37:00,69.6,10.7,30.11,North,9,0.0,0.0,10,0.00,,---,0.00,VWS V14.01,2013-02-09 23:37:00,
2013-02-09 18:38:00,69.6,10.7,30.11,North,9,0.0,0.0,10,0.00,,---,0.00,VWS V14.01,2013-02-09 23:38:00,
2013-02-09 18:39:00,69.4,10.5,30.11,North,9,0.0,0.0,10,0.00,,---,0.00,VWS V14.01,2013-02-09 23:39:00,
2013-02-09 18:40:00,69.4,10.5,30.11,North,9,0.0,0.0,10,0.00,,---,0.00,VWS V14.01,2013-02-09 23:40:00,
2013-02-09 18:41:00,69.3,10.4,30.11,North,9,0.0,0.0,10,0.00,,---,0.00,VWS V14.01,2013-02-09 23:41:00,
2013-02-09 18:42:00,69.3,10.4,30.11,North,9,0.0,0.0,10,0.00,,---,0.00,VWS V14.01,2013-02-09 23:42:00,
2013-02-09 18:43:00,69.3,10.4,30.11,North,9,0.0,0.0,10,0.00,,---,0.00,VWS V14.01,2013-02-09 23:43:00,
2013-02-09 18:44:00,69.1,10.3,30.11,North,9,0.0,0.0,10,0.00,,---,0.00,VWS V14.01,2013-02-09 23:44:00,
2013-02-09 18:45:00,69.1,10.3,30.11,North,9,0.0,0.0,10,0.00,,---,0.00,VWS V14.01,2013-02-09 23:45:00,
2013-02-09 18:46:00,69.1,10.3,30.11,North,9,0.0,0.0,10,0.00,,---,0.00,VWS V14.01,2013-02-09 23:46:00,
2013-02-09 18:47:00,68.9,10.1,30.11,North,9,0.0,0.0,10,0.00,,---,0.00,VWS V14.01,2013-02-09 23:47:00,
2013-02-09 18:48:00,68.9,10.1,30.11,North,9,0.0,0.0,10,0.00,,---,0.00,VWS V14.01,2013-02-09 23:48:00,
2013-02-09 18:49:00,68.7,10.0,30.11,North,9,0.0,0.0,10,0.00,,---,0.00,VWS V14.01,2013-02-09 23:49:00,
2013-02-09 18:50:00,68.7,10.0,30.11,North,9,0.0,0.0,10,0.00,,---,0.00,VWS V14.01,2013-02-09 23:50:00,
2013-02-09 18:51:00,68.7,10.0,30.11,North,9,0.0,0.0,10,0.00,,---,0.00,VWS V14.01,2013-02-09 23:51:00,
2013-02-09 18:52:00,68.5,9.8,30.11,North,9,0.0,0.0,10,0.00,,---,0.00,VWS V14.01,2013-02-09 23:52:00,
2013-02-09 18:53:00,68.5,9.8,30.11,North,9,0.0,0.0,10,0.00,,---,0.00,VWS V14.01,2013-02-09 23:53:00,
2013-02-09 18:54:00,68.4,9.7,30.11,North,9,0.0,0.0,10,0.00,,---,0.00,VWS V14.01,2013-02-09 23:54:00,
2013-02-09 18:55:00,68.4,9.7,30.11,North,9,0.0,0.0,10,0.00,,---,0.00,VWS V14.01,2013-02-09 23:55:00,
2013-02-09 18:56:00,68.4,9.7,30.11,North,9,0.0,0.0,10,0.00,,---,0.00,VWS V14.01,2013-02-09 23:56:00,
2013-02-09 18:57:00,68.2,9.6,30.11,North,9,0.0,0.0,10,0.00,,---,0.00,VWS V14.01,2013-02-09 23:57:00,
2013-02-09 18:58:00,68.2,9.6,30.11,North,9,0.0,0.0,10,0.00,,---,0.00,VWS V14.01,2013-02-09 23:58:00,
2013-02-09 18:59:00,68.2,9.6,30.11,North,9,0.0,0.0,10,0.00,,---,0.00,VWS V14.01,2013-02-09 23:59:00,
2013-02-09 19:00:00,68.0,9.4,30.11,North,9,0.0,0.0,10,0.00,,---,0.00,VWS V14.01,2013-02-10 00:00:00,
2013-02-09 19:01:00,68.0,9.4,30.11,North,9,0.0,0.0,10,0.00,,---,0.00,VWS V14.01,2013-02-10 00:01:00,
2013-02-09 19:02:00,68.0,9.4,30.11,North,9,0.0,0.0,10,0.00,,---,0.00,VWS V14.01,2013-02-10 00:02:00,
2013-02-09 19:03:00,68.0,9.4,30.11,North,9,0.0,0.0,10,0.00,,---,0.00,VWS V14.01,2013-02-10 00:03:00,
2013-02-09 19:04:00,68.0,9.4,30.11,North,9,0.0,0.0,10,0.00,,---,0.00,VWS V14.01,2013-02-10 00:04:00,
2013-02-09 19:05:00,67.8,9.3,30.11,North,9,0.0,0.0,10,0.00,,---,0.00,VWS V14.01,2013-02-10 00:05:00,
2013-02-09 19:06:00,67.8,9.3,30.11,North,9,0.0,0.0,10,0.00,,---,0.00,VWS V14.01,2013-02-10 00:06:00,
2013-02-09 19:07:00,67.8,9.3,30.11,North,9,0.0,0.0,10,0.00,,---,0.00,VWS V14.01,2013-02-10 00:07:00,
2013-02-09 19:08:00,67.8,9.3,30.11,North,9,0.0,0.0,10,0.00,,---,0.00,VWS V14.01,2013-02-10 00:08:00,
2013-02-09 19:09:00,67.8,9.3,30.11,North,9,0.0,0.0,10,0.00,,---,0.00,VWS V14.01,2013-02-10 00:09:00,
2013-02-09 19:10:00,67.6,9.1,30.11,North,9,0.0,0.0,10,0.00,,---,0.00,VWS V14.01,2013-02-10 00:10:00,
2013-02-09 19:11:00,67.6,9.1,30.11,North,9,0.0,0.0,10,0.00,,---,0.00,VWS V14.01,2013-02-10 00:11:00,
2013-02-09 19:12:00,67.6,9.1,30.11,North,9,0.0,0.0,10,0.00,,---,0.00,VWS V14.01,2013-02-10 00:12:00,
2013-02-09 19:13:00,67.6,9.1,30.11,North,9,0.0,0.0,10,0.00,,---,0.00,VWS V14.01,2013-02-10 00:13:00,
2013-02-09 19:14:00,67.6,9.1,30.11,North,9,0.0,0.0,10,0.00,,---,0.00,VWS V14.01,2013-02-10 00:14:00,
2013-02-09 19:15:00,67.6,9.1,30.11,North,9,0.0,0.0,10,0.00,,---,0.00,VWS V14.01,2013-02-10 00:15:00,
2013-02-09 19:16:00,67.5,9.0,30.11,North,9,0.0,0.0,10,0.00,,---,0.00,VWS V14.01,2013-02-10 00:16:00,
2013-02-09 19:17:00,67.5,9.0,30.11,North,9,0.0,0.0,10,0.00,,---,0.00,VWS V14.01,2013-02-10 00:17:00,
2013-02-09 19:18:00,67.5,9.0,30.11,North,9,0.0,0.0,10,0.00,,---,0.00,VWS V14.01,2013-02-10 00:18:00,
2013-02-09 19:19:00,67.5,9.0,30.11,North,9,0.0,0.0,10,0.00,,---,0.00,VWS V14.01,2013-02-10 00:19:00,
2013-02-09 19:20:00,67.3,8.9,30.11,North,9,0.0,0.0,10,0.00,,---,0.00,VWS V14.01,2013-02-10 00:20:00,
2013-02-09 19:21:00,67.3,8.9,30.11,North,9,0.0,0.0,10,0.00,,---,0.00,VWS V14.01,2013-02-10 00:21:00,
2013-02-09 19:22:00,67.3,8.9,30.11,North,9,0.0,0.0,10,0.00,,---,0.00,VWS V14.01,2013-02-10 00:22:00,
2013-02-09 19:23:00,67.1,8.7,30.14,North,9,0.0,0.0,10,0.00,,---,0.00,VWS V14.01,2013-02-10 00:23:00,
2013-02-09 19:24:00,67.1,12.8,30.14,North,9,0.0,0.0,12,0.00,,---,0.00,VWS V14.01,2013-02-10 00:24:00,
2013-02-09 19:25:00,67.1,8.7,30.14,North,9,0.0,0.0,10,0.00,,---,0.00,VWS V14.01,2013-02-10 00:25:00,
2013-02-09 19:26:00,66.9,12.7,30.14,North,9,0.0,0.0,12,0.00,,---,0.00,VWS V14.01,2013-02-10 00:26:00,
2013-02-09 19:27:00,66.9,12.7,30.14,North,9,0.0,0.0,12,0.00,,---,0.00,VWS V14.01,2013-02-10 00:27:00,
2013-02-09 19:28:00,66.9,12.7,30.14,North,9,0.0,0.0,12,0.00,,---,0.00,VWS V14.01,2013-02-10 00:28:00,
2013-02-09 19:29:00,66.9,12.7,30.14,North,9,0.0,0.0,12,0.00,,---,0.00,VWS V14.01,2013-02-10 00:29:00,
2013-02-09 19:30:00,66.7,12.5,30.14,North,9,0.0,0.0,12,0.00,,---,0.00,VWS V14.01,2013-02-10 00:30:00,
2013-02-09 19:31:00,66.7,12.5,30.14,North,9,0.0,0.0,12,0.00,,---,0.00,VWS V14.01,2013-02-10 00:31:00,
2013-02-09 19:32:00,66.7,12.5,30.14,North,9,0.0,0.0,12,0.00,,---,0.00,VWS V14.01,2013-02-10 00:32:00,
2013-02-09 19:33:00,66.7,12.5,30.14,North,9,0.0,0.0,12,0.00,,---,0.00,VWS V14.01,2013-02-10 00:33:00,
2013-02-09 19:34:00,66.7,12.5,30.14,North,9,0.0,0.0,12,0.00,,---,0.00,VWS V14.01,2013-02-10 00:34:00,
2013-02-09 19:35:00,66.6,12.4,30.14,North,9,0.0,0.0,12,0.00,,---,0.00,VWS V14.01,2013-02-10 00:35:00,
2013-02-09 19:36:00,66.6,12.4,30.14,North,9,0.0,0.0,12,0.00,,---,0.00,VWS V14.01,2013-02-10 00:36:00,
2013-02-09 19:37:00,66.6,12.4,30.14,North,9,0.0,0.0,12,0.00,,---,0.00,VWS V14.01,2013-02-10 00:37:00,
2013-02-09 19:38:00,66.4,12.3,30.14,North,9,0.0,0.0,12,0.00,,---,0.00,VWS V14.01,2013-02-10 00:38:00,
2013-02-09 19:39:00,66.4,12.3,30.14,North,9,0.0,0.0,12,0.00,,---,0.00,VWS V14.01,2013-02-10 00:39:00,
2013-02-09 19:40:00,66.4,12.3,30.14,North,9,0.0,0.0,12,0.00,,---,0.00,VWS V14.01,2013-02-10 00:40:00,
2013-02-09 19:41:00,66.4,12.3,30.14,North,9,0.0,0.0,12,0.00,,---,0.00,VWS V14.01,2013-02-10 00:41:00,
2013-02-09 19:42:00,66.4,12.3,30.14,North,9,0.0,0.0,12,0.00,,---,0.00,VWS V14.01,2013-02-10 00:42:00,
2013-02-09 19:43:00,66.4,12.3,30.14,North,9,0.0,0.0,12,0.00,,---,0.00,VWS V14.01,2013-02-10 00:43:00,
2013-02-09 19:44:00,66.2,12.1,30.14,North,9,0.0,0.0,12,0.00,,---,0.00,VWS V14.01,2013-02-10 00:44:00,
2013-02-09 19:45:00,66.2,12.1,30.14,North,9,0.0,0.0,12,0.00,,---,0.00,VWS V14.01,2013-02-10 00:45:00,
2013-02-09 19:46:00,66.2,12.1,30.14,North,9,0.0,0.0,12,0.00,,---,0.00,VWS V14.01,2013-02-10 00:46:00,
2013-02-09 19:47:00,66.0,13.8,30.14,North,9,0.0,0.0,13,0.00,,---,0.00,VWS V14.01,2013-02-10 00:47:00,
2013-02-09 19:48:00,66.0,13.8,30.14,North,9,0.0,0.0,13,0.00,,---,0.00,VWS V14.01,2013-02-10 00:48:00,
2013-02-09 19:49:00,66.0,13.8,30.14,North,9,0.0,0.0,13,0.00,,---,0.00,VWS V14.01,2013-02-10 00:49:00,
2013-02-09 19:50:00,65.8,13.6,30.14,North,9,0.0,0.0,13,0.00,,---,0.00,VWS V14.01,2013-02-10 00:50:00,
2013-02-09 19:51:00,65.8,13.6,30.14,North,9,0.0,0.0,13,0.00,,---,0.00,VWS V14.01,2013-02-10 00:51:00,
2013-02-09 19:52:00,65.8,13.6,30.14,North,9,0.0,0.0,13,0.00,,---,0.00,VWS V14.01,2013-02-10 00:52:00,
2013-02-09 19:53:00,65.8,13.6,30.14,North,9,0.0,0.0,13,0.00,,---,0.00,VWS V14.01,2013-02-10 00:53:00,
2013-02-09 19:54:00,65.7,13.5,30.14,North,9,0.0,0.0,13,0.00,,---,0.00,VWS V14.01,2013-02-10 00:54:00,
2013-02-09 19:55:00,65.7,13.5,30.14,North,9,0.0,0.0,13,0.00,,---,0.00,VWS V14.01,2013-02-10 00:55:00,
2013-02-09 19:56:00,65.7,13.5,30.14,North,9,0.0,0.0,13,0.00,,---,0.00,VWS V14.01,2013-02-10 00:56:00,
2013-02-09 19:57:00,65.7,13.5,30.14,North,9,0.0,0.0,13,0.00,,---,0.00,VWS V14.01,2013-02-10 00:57:00,
2013-02-09 19:58:00,65.7,13.5,30.14,North,9,0.0,0.0,13,0.00,,---,0.00,VWS V14.01,2013-02-10 00:58:00,
2013-02-09 19:59:00,65.7,13.5,30.14,North,9,0.0,0.0,13,0.00,,---,0.00,VWS V14.01,2013-02-10 00:59:00,
2013-02-09 20:00:00,65.5,13.4,30.14,North,9,0.0,0.0,13,0.00,,---,0.00,VWS V14.01,2013-02-10 01:00:00,
2013-02-09 20:01:00,65.5,13.4,30.14,North,9,0.0,0.0,13,0.00,,---,0.00,VWS V14.01,2013-02-10 01:01:00,
2013-02-09 20:02:00,65.5,13.4,30.14,North,9,0.0,0.0,13,0.00,,---,0.00,VWS V14.01,2013-02-10 01:02:00,
2013-02-09 20:03:00,65.3,13.2,30.14,North,9,0.0,0.0,13,0.00,,---,0.00,VWS V14.01,2013-02-10 01:03:00,
2013-02-09 20:04:00,65.3,13.2,30.14,North,9,0.0,0.0,13,0.00,,---,0.00,VWS V14.01,2013-02-10 01:04:00,
2013-02-09 20:05:00,65.3,13.2,30.14,North,9,0.0,0.0,13,0.00,,---,0.00,VWS V14.01,2013-02-10 01:05:00,
2013-02-09 20:06:00,65.3,13.2,30.14,North,9,0.0,0.0,13,0.00,,---,0.00,VWS V14.01,2013-02-10 01:06:00,
2013-02-09 20:07:00,65.1,13.1,30.14,North,9,0.0,0.0,13,0.00,,---,0.00,VWS V14.01,2013-02-10 01:07:00,
2013-02-09 20:08:00,65.1,13.1,30.14,North,9,0.0,0.0,13,0.00,,---,0.00,VWS V14.01,2013-02-10 01:08:00,
2013-02-09 20:09:00,65.1,13.1,30.14,North,9,0.0,0.0,13,0.00,,---,0.00,VWS V14.01,2013-02-10 01:09:00,
2013-02-09 20:10:00,65.1,13.1,30.14,North,9,0.0,0.0,13,0.00,,---,0.00,VWS V14.01,2013-02-10 01:10:00,
2013-02-09 20:11:00,65.1,13.1,30.14,North,9,0.0,0.0,13,0.00,,---,0.00,VWS V14.01,2013-02-10 01:11:00,
2013-02-09 20:12:00,65.1,13.1,30.14,North,9,0.0,0.0,13,0.00,,---,0.00,VWS V14.01,2013-02-10 01:12:00,
2013-02-09 20:13:00,64.9,12.9,30.14,North,9,0.0,0.0,13,0.00,,---,0.00,VWS V14.01,2013-02-10 01:13:00,
2013-02-09 20:14:00,64.9,12.9,30.14,North,9,0.0,0.0,13,0.00,,---,0.00,VWS V14.01,2013-02-10 01:14:00,
2013-02-09 20:15:00,64.9,16.2,30.14,North,9,0.0,0.0,15,0.00,,---,0.00,VWS V14.01,2013-02-10 01:15:00,
2013-02-09 20:16:00,64.8,16.1,30.14,North,9,0.0,0.0,15,0.00,,---,0.00,VWS V14.01,2013-02-10 01:16:00,
2013-02-09 20:17:00,64.8,16.1,30.14,North,9,0.0,0.0,15,0.00,,---,0.00,VWS V14.01,2013-02-10 01:17:00,
2013-02-09 20:18:00,64.8,16.1,30.14,North,9,0.0,0.0,15,0.00,,---,0.00,VWS V14.01,2013-02-10 01:18:00,
2013-02-09 20:19:00,64.8,16.1,30.14,North,9,0.0,0.0,15,0.00,,---,0.00,VWS V14.01,2013-02-10 01:19:00,
2013-02-09 20:20:00,64.8,16.1,30.14,North,9,0.0,0.0,15,0.00,,---,0.00,VWS V14.01,2013-02-10 01:20:00,
2013-02-09 20:21:00,64.6,15.9,30.14,North,9,0.0,0.0,15,0.00,,---,0.00,VWS V14.01,2013-02-10 01:21:00,
2013-02-09 20:22:00,64.6,15.9,30.14,North,9,0.0,0.0,15,0.00,,---,0.00,VWS V14.01,2013-02-10 01:22:00,
2013-02-09 20:23:00,64.6,15.9,30.14,North,9,0.0,0.0,15,0.00,,---,0.00,VWS V14.01,2013-02-10 01:23:00,
2013-02-09 20:24:00,64.4,20.0,30.14,North,9,0.0,0.0,18,0.00,,---,0.00,VWS V14.01,2013-02-10 01:24:00,
2013-02-09 20:25:00,64.4,20.0,30.14,North,9,0.0,0.0,18,0.00,,---,0.00,VWS V14.01,2013-02-10 01:25:00,
2013-02-09 20:26:00,64.4,20.0,30.14,North,9,0.0,0.0,18,0.00,,---,0.00,VWS V14.01,2013-02-10 01:26:00,
2013-02-09 20:27:00,64.4,20.0,30.14,North,9,0.0,0.0,18,0.00,,---,0.00,VWS V14.01,2013-02-10 01:27:00,
2013-02-09 20:28:00,64.4,20.0,30.14,North,9,0.0,0.0,18,0.00,,---,0.00,VWS V14.01,2013-02-10 01:28:00,
2013-02-09 20:29:00,64.4,20.0,30.14,North,9,0.0,0.0,18,0.00,,---,0.00,VWS V14.01,2013-02-10 01:29:00,
2013-02-09 20:30:00,64.4,20.0,30.14,North,9,0.0,0.0,18,0.00,,---,0.00,VWS V14.01,2013-02-10 01:30:00,
2013-02-09 20:31:00,64.4,20.0,30.14,North,9,0.0,0.0,18,0.00,,---,0.00,VWS V14.01,2013-02-10 01:31:00,
2013-02-09 20:32:00,64.6,20.1,30.14,North,9,0.0,0.0,18,0.00,,---,0.00,VWS V14.01,2013-02-10 01:32:00,
2013-02-09 20:33:00,64.6,20.1,30.14,North,9,0.0,0.0,18,0.00,,---,0.00,VWS V14.01,2013-02-10 01:33:00,
2013-02-09 20:34:00,64.6,15.9,30.14,North,9,0.0,0.0,15,0.00,,---,0.00,VWS V14.01,2013-02-10 01:34:00,
2013-02-09 20:35:00,64.8,16.1,30.14,North,9,0.0,0.0,15,0.00,,---,0.00,VWS V14.01,2013-02-10 01:35:00,
2013-02-09 20:36:00,64.8,16.1,30.14,North,9,0.0,0.0,15,0.00,,---,0.00,VWS V14.01,2013-02-10 01:36:00,
2013-02-09 20:37:00,64.9,16.2,30.14,North,9,0.0,0.0,15,0.00,,---,0.00,VWS V14.01,2013-02-10 01:37:00,
2013-02-09 20:38:00,65.1,16.4,30.14,North,9,0.0,0.0,15,0.00,,---,0.00,VWS V14.01,2013-02-10 01:38:00,
2013-02-09 20:39:00,65.1,16.4,30.14,North,9,0.0,0.0,15,0.00,,---,0.00,VWS V14.01,2013-02-10 01:39:00,
2013-02-09 20:40:00,65.3,16.5,30.14,North,9,0.0,0.0,15,0.00,,---,0.00,VWS V14.01,2013-02-10 01:40:00,
2013-02-09 20:41:00,65.3,16.5,30.14,North,9,0.0,0.0,15,0.00,,---,0.00,VWS V14.01,2013-02-10 01:41:00,
2013-02-09 20:42:00,65.5,16.6,30.14,North,9,0.0,0.0,15,0.00,,---,0.00,VWS V14.01,2013-02-10 01:42:00,
2013-02-09 20:43:00,65.7,16.8,30.14,North,9,0.0,0.0,15,0.00,,---,0.00,VWS V14.01,2013-02-10 01:43:00,
2013-02-09 20:44:00,65.7,16.8,30.14,North,9,0.0,0.0,15,0.00,,---,0.00,VWS V14.01,2013-02-10 01:44:00,
2013-02-09 20:45:00,65.8,16.9,30.14,North,9,0.0,0.0,15,0.00,,---,0.00,VWS V14.01,2013-02-10 01:45:00,
2013-02-09 20:46:00,65.8,16.9,30.14,North,9,0.0,0.0,15,0.00,,---,0.00,VWS V14.01,2013-02-10 01:46:00,
2013-02-09 20:47:00,66.0,17.1,30.14,North,9,0.0,0.0,15,0.00,,---,0.00,VWS V14.01,2013-02-10 01:47:00,
2013-02-09 20:48:00,66.0,13.8,30.14,North,9,0.0,0.0,13,0.00,,---,0.00,VWS V14.01,2013-02-10 01:48:00,
2013-02-09 20:49:00,66.0,13.8,30.14,North,9,0.0,0.0,13,0.00,,---,0.00,VWS V14.01,2013-02-10 01:49:00,
2013-02-09 20:50:00,66.2,12.1,30.14,North,9,0.0,0.0,12,0.00,,---,0.00,VWS V14.01,2013-02-10 01:50:00,
2013-02-09 20:51:00,66.2,12.1,30.14,North,9,0.0,0.0,12,0.00,,---,0.00,VWS V14.01,2013-02-10 01:51:00,
2013-02-09 20:52:00,66.4,12.3,30.14,North,9,0.0,0.0,12,0.00,,---,0.00,VWS V14.01,2013-02-10 01:52:00,
2013-02-09 20:53:00,66.4,12.3,30.17,North,9,0.0,0.0,12,0.00,,---,0.00,VWS V14.01,2013-02-10 01:53:00,
2013-02-09 20:54:00,66.4,12.3,30.17,North,9,0.0,0.0,12,0.00,,---,0.00,VWS V14.01,2013-02-10 01:54:00,
2013-02-09 20:55:00,66.6,12.4,30.17,North,9,0.0,0.0,12,0.00,,---,0.00,VWS V14.01,2013-02-10 01:55:00,
2013-02-09 20:56:00,66.6,12.4,30.17,North,9,0.0,0.0,12,0.00,,---,0.00,VWS V14.01,2013-02-10 01:56:00,
2013-02-09 20:57:00,66.6,12.4,30.17,North,9,0.0,0.0,12,0.00,,---,0.00,VWS V14.01,2013-02-10 01:57:00,
2013-02-09 20:58:00,66.6,12.4,30.17,North,9,0.0,0.0,12,0.00,,---,0.00,VWS V14.01,2013-02-10 01:58:00,
2013-02-09 20:59:00,66.6,12.4,30.17,North,9,0.0,0.0,12,0.00,,---,0.00,VWS V14.01,2013-02-10 01:59:00,
2013-02-09 21:00:00,66.7,12.5,30.17,North,9,0.0,0.0,12,0.00,,---,0.00,VWS V14.01,2013-02-10 02:00:00,
2013-02-09 21:01:00,66.7,12.5,30.17,North,9,0.0,0.0,12,0.00,,---,0.00,VWS V14.01,2013-02-10 02:01:00,
2013-02-09 21:02:00,66.7,12.5,30.17,North,9,0.0,0.0,12,0.00,,---,0.00,VWS V14.01,2013-02-10 02:02:00,
2013-02-09 21:03:00,66.7,12.5,30.17,North,9,0.0,0.0,12,0.00,,---,0.00,VWS V14.01,2013-02-10 02:03:00,
2013-02-09 21:04:00,66.7,12.5,30.17,North,9,0.0,0.0,12,0.00,,---,0.00,VWS V14.01,2013-02-10 02:04:00,
2013-02-09 21:05:00,66.7,12.5,30.17,North,9,0.0,0.0,12,0.00,,---,0.00,VWS V14.01,2013-02-10 02:05:00,
2013-02-09 21:06:00,66.7,12.5,30.17,North,9,0.0,0.0,12,0.00,,---,0.00,VWS V14.01,2013-02-10 02:06:00,
2013-02-09 21:07:00,66.7,12.5,30.17,North,9,0.0,0.0,12,0.00,,---,0.00,VWS V14.01,2013-02-10 02:07:00,
2013-02-09 21:08:00,66.7,12.5,30.17,North,9,0.0,0.0,12,0.00,,---,0.00,VWS V14.01,2013-02-10 02:08:00,
2013-02-09 21:09:00,66.7,12.5,30.17,North,9,0.0,0.0,12,0.00,,---,0.00,VWS V14.01,2013-02-10 02:09:00,
2013-02-09 21:10:00,66.7,12.5,30.17,NNE,30,0.0,0.0,12,0.00,,---,0.00,VWS V14.01,2013-02-10 02:10:00,
2013-02-09 21:11:00,66.7,12.5,30.17,ESE,122,0.0,0.0,12,0.00,,---,0.00,VWS V14.01,2013-02-10 02:11:00,
2013-02-09 21:12:00,66.7,12.5,30.17,East,99,0.0,0.0,12,0.00,,---,0.00,VWS V14.01,2013-02-10 02:12:00,
2013-02-09 21:13:00,66.7,12.5,30.17,East,100,0.0,0.0,12,0.00,,---,0.00,VWS V14.01,2013-02-10 02:13:00,
2013-02-09 21:14:00,66.7,12.5,30.17,East,99,0.0,0.0,12,0.00,,---,0.00,VWS V14.01,2013-02-10 02:14:00,
2013-02-09 21:15:00,66.7,12.5,30.17,East,92,0.0,0.0,12,0.00,,---,0.00,VWS V14.01,2013-02-10 02:15:00,
2013-02-09 21:16:00,66.7,12.5,30.17,East,88,0.0,0.0,12,0.00,,---,0.00,VWS V14.01,2013-02-10 02:16:00,
2013-02-09 21:17:00,66.7,12.5,30.17,NNE,26,0.0,0.0,12,0.00,,---,0.00,VWS V14.01,2013-02-10 02:17:00,
2013-02-09 21:18:00,66.7,12.5,30.17,NE,39,0.0,0.0,12,0.00,,---,0.00,VWS V14.01,2013-02-10 02:18:00,
2013-02-09 21:19:00,66.7,12.5,30.17,NE,39,0.0,0.0,12,0.00,,---,0.00,VWS V14.01,2013-02-10 02:19:00,
2013-02-09 21:20:00,66.7,12.5,30.17,East,93,0.0,0.0,12,0.00,,---,0.00,VWS V14.01,2013-02-10 02:20:00,
2013-02-09 21:21:00,66.7,12.5,30.17,East,91,0.0,0.0,12,0.00,,---,0.00,VWS V14.01,2013-02-10 02:21:00,
2013-02-09 21:22:00,66.7,12.5,30.17,East,91,0.0,0.0,12,0.00,,---,0.00,VWS V14.01,2013-02-10 02:22:00,
2013-02-09 21:23:00,66.7,12.5,30.17,ESE,116,0.0,0.0,12,0.00,,---,0.00,VWS V14.01,2013-02-10 02:23:00,
2013-02-09 21:24:00,66.7,12.5,30.17,ESE,116,0.0,0.0,12,0.00,,---,0.00,VWS V14.01,2013-02-10 02:24:00,
2013-02-09 21:25:00,66.7,12.5,30.17,ESE,116,0.0,0.0,12,0.00,,---,0.00,VWS V14.01,2013-02-10 02:25:00,
2013-02-09 21:26:00,66.7,12.5,30.17,ESE,116,0.0,0.0,12,0.00,,---,0.00,VWS V14.01,2013-02-10 02:26:00,
2013-02-09 21:27:00,66.7,17.6,30.17,ESE,116,0.0,0.0,15,0.00,,---,0.00,VWS V14.01,2013-02-10 02:27:00,
2013-02-09 21:28:00,66.7,17.6,30.17,ESE,116,0.0,0.0,15,0.00,,---,0.00,VWS V14.01,2013-02-10 02:28:00,
2013-02-09 21:29:00,66.7,17.6,30.17,ESE,116,0.0,0.0,15,0.00,,---,0.00,VWS V14.01,2013-02-10 02:29:00,
2013-02-09 21:30:00,66.6,17.5,30.17,ESE,116,0.0,0.0,15,0.00,,---,0.00,VWS V14.01,2013-02-10 02:30:00,
2013-02-09 21:31:00,66.6,17.5,30.17,NE,56,0.0,0.0,15,0.00,,---,0.00,VWS V14.01,2013-02-10 02:31:00,
2013-02-09 21:32:00,66.6,17.5,30.17,SW,217,0.0,0.0,15,0.00,,---,0.00,VWS V14.01,2013-02-10 02:32:00,
2013-02-09 21:33:00,66.6,17.5,30.17,SW,217,0.0,0.0,15,0.00,,---,0.00,VWS V14.01,2013-02-10 02:33:00,
2013-02-09 21:34:00,66.6,17.5,30.17,SW,216,0.0,0.0,15,0.00,,---,0.00,VWS V14.01,2013-02-10 02:34:00,
2013-02-09 21:35:00,66.6,17.5,30.17,SSW,212,0.0,0.0,15,0.00,,---,0.00,VWS V14.01,2013-02-10 02:35:00,
2013-02-09 21:36:00,66.6,17.5,30.17,ESE,120,0.0,0.0,15,0.00,,---,0.00,VWS V14.01,2013-02-10 02:36:00,
2013-02-09 21:37:00,66.4,17.4,30.17,ESE,107,0.0,0.0,15,0.00,,---,0.00,VWS V14.01,2013-02-10 02:37:00,
2013-02-09 21:38:00,66.4,17.4,30.17,ESE,106,0.0,0.0,15,0.00,,---,0.00,VWS V14.01,2013-02-10 02:38:00,
2013-02-09 21:39:00,66.4,17.4,30.17,ESE,108,0.0,0.0,15,0.00,,---,0.00,VWS V14.01,2013-02-10 02:39:00,
2013-02-09 21:40:00,66.4,17.4,30.17,ESE,108,0.0,0.0,15,0.00,,---,0.00,VWS V14.01,2013-02-10 02:40:00,
2013-02-09 21:41:00,66.4,17.4,30.17,ESE,108,0.0,0.0,15,0.00,,---,0.00,VWS V14.01,2013-02-10 02:41:00,
2013-02-09 21:42:00,66.4,17.4,30.17,ESE,108,0.0,0.0,15,0.00,,---,0.00,VWS V14.01,2013-02-10 02:42:00,
2013-02-09 21:43:00,66.4,17.4,30.17,ESE,108,0.0,0.0,15,0.00,,---,0.00,VWS V14.01,2013-02-10 02:43:00,
2013-02-09 21:44:00,66.4,17.4,30.17,ESE,108,0.0,0.0,15,0.00,,---,0.00,VWS V14.01,2013-02-10 02:44:00,
2013-02-09 21:45:00,66.4,17.4,30.17,ESE,108,0.0,0.0,15,0.00,,---,0.00,VWS V14.01,2013-02-10 02:45:00,
2013-02-09 21:46:00,66.2,17.2,30.17,ESE,108,0.0,0.0,15,0.00,,---,0.00,VWS V14.01,2013-02-10 02:46:00,
2013-02-09 21:47:00,66.2,17.2,30.17,ESE,108,0.0,0.0,15,0.00,,---,0.00,VWS V14.01,2013-02-10 02:47:00,
2013-02-09 21:48:00,66.2,17.2,30.17,ESE,108,0.0,0.0,15,0.00,,---,0.00,VWS V14.01,2013-02-10 02:48:00,
2013-02-09 21:49:00,66.2,17.2,30.17,ESE,108,0.0,0.0,15,0.00,,---,0.00,VWS V14.01,2013-02-10 02:49:00,
2013-02-09 21:50:00,66.2,17.2,30.17,ESE,108,0.0,0.0,15,0.00,,---,0.00,VWS V14.01,2013-02-10 02:50:00,
2013-02-09 21:51:00,66.2,17.2,30.17,ESE,108,0.0,0.0,15,0.00,,---,0.00,VWS V14.01,2013-02-10 02:51:00,
2013-02-09 21:52:00,66.0,17.1,30.17,ESE,108,0.0,0.0,15,0.00,,---,0.00,VWS V14.01,2013-02-10 02:52:00,
2013-02-09 21:53:00,66.0,17.1,30.17,ESE,108,0.0,0.0,15,0.00,,---,0.00,VWS V14.01,2013-02-10 02:53:00,
2013-02-09 21:54:00,66.0,17.1,30.17,ESE,108,0.0,0.0,15,0.00,,---,0.00,VWS V14.01,2013-02-10 02:54:00,
2013-02-09 21:55:00,66.0,17.1,30.17,ESE,108,0.0,0.0,15,0.00,,---,0.00,VWS V14.01,2013-02-10 02:55:00,
2013-02-09 21:56:00,66.0,17.1,30.17,ESE,110,0.0,0.0,15,0.00,,---,0.00,VWS V14.01,2013-02-10 02:56:00,
2013-02-09 21:57:00,65.8,16.9,30.17,ESE,110,0.0,0.0,15,0.00,,---,0.00,VWS V14.01,2013-02-10 02:57:00,
2013-02-09 21:58:00,65.8,16.9,30.17,ESE,110,0.0,0.0,15,0.00,,---,0.00,VWS V14.01,2013-02-10 02:58:00,
2013-02-09 21:59:00,65.8,16.9,30.17,NE,34,0.0,0.0,15,0.00,,---,0.00,VWS V14.01,2013-02-10 02:59:00,
2013-02-09 22:00:00,65.8,16.9,30.17,NE,34,0.0,0.0,15,0.00,,---,0.00,VWS V14.01,2013-02-10 03:00:00,
2013-02-09 22:01:00,65.8,16.9,30.17,NE,34,0.0,0.0,15,0.00,,---,0.00,VWS V14.01,2013-02-10 03:01:00,
2013-02-09 22:02:00,65.8,21.2,30.17,NE,34,0.0,0.0,18,0.00,,---,0.00,VWS V14.01,2013-02-10 03:02:00,
2013-02-09 22:03:00,65.8,21.2,30.17,NE,35,0.0,0.0,18,0.00,,---,0.00,VWS V14.01,2013-02-10 03:03:00,
2013-02-09 22:04:00,65.8,21.2,30.17,NE,34,0.0,0.0,18,0.00,,---,0.00,VWS V14.01,2013-02-10 03:04:00,
2013-02-09 22:05:00,65.8,21.2,30.17,ENE,58,0.0,0.0,18,0.00,,---,0.00,VWS V14.01,2013-02-10 03:05:00,
2013-02-09 22:06:00,65.7,21.0,30.17,ENE,58,0.0,0.0,18,0.00,,---,0.00,VWS V14.01,2013-02-10 03:06:00,
2013-02-09 22:07:00,65.7,21.0,30.17,ENE,58,0.0,0.0,18,0.00,,---,0.00,VWS V14.01,2013-02-10 03:07:00,
2013-02-09 22:08:00,65.7,21.0,30.17,ENE,60,0.0,0.0,18,0.00,,---,0.00,VWS V14.01,2013-02-10 03:08:00,
2013-02-09 22:09:00,65.7,21.0,30.17,East,97,0.0,0.0,18,0.00,,---,0.00,VWS V14.01,2013-02-10 03:09:00,
2013-02-09 22:10:00,65.7,21.0,30.17,East,80,0.0,0.0,18,0.00,,---,0.00,VWS V14.01,2013-02-10 03:10:00,
2013-02-09 22:11:00,65.7,21.0,30.17,East,80,0.0,0.0,18,0.00,,---,0.00,VWS V14.01,2013-02-10 03:11:00,
2013-02-09 22:12:00,65.7,21.0,30.17,NE,50,0.0,0.0,18,0.00,,---,0.00,VWS V14.01,2013-02-10 03:12:00,
2013-02-09 22:13:00,65.7,21.0,30.17,NE,50,0.0,0.0,18,0.00,,---,0.00,VWS V14.01,2013-02-10 03:13:00,
2013-02-09 22:14:00,65.7,21.0,30.17,NE,50,0.0,0.0,18,0.00,,---,0.00,VWS V14.01,2013-02-10 03:14:00,
2013-02-09 22:15:00,65.7,21.0,30.17,NE,50,0.0,0.0,18,0.00,,---,0.00,VWS V14.01,2013-02-10 03:15:00,
2013-02-09 22:16:00,65.7,21.0,30.17,NE,50,0.0,0.0,18,0.00,,---,0.00,VWS V14.01,2013-02-10 03:16:00,
2013-02-09 22:17:00,65.7,21.0,30.17,NE,50,0.0,0.0,18,0.00,,---,0.00,VWS V14.01,2013-02-10 03:17:00,
2013-02-09 22:18:00,65.7,21.0,30.17,NE,50,0.0,0.0,18,0.00,,---,0.00,VWS V14.01,2013-02-10 03:18:00,
2013-02-09 22:19:00,65.7,21.0,30.17,ESE,118,0.0,0.0,18,0.00,,---,0.00,VWS V14.01,2013-02-10 03:19:00,
2013-02-09 22:20:00,65.7,21.0,30.17,NE,50,0.0,0.0,18,0.00,,---,0.00,VWS V14.01,2013-02-10 03:20:00,
2013-02-09 22:21:00,65.5,20.9,30.17,NE,51,0.0,0.0,18,0.00,,---,0.00,VWS V14.01,2013-02-10 03:21:00,
2013-02-09 22:22:00,65.5,20.9,30.17,NE,52,0.0,0.0,18,0.00,,---,0.00,VWS V14.01,2013-02-10 03:22:00,
2013-02-09 22:23:00,65.5,20.9,30.17,NE,51,0.0,0.0,18,0.00,,---,0.00,VWS V14.01,2013-02-10 03:23:00,
2013-02-09 22:24:00,65.5,20.9,30.17,NE,51,0.0,0.0,18,0.00,,---,0.00,VWS V14.01,2013-02-10 03:24:00,
2013-02-09 22:25:00,65.5,20.9,30.17,NE,51,0.0,0.0,18,0.00,,---,0.00,VWS V14.01,2013-02-10 03:25:00,
2013-02-09 22:26:00,65.5,20.9,30.17,NE,51,0.0,0.0,18,0.00,,---,0.00,VWS V14.01,2013-02-10 03:26:00,
2013-02-09 22:27:00,65.5,20.9,30.17,NE,52,0.0,0.0,18,0.00,,---,0.00,VWS V14.01,2013-02-10 03:27:00,
2013-02-09 22:28:00,65.5,20.9,30.17,North,9,0.0,0.0,18,0.00,,---,0.00,VWS V14.01,2013-02-10 03:28:00,
2013-02-09 22:29:00,65.5,20.9,30.17,NNE,27,0.0,0.0,18,0.00,,---,0.00,VWS V14.01,2013-02-10 03:29:00,
2013-02-09 22:30:00,65.5,20.9,30.17,NNE,29,0.0,0.0,18,0.00,,---,0.00,VWS V14.01,2013-02-10 03:30:00,
2013-02-09 22:31:00,65.5,20.9,30.17,NNE,29,0.0,0.0,18,0.00,,---,0.00,VWS V14.01,2013-02-10 03:31:00,
2013-02-09 22:32:00,65.5,20.9,30.17,NNE,29,0.0,0.0,18,0.00,,---,0.00,VWS V14.01,2013-02-10 03:32:00,
2013-02-09 22:33:00,65.5,23.4,30.17,NNE,29,0.0,0.0,20,0.00,,---,0.00,VWS V14.01,2013-02-10 03:33:00,
2013-02-09 22:34:00,65.5,23.4,30.17,NNE,29,0.0,0.0,20,0.00,,---,0.00,VWS V14.01,2013-02-10 03:34:00,
2013-02-09 22:35:00,65.5,23.4,30.17,NE,53,0.0,0.0,20,0.00,,---,0.00,VWS V14.01,2013-02-10 03:35:00,
2013-02-09 22:36:00,65.3,23.2,30.17,NE,53,0.0,0.0,20,0.00,,---,0.00,VWS V14.01,2013-02-10 03:36:00,
2013-02-09 22:37:00,65.3,23.2,30.17,NE,53,0.0,0.0,20,0.00,,---,0.00,VWS V14.01,2013-02-10 03:37:00,
2013-02-09 22:38:00,65.3,23.2,30.17,NE,53,0.0,0.0,20,0.00,,---,0.00,VWS V14.01,2013-02-10 03:38:00,
2013-02-09 22:39:00,65.3,23.2,30.17,NE,53,0.0,0.0,20,0.00,,---,0.00,VWS V14.01,2013-02-10 03:39:00,
2013-02-09 22:40:00,65.3,23.2,30.17,NE,53,0.0,0.0,20,0.00,,---,0.00,VWS V14.01,2013-02-10 03:40:00,
2013-02-09 22:41:00,65.3,23.2,30.17,NE,53,0.0,0.0,20,0.00,,---,0.00,VWS V14.01,2013-02-10 03:41:00,
2013-02-09 22:42:00,65.3,23.2,30.17,NE,53,0.0,0.0,20,0.00,,---,0.00,VWS V14.01,2013-02-10 03:42:00,
2013-02-09 22:43:00,65.3,23.2,30.17,NE,53,0.0,0.0,20,0.00,,---,0.00,VWS V14.01,2013-02-10 03:43:00,
2013-02-09 22:44:00,65.3,23.2,30.17,NE,53,0.0,0.0,20,0.00,,---,0.00,VWS V14.01,2013-02-10 03:44:00,
2013-02-09 22:45:00,65.1,23.1,30.17,SE,124,0.0,0.0,20,0.00,,---,0.00,VWS V14.01,2013-02-10 03:45:00,
2013-02-09 22:46:00,65.1,23.1,30.17,SE,125,0.0,0.0,20,0.00,,---,0.00,VWS V14.01,2013-02-10 03:46:00,
2013-02-09 22:47:00,65.1,23.1,30.17,SE,124,0.0,0.0,20,0.00,,---,0.00,VWS V14.01,2013-02-10 03:47:00,
2013-02-09 22:48:00,65.1,23.1,30.17,SE,124,0.0,0.0,20,0.00,,---,0.00,VWS V14.01,2013-02-10 03:48:00,
2013-02-09 22:49:00,65.1,23.1,30.17,SE,124,0.0,0.0,20,0.00,,---,0.00,VWS V14.01,2013-02-10 03:49:00,
2013-02-09 22:50:00,65.1,23.1,30.17,SE,124,0.0,0.0,20,0.00,,---,0.00,VWS V14.01,2013-02-10 03:50:00,
2013-02-09 22:51:00,65.1,23.1,30.17,ENE,70,0.0,0.0,20,0.00,,---,0.00,VWS V14.01,2013-02-10 03:51:00,
2013-02-09 22:52:00,65.1,23.1,30.17,ENE,70,0.0,0.0,20,0.00,,---,0.00,VWS V14.01,2013-02-10 03:52:00,
2013-02-09 22:53:00,65.1,23.1,30.17,ENE,70,0.0,0.0,20,0.00,,---,0.00,VWS V14.01,2013-02-10 03:53:00,
2013-02-09 22:54:00,64.9,22.9,30.17,ENE,70,0.0,0.0,20,0.00,,---,0.00,VWS V14.01,2013-02-10 03:54:00,
2013-02-09 22:55:00,64.9,22.9,30.17,ENE,76,0.0,0.0,20,0.00,,---,0.00,VWS V14.01,2013-02-10 03:55:00,
2013-02-09 22:56:00,64.9,22.9,30.17,ENE,76,0.0,0.0,20,0.00,,---,0.00,VWS V14.01,2013-02-10 03:56:00,
2013-02-09 22:57:00,64.9,22.9,30.17,ENE,76,0.0,0.0,20,0.00,,---,0.00,VWS V14.01,2013-02-10 03:57:00,
2013-02-09 22:58:00,64.9,22.9,30.17,East,88,0.0,0.0,20,0.00,,---,0.00,VWS V14.01,2013-02-10 03:58:00,
2013-02-09 22:59:00,64.9,22.9,30.17,East,88,0.0,0.0,20,0.00,,---,0.00,VWS V14.01,2013-02-10 03:59:00,
2013-02-09 23:00:00,64.8,22.8,30.17,East,88,0.0,0.0,20,0.00,,---,0.00,VWS V14.01,2013-02-10 04:00:00,
2013-02-09 23:01:00,64.8,22.8,30.17,East,88,0.0,0.0,20,0.00,,---,0.00,VWS V14.01,2013-02-10 04:01:00,
2013-02-09 23:02:00,64.8,22.8,30.17,East,88,0.0,0.0,20,0.00,,---,0.00,VWS V14.01,2013-02-10 04:02:00,
2013-02-09 23:03:00,64.8,22.8,30.17,East,88,0.0,0.0,20,0.00,,---,0.00,VWS V14.01,2013-02-10 04:03:00,
2013-02-09 23:04:00,64.8,22.8,30.17,East,88,0.0,0.0,20,0.00,,---,0.00,VWS V14.01,2013-02-10 04:04:00,
2013-02-09 23:05:00,64.8,22.8,30.17,East,88,0.0,0.0,20,0.00,,---,0.00,VWS V14.01,2013-02-10 04:05:00,
2013-02-09 23:06:00,64.8,22.8,30.17,East,88,0.0,0.0,20,0.00,,---,0.00,VWS V14.01,2013-02-10 04:06:00,
2013-02-09 23:07:00,64.8,22.8,30.17,NE,55,0.0,0.0,20,0.00,,---,0.00,VWS V14.01,2013-02-10 04:07:00,
2013-02-09 23:08:00,64.8,22.8,30.17,ENE,77,0.0,0.0,20,0.00,,---,0.00,VWS V14.01,2013-02-10 04:08:00,
2013-02-09 23:09:00,64.8,22.8,30.17,ENE,77,0.0,0.0,20,0.00,,---,0.00,VWS V14.01,2013-02-10 04:09:00,
2013-02-09 23:10:00,64.8,22.8,30.17,ENE,77,0.0,0.0,20,0.00,,---,0.00,VWS V14.01,2013-02-10 04:10:00,
2013-02-09 23:11:00,64.8,22.8,30.17,ENE,77,0.0,0.0,20,0.00,,---,0.00,VWS V14.01,2013-02-10 04:11:00,
2013-02-09 23:12:00,64.6,22.6,30.17,East,91,0.0,0.0,20,0.00,,---,0.00,VWS V14.01,2013-02-10 04:12:00,
2013-02-09 23:13:00,64.6,22.6,30.17,East,98,0.0,0.0,20,0.00,,---,0.00,VWS V14.01,2013-02-10 04:13:00,
2013-02-09 23:14:00,64.6,22.6,30.17,East,98,0.0,0.0,20,0.00,,---,0.00,VWS V14.01,2013-02-10 04:14:00,
2013-02-09 23:15:00,64.6,22.6,30.17,East,98,0.0,0.0,20,0.00,,---,0.00,VWS V14.01,2013-02-10 04:15:00,
2013-02-09 23:16:00,64.6,22.6,30.17,East,98,0.0,0.0,20,0.00,,---,0.00,VWS V14.01,2013-02-10 04:16:00,
2013-02-09 23:17:00,64.6,22.6,30.17,East,98,0.0,0.0,20,0.00,,---,0.00,VWS V14.01,2013-02-10 04:17:00,
2013-02-09 23:18:00,64.6,26.0,30.17,East,98,0.0,0.0,23,0.00,,---,0.00,VWS V14.01,2013-02-10 04:18:00,
2013-02-09 23:19:00,64.4,22.5,30.17,East,98,0.0,0.0,20,0.00,,---,0.00,VWS V14.01,2013-02-10 04:19:00,
2013-02-09 23:20:00,64.4,25.8,30.17,East,97,0.0,0.0,23,0.00,,---,0.00,VWS V14.01,2013-02-10 04:20:00,
2013-02-09 23:21:00,64.4,25.8,30.17,East,97,0.0,0.0,23,0.00,,---,0.00,VWS V14.01,2013-02-10 04:21:00,
2013-02-09 23:22:00,64.4,25.8,30.17,East,97,0.0,0.0,23,0.00,,---,0.00,VWS V14.01,2013-02-10 04:22:00,
2013-02-09 23:23:00,64.4,25.8,30.19,East,97,0.0,0.0,23,0.00,,---,0.00,VWS V14.01,2013-02-10 04:23:00,
2013-02-09 23:24:00,64.4,25.8,30.19,East,97,0.0,0.0,23,0.00,,---,0.00,VWS V14.01,2013-02-10 04:24:00,
2013-02-09 23:25:00,64.4,25.8,30.19,East,97,0.0,0.0,23,0.00,,---,0.00,VWS V14.01,2013-02-10 04:25:00,
2013-02-09 23:26:00,64.4,25.8,30.19,East,97,0.0,0.0,23,0.00,,---,0.00,VWS V14.01,2013-02-10 04:26:00,
2013-02-09 23:27:00,64.4,25.8,30.19,ENE,58,0.0,0.0,23,0.00,,---,0.00,VWS V14.01,2013-02-10 04:27:00,
2013-02-09 23:28:00,64.4,25.8,30.19,ENE,59,0.0,0.0,23,0.00,,---,0.00,VWS V14.01,2013-02-10 04:28:00,
2013-02-09 23:29:00,64.2,25.7,30.19,ENE,58,0.0,0.0,23,0.00,,---,0.00,VWS V14.01,2013-02-10 04:29:00,
2013-02-09 23:30:00,64.2,25.7,30.19,ENE,59,0.0,0.0,23,0.00,,---,0.00,VWS V14.01,2013-02-10 04:30:00,
2013-02-09 23:31:00,64.2,25.7,30.19,ENE,59,0.0,0.0,23,0.00,,---,0.00,VWS V14.01,2013-02-10 04:31:00,
2013-02-09 23:32:00,64.2,25.7,30.19,ENE,59,0.0,0.0,23,0.00,,---,0.00,VWS V14.01,2013-02-10 04:32:00,
2013-02-09 23:33:00,64.2,25.7,30.19,ENE,59,0.0,0.0,23,0.00,,---,0.00,VWS V14.01,2013-02-10 04:33:00,
2013-02-09 23:34:00,64.2,25.7,30.19,ENE,59,0.0,0.0,23,0.00,,---,0.00,VWS V14.01,2013-02-10 04:34:00,
2013-02-09 23:35:00,64.2,25.7,30.19,ENE,59,0.0,0.0,23,0.00,,---,0.00,VWS V14.01,2013-02-10 04:35:00,
2013-02-09 23:36:00,64.2,25.7,30.19,ESE,122,0.0,0.0,23,0.00,,---,0.00,VWS V14.01,2013-02-10 04:36:00,
2013-02-09 23:37:00,64.2,25.7,30.19,ESE,122,0.0,0.0,23,0.00,,---,0.00,VWS V14.01,2013-02-10 04:37:00,
2013-02-09 23:38:00,64.2,25.7,30.19,ESE,122,0.0,0.0,23,0.00,,---,0.00,VWS V14.01,2013-02-10 04:38:00,
2013-02-09 23:39:00,64.2,25.7,30.19,ESE,122,0.0,0.0,23,0.00,,---,0.00,VWS V14.01,2013-02-10 04:39:00,
2013-02-09 23:40:00,64.2,25.7,30.19,ESE,122,0.0,0.0,23,0.00,,---,0.00,VWS V14.01,2013-02-10 04:40:00,
2013-02-09 23:41:00,64.2,25.7,30.19,ESE,121,0.0,0.0,23,0.00,,---,0.00,VWS V14.01,2013-02-10 04:41:00,
2013-02-09 23:42:00,64.2,25.7,30.19,NE,48,0.0,0.0,23,0.00,,---,0.00,VWS V14.01,2013-02-10 04:42:00,
2013-02-09 23:43:00,64.2,25.7,30.19,ENE,75,0.0,0.0,23,0.00,,---,0.00,VWS V14.01,2013-02-10 04:43:00,
2013-02-09 23:44:00,64.0,25.5,30.19,East,81,0.0,0.0,23,0.00,,---,0.00,VWS V14.01,2013-02-10 04:44:00,
2013-02-09 23:45:00,64.0,25.5,30.19,East,81,0.0,0.0,23,0.00,,---,0.00,VWS V14.01,2013-02-10 04:45:00,
2013-02-09 23:46:00,64.0,25.5,30.19,East,81,0.0,0.0,23,0.00,,---,0.00,VWS V14.01,2013-02-10 04:46:00,
2013-02-09 23:47:00,64.0,26.5,30.19,East,81,0.0,0.0,24,0.00,,---,0.00,VWS V14.01,2013-02-10 04:47:00,
2013-02-09 23:48:00,64.0,26.5,30.19,East,81,0.0,0.0,24,0.00,,---,0.00,VWS V14.01,2013-02-10 04:48:00,
2013-02-09 23:49:00,64.0,26.5,30.19,East,81,0.0,0.0,24,0.00,,---,0.00,VWS V14.01,2013-02-10 04:49:00,
2013-02-09 23:50:00,64.0,26.5,30.19,East,81,0.0,0.0,24,0.00,,---,0.00,VWS V14.01,2013-02-10 04:50:00,
2013-02-09 23:51:00,64.0,26.5,30.19,East,81,0.0,0.0,24,0.00,,---,0.00,VWS V14.01,2013-02-10 04:51:00,
2013-02-09 23:52:00,64.0,26.5,30.19,East,81,0.0,0.0,24,0.00,,---,0.00,VWS V14.01,2013-02-10 04:52:00,
2013-02-09 23:53:00,64.0,26.5,30.17,East,81,0.0,0.0,24,0.00,,---,0.00,VWS V14.01,2013-02-10 04:53:00,
2013-02-09 23:54:00,64.0,26.5,30.17,East,81,0.0,0.0,24,0.00,,---,0.00,VWS V14.01,2013-02-10 04:54:00,
2013-02-09 23:55:00,63.9,26.4,30.17,East,81,0.0,0.0,24,0.00,,---,0.00,VWS V14.01,2013-02-10 04:55:00,
2013-02-09 23:56:00,63.9,26.4,30.17,East,81,0.0,0.0,24,0.00,,---,0.00,VWS V14.01,2013-02-10 04:56:00,
2013-02-09 23:57:00,63.9,26.4,30.17,SE,124,0.0,0.0,24,0.00,,---,0.00,VWS V14.01,2013-02-10 04:57:00,
2013-02-09 23:58:00,63.9,26.4,30.17,ESE,119,0.0,0.0,24,0.00,,---,0.00,VWS V14.01,2013-02-10 04:58:00,
2013-02-09 23:59:00,63.9,26.4,30.17,ESE,119,0.0,0.0,24,0.00,,---,0.00,VWS V14.01,2013-02-10 04:59:00,